<?xml version="1.0" encoding="UTF-8" standalone="no" ?>
<gpx xmlns="http://www.topografix.com/GPX/1/1" xmlns:xsi="http://www.w3.org/2001/XMLSchema-instance" xsi:schemaLocation="http://www.topografix.com/GPX/1/1 http://www.topografix.com/GPX/1/1/gpx.xsd" version="1.1" creator="VisuGPX - https://www.visugpx.com">
  <metadata>
    <name>Randonnée Franqueville</name>
    <desc><![CDATA[Circuit au départ de Franqueville Saint Pierre en passant par Boos et Franquevillette]]></desc>
  </metadata>
  <trk>
    <name><![CDATA[Randonnée Franqueville_1]]></name>
    <trkseg>
      <trkpt lat="49.40344" lon="1.17189">
        <ele>151</ele>
        <time>2017-02-28T13:30:09Z</time>
      </trkpt>
      <trkpt lat="49.40342" lon="1.17212">
        <ele>151</ele>
        <time>2017-02-28T13:30:09Z</time>
      </trkpt>
      <trkpt lat="49.40348" lon="1.17204">
        <ele>151</ele>
        <time>2017-02-28T13:30:09Z</time>
      </trkpt>
      <trkpt lat="49.40312" lon="1.17238">
        <ele>151</ele>
        <time>2017-02-28T13:30:09Z</time>
      </trkpt>
      <trkpt lat="49.40301" lon="1.17251">
        <ele>151</ele>
        <time>2017-02-28T13:30:09Z</time>
      </trkpt>
      <trkpt lat="49.40318" lon="1.17247">
        <ele>151</ele>
        <time>2017-02-28T13:30:37Z</time>
      </trkpt>
      <trkpt lat="49.40317" lon="1.17244">
        <ele>151</ele>
        <time>2017-02-28T13:30:37Z</time>
      </trkpt>
      <trkpt lat="49.40319" lon="1.17241">
        <ele>151</ele>
        <time>2017-02-28T13:30:37Z</time>
      </trkpt>
      <trkpt lat="49.40319" lon="1.17241">
        <ele>151</ele>
        <time>2017-02-28T13:30:37Z</time>
      </trkpt>
      <trkpt lat="49.40321" lon="1.17238">
        <ele>151</ele>
        <time>2017-02-28T13:30:37Z</time>
      </trkpt>
      <trkpt lat="49.40322" lon="1.17236">
        <ele>151</ele>
        <time>2017-02-28T13:33:01Z</time>
      </trkpt>
      <trkpt lat="49.40322" lon="1.17197">
        <ele>151</ele>
        <time>2017-02-28T13:33:01Z</time>
      </trkpt>
      <trkpt lat="49.40322" lon="1.17197">
        <ele>151</ele>
        <time>2017-02-28T13:33:01Z</time>
      </trkpt>
      <trkpt lat="49.40323" lon="1.17194">
        <ele>151</ele>
        <time>2017-02-28T13:33:01Z</time>
      </trkpt>
      <trkpt lat="49.40325" lon="1.17187">
        <ele>151</ele>
        <time>2017-02-28T13:33:01Z</time>
      </trkpt>
      <trkpt lat="49.40322" lon="1.17193">
        <ele>151</ele>
        <time>2017-02-28T13:38:49Z</time>
      </trkpt>
      <trkpt lat="49.40322" lon="1.17193">
        <ele>151</ele>
        <time>2017-02-28T13:38:49Z</time>
      </trkpt>
      <trkpt lat="49.40322" lon="1.17193">
        <ele>151</ele>
        <time>2017-02-28T13:38:49Z</time>
      </trkpt>
      <trkpt lat="49.40318" lon="1.17191">
        <ele>151</ele>
        <time>2017-02-28T13:38:49Z</time>
      </trkpt>
      <trkpt lat="49.4031" lon="1.17193">
        <ele>151</ele>
        <time>2017-02-28T13:38:49Z</time>
      </trkpt>
      <trkpt lat="49.40303" lon="1.17192">
        <ele>151</ele>
        <time>2017-02-28T13:39:05Z</time>
      </trkpt>
      <trkpt lat="49.40297" lon="1.17195">
        <ele>151</ele>
        <time>2017-02-28T13:39:05Z</time>
      </trkpt>
      <trkpt lat="49.40293" lon="1.17195">
        <ele>151</ele>
        <time>2017-02-28T13:39:05Z</time>
      </trkpt>
      <trkpt lat="49.40287" lon="1.17196">
        <ele>150</ele>
        <time>2017-02-28T13:39:05Z</time>
      </trkpt>
      <trkpt lat="49.40278" lon="1.17198">
        <ele>150</ele>
        <time>2017-02-28T13:39:21Z</time>
      </trkpt>
      <trkpt lat="49.40273" lon="1.17201">
        <ele>150</ele>
        <time>2017-02-28T13:39:21Z</time>
      </trkpt>
      <trkpt lat="49.40268" lon="1.172">
        <ele>150</ele>
        <time>2017-02-28T13:39:21Z</time>
      </trkpt>
      <trkpt lat="49.40263" lon="1.17201">
        <ele>150</ele>
        <time>2017-02-28T13:39:21Z</time>
      </trkpt>
      <trkpt lat="49.4026" lon="1.17203">
        <ele>150</ele>
        <time>2017-02-28T13:39:37Z</time>
      </trkpt>
      <trkpt lat="49.40255" lon="1.17205">
        <ele>150</ele>
        <time>2017-02-28T13:39:37Z</time>
      </trkpt>
      <trkpt lat="49.40249" lon="1.17205">
        <ele>150</ele>
        <time>2017-02-28T13:39:37Z</time>
      </trkpt>
      <trkpt lat="49.40244" lon="1.17205">
        <ele>150</ele>
        <time>2017-02-28T13:39:37Z</time>
      </trkpt>
      <trkpt lat="49.40241" lon="1.17206">
        <ele>150</ele>
        <time>2017-02-28T13:39:53Z</time>
      </trkpt>
      <trkpt lat="49.40234" lon="1.17206">
        <ele>150</ele>
        <time>2017-02-28T13:39:53Z</time>
      </trkpt>
      <trkpt lat="49.40229" lon="1.17206">
        <ele>150</ele>
        <time>2017-02-28T13:39:53Z</time>
      </trkpt>
      <trkpt lat="49.40225" lon="1.17207">
        <ele>150</ele>
        <time>2017-02-28T13:39:53Z</time>
      </trkpt>
      <trkpt lat="49.4022" lon="1.17207">
        <ele>150</ele>
        <time>2017-02-28T13:40:09Z</time>
      </trkpt>
      <trkpt lat="49.40215" lon="1.17207">
        <ele>150</ele>
        <time>2017-02-28T13:40:09Z</time>
      </trkpt>
      <trkpt lat="49.4021" lon="1.17207">
        <ele>150</ele>
        <time>2017-02-28T13:40:09Z</time>
      </trkpt>
      <trkpt lat="49.40205" lon="1.17207">
        <ele>147</ele>
        <time>2017-02-28T13:40:09Z</time>
      </trkpt>
      <trkpt lat="49.40201" lon="1.17205">
        <ele>147</ele>
        <time>2017-02-28T13:40:26Z</time>
      </trkpt>
      <trkpt lat="49.40196" lon="1.17197">
        <ele>147</ele>
        <time>2017-02-28T13:40:26Z</time>
      </trkpt>
      <trkpt lat="49.40191" lon="1.17178">
        <ele>147</ele>
        <time>2017-02-28T13:40:26Z</time>
      </trkpt>
      <trkpt lat="49.40187" lon="1.17172">
        <ele>147</ele>
        <time>2017-02-28T13:40:26Z</time>
      </trkpt>
      <trkpt lat="49.40183" lon="1.17172">
        <ele>147</ele>
        <time>2017-02-28T13:40:41Z</time>
      </trkpt>
      <trkpt lat="49.40178" lon="1.17175">
        <ele>147</ele>
        <time>2017-02-28T13:40:41Z</time>
      </trkpt>
      <trkpt lat="49.40174" lon="1.17178">
        <ele>147</ele>
        <time>2017-02-28T13:40:41Z</time>
      </trkpt>
      <trkpt lat="49.4017" lon="1.17181">
        <ele>147</ele>
        <time>2017-02-28T13:40:41Z</time>
      </trkpt>
      <trkpt lat="49.40166" lon="1.17185">
        <ele>147</ele>
        <time>2017-02-28T13:40:57Z</time>
      </trkpt>
      <trkpt lat="49.40163" lon="1.1719">
        <ele>147</ele>
        <time>2017-02-28T13:40:57Z</time>
      </trkpt>
      <trkpt lat="49.4016" lon="1.17196">
        <ele>147</ele>
        <time>2017-02-28T13:40:57Z</time>
      </trkpt>
      <trkpt lat="49.40157" lon="1.172">
        <ele>147</ele>
        <time>2017-02-28T13:40:57Z</time>
      </trkpt>
      <trkpt lat="49.40154" lon="1.17206">
        <ele>147</ele>
        <time>2017-02-28T13:41:14Z</time>
      </trkpt>
      <trkpt lat="49.4015" lon="1.17211">
        <ele>148</ele>
        <time>2017-02-28T13:41:14Z</time>
      </trkpt>
      <trkpt lat="49.40147" lon="1.17216">
        <ele>148</ele>
        <time>2017-02-28T13:41:14Z</time>
      </trkpt>
      <trkpt lat="49.40144" lon="1.17221">
        <ele>148</ele>
        <time>2017-02-28T13:41:14Z</time>
      </trkpt>
      <trkpt lat="49.4014" lon="1.17226">
        <ele>148</ele>
        <time>2017-02-28T13:41:29Z</time>
      </trkpt>
      <trkpt lat="49.40137" lon="1.17231">
        <ele>148</ele>
        <time>2017-02-28T13:41:29Z</time>
      </trkpt>
      <trkpt lat="49.40135" lon="1.17236">
        <ele>148</ele>
        <time>2017-02-28T13:41:29Z</time>
      </trkpt>
      <trkpt lat="49.40132" lon="1.17242">
        <ele>148</ele>
        <time>2017-02-28T13:41:29Z</time>
      </trkpt>
      <trkpt lat="49.40129" lon="1.17247">
        <ele>148</ele>
        <time>2017-02-28T13:41:45Z</time>
      </trkpt>
      <trkpt lat="49.40126" lon="1.17253">
        <ele>148</ele>
        <time>2017-02-28T13:41:45Z</time>
      </trkpt>
      <trkpt lat="49.40123" lon="1.17259">
        <ele>146</ele>
        <time>2017-02-28T13:41:45Z</time>
      </trkpt>
      <trkpt lat="49.40122" lon="1.17268">
        <ele>146</ele>
        <time>2017-02-28T13:41:45Z</time>
      </trkpt>
      <trkpt lat="49.40122" lon="1.17276">
        <ele>146</ele>
        <time>2017-02-28T13:42:01Z</time>
      </trkpt>
      <trkpt lat="49.40122" lon="1.17281">
        <ele>146</ele>
        <time>2017-02-28T13:42:01Z</time>
      </trkpt>
      <trkpt lat="49.40121" lon="1.17288">
        <ele>146</ele>
        <time>2017-02-28T13:42:01Z</time>
      </trkpt>
      <trkpt lat="49.40118" lon="1.17294">
        <ele>147</ele>
        <time>2017-02-28T13:42:01Z</time>
      </trkpt>
      <trkpt lat="49.40116" lon="1.173">
        <ele>147</ele>
        <time>2017-02-28T13:42:17Z</time>
      </trkpt>
      <trkpt lat="49.40113" lon="1.17305">
        <ele>147</ele>
        <time>2017-02-28T13:42:17Z</time>
      </trkpt>
      <trkpt lat="49.4011" lon="1.17311">
        <ele>147</ele>
        <time>2017-02-28T13:42:17Z</time>
      </trkpt>
      <trkpt lat="49.40107" lon="1.17316">
        <ele>147</ele>
        <time>2017-02-28T13:42:17Z</time>
      </trkpt>
      <trkpt lat="49.40104" lon="1.17322">
        <ele>147</ele>
        <time>2017-02-28T13:42:33Z</time>
      </trkpt>
      <trkpt lat="49.40102" lon="1.17328">
        <ele>147</ele>
        <time>2017-02-28T13:42:33Z</time>
      </trkpt>
      <trkpt lat="49.40099" lon="1.17334">
        <ele>147</ele>
        <time>2017-02-28T13:42:33Z</time>
      </trkpt>
      <trkpt lat="49.40097" lon="1.17339">
        <ele>147</ele>
        <time>2017-02-28T13:42:33Z</time>
      </trkpt>
      <trkpt lat="49.40094" lon="1.17345">
        <ele>147</ele>
        <time>2017-02-28T13:42:49Z</time>
      </trkpt>
      <trkpt lat="49.40092" lon="1.17352">
        <ele>147</ele>
        <time>2017-02-28T13:42:49Z</time>
      </trkpt>
      <trkpt lat="49.40089" lon="1.17357">
        <ele>147</ele>
        <time>2017-02-28T13:42:49Z</time>
      </trkpt>
      <trkpt lat="49.40087" lon="1.17361">
        <ele>147</ele>
        <time>2017-02-28T13:42:49Z</time>
      </trkpt>
      <trkpt lat="49.40084" lon="1.17369">
        <ele>147</ele>
        <time>2017-02-28T13:43:05Z</time>
      </trkpt>
      <trkpt lat="49.40082" lon="1.17374">
        <ele>147</ele>
        <time>2017-02-28T13:43:05Z</time>
      </trkpt>
      <trkpt lat="49.40079" lon="1.1738">
        <ele>148</ele>
        <time>2017-02-28T13:43:05Z</time>
      </trkpt>
      <trkpt lat="49.40095" lon="1.17405">
        <ele>148</ele>
        <time>2017-02-28T13:43:05Z</time>
      </trkpt>
      <trkpt lat="49.40096" lon="1.17417">
        <ele>148</ele>
        <time>2017-02-28T13:43:21Z</time>
      </trkpt>
      <trkpt lat="49.40095" lon="1.17424">
        <ele>148</ele>
        <time>2017-02-28T13:43:21Z</time>
      </trkpt>
      <trkpt lat="49.40092" lon="1.17429">
        <ele>148</ele>
        <time>2017-02-28T13:43:21Z</time>
      </trkpt>
      <trkpt lat="49.40089" lon="1.17434">
        <ele>148</ele>
        <time>2017-02-28T13:43:21Z</time>
      </trkpt>
      <trkpt lat="49.40085" lon="1.17438">
        <ele>148</ele>
        <time>2017-02-28T13:43:37Z</time>
      </trkpt>
      <trkpt lat="49.40082" lon="1.17443">
        <ele>148</ele>
        <time>2017-02-28T13:43:37Z</time>
      </trkpt>
      <trkpt lat="49.40078" lon="1.17447">
        <ele>148</ele>
        <time>2017-02-28T13:43:37Z</time>
      </trkpt>
      <trkpt lat="49.40074" lon="1.1745">
        <ele>148</ele>
        <time>2017-02-28T13:43:37Z</time>
      </trkpt>
      <trkpt lat="49.40071" lon="1.17453">
        <ele>148</ele>
        <time>2017-02-28T13:43:53Z</time>
      </trkpt>
      <trkpt lat="49.40072" lon="1.17468">
        <ele>150</ele>
        <time>2017-02-28T13:43:53Z</time>
      </trkpt>
      <trkpt lat="49.40072" lon="1.17477">
        <ele>150</ele>
        <time>2017-02-28T13:43:53Z</time>
      </trkpt>
      <trkpt lat="49.40072" lon="1.17484">
        <ele>150</ele>
        <time>2017-02-28T13:43:53Z</time>
      </trkpt>
      <trkpt lat="49.40069" lon="1.17489">
        <ele>150</ele>
        <time>2017-02-28T13:44:09Z</time>
      </trkpt>
      <trkpt lat="49.40065" lon="1.17494">
        <ele>150</ele>
        <time>2017-02-28T13:44:09Z</time>
      </trkpt>
      <trkpt lat="49.40063" lon="1.17499">
        <ele>150</ele>
        <time>2017-02-28T13:44:09Z</time>
      </trkpt>
      <trkpt lat="49.40059" lon="1.17504">
        <ele>150</ele>
        <time>2017-02-28T13:44:09Z</time>
      </trkpt>
      <trkpt lat="49.40056" lon="1.17508">
        <ele>150</ele>
        <time>2017-02-28T13:44:25Z</time>
      </trkpt>
      <trkpt lat="49.40052" lon="1.17512">
        <ele>150</ele>
        <time>2017-02-28T13:44:25Z</time>
      </trkpt>
      <trkpt lat="49.40048" lon="1.17517">
        <ele>150</ele>
        <time>2017-02-28T13:44:25Z</time>
      </trkpt>
      <trkpt lat="49.40045" lon="1.17521">
        <ele>150</ele>
        <time>2017-02-28T13:44:25Z</time>
      </trkpt>
      <trkpt lat="49.40041" lon="1.17525">
        <ele>147</ele>
        <time>2017-02-28T13:44:41Z</time>
      </trkpt>
      <trkpt lat="49.40037" lon="1.17531">
        <ele>147</ele>
        <time>2017-02-28T13:44:41Z</time>
      </trkpt>
      <trkpt lat="49.40036" lon="1.17544">
        <ele>148</ele>
        <time>2017-02-28T13:44:41Z</time>
      </trkpt>
      <trkpt lat="49.40035" lon="1.17552">
        <ele>148</ele>
        <time>2017-02-28T13:44:41Z</time>
      </trkpt>
      <trkpt lat="49.40033" lon="1.17558">
        <ele>148</ele>
        <time>2017-02-28T13:44:57Z</time>
      </trkpt>
      <trkpt lat="49.4003" lon="1.17563">
        <ele>148</ele>
        <time>2017-02-28T13:44:57Z</time>
      </trkpt>
      <trkpt lat="49.40027" lon="1.17569">
        <ele>148</ele>
        <time>2017-02-28T13:44:57Z</time>
      </trkpt>
      <trkpt lat="49.40024" lon="1.17574">
        <ele>148</ele>
        <time>2017-02-28T13:44:57Z</time>
      </trkpt>
      <trkpt lat="49.40021" lon="1.17581">
        <ele>148</ele>
        <time>2017-02-28T13:45:13Z</time>
      </trkpt>
      <trkpt lat="49.40018" lon="1.17586">
        <ele>148</ele>
        <time>2017-02-28T13:45:13Z</time>
      </trkpt>
      <trkpt lat="49.40014" lon="1.17591">
        <ele>148</ele>
        <time>2017-02-28T13:45:13Z</time>
      </trkpt>
      <trkpt lat="49.4001" lon="1.17595">
        <ele>148</ele>
        <time>2017-02-28T13:45:13Z</time>
      </trkpt>
      <trkpt lat="49.40007" lon="1.17599">
        <ele>148</ele>
        <time>2017-02-28T13:45:29Z</time>
      </trkpt>
      <trkpt lat="49.40003" lon="1.17604">
        <ele>148</ele>
        <time>2017-02-28T13:45:29Z</time>
      </trkpt>
      <trkpt lat="49.40002" lon="1.17615">
        <ele>148</ele>
        <time>2017-02-28T13:45:29Z</time>
      </trkpt>
      <trkpt lat="49.40003" lon="1.17641">
        <ele>149</ele>
        <time>2017-02-28T13:45:29Z</time>
      </trkpt>
      <trkpt lat="49.40001" lon="1.17653">
        <ele>149</ele>
        <time>2017-02-28T13:45:45Z</time>
      </trkpt>
      <trkpt lat="49.39998" lon="1.17661">
        <ele>149</ele>
        <time>2017-02-28T13:45:45Z</time>
      </trkpt>
      <trkpt lat="49.39995" lon="1.1767">
        <ele>149</ele>
        <time>2017-02-28T13:45:45Z</time>
      </trkpt>
      <trkpt lat="49.39992" lon="1.17676">
        <ele>149</ele>
        <time>2017-02-28T13:45:45Z</time>
      </trkpt>
      <trkpt lat="49.3999" lon="1.1768">
        <ele>149</ele>
        <time>2017-02-28T13:46:01Z</time>
      </trkpt>
      <trkpt lat="49.39986" lon="1.17688">
        <ele>149</ele>
        <time>2017-02-28T13:46:01Z</time>
      </trkpt>
      <trkpt lat="49.39981" lon="1.17696">
        <ele>149</ele>
        <time>2017-02-28T13:46:01Z</time>
      </trkpt>
      <trkpt lat="49.39978" lon="1.17702">
        <ele>149</ele>
        <time>2017-02-28T13:46:01Z</time>
      </trkpt>
      <trkpt lat="49.39976" lon="1.17708">
        <ele>148</ele>
        <time>2017-02-28T13:46:17Z</time>
      </trkpt>
      <trkpt lat="49.39974" lon="1.17713">
        <ele>148</ele>
        <time>2017-02-28T13:46:17Z</time>
      </trkpt>
      <trkpt lat="49.39972" lon="1.17719">
        <ele>148</ele>
        <time>2017-02-28T13:46:17Z</time>
      </trkpt>
      <trkpt lat="49.39968" lon="1.17728">
        <ele>148</ele>
        <time>2017-02-28T13:46:17Z</time>
      </trkpt>
      <trkpt lat="49.39965" lon="1.17734">
        <ele>148</ele>
        <time>2017-02-28T13:46:33Z</time>
      </trkpt>
      <trkpt lat="49.39962" lon="1.17739">
        <ele>148</ele>
        <time>2017-02-28T13:46:33Z</time>
      </trkpt>
      <trkpt lat="49.3996" lon="1.17744">
        <ele>148</ele>
        <time>2017-02-28T13:46:33Z</time>
      </trkpt>
      <trkpt lat="49.39957" lon="1.17749">
        <ele>149</ele>
        <time>2017-02-28T13:46:33Z</time>
      </trkpt>
      <trkpt lat="49.39964" lon="1.17746">
        <ele>148</ele>
        <time>2017-02-28T13:47:09Z</time>
      </trkpt>
      <trkpt lat="49.39965" lon="1.17754">
        <ele>148</ele>
        <time>2017-02-28T13:47:09Z</time>
      </trkpt>
      <trkpt lat="49.39964" lon="1.17762">
        <ele>148</ele>
        <time>2017-02-28T13:47:09Z</time>
      </trkpt>
      <trkpt lat="49.39964" lon="1.17769">
        <ele>148</ele>
        <time>2017-02-28T13:47:09Z</time>
      </trkpt>
      <trkpt lat="49.39962" lon="1.17776">
        <ele>148</ele>
        <time>2017-02-28T13:47:09Z</time>
      </trkpt>
      <trkpt lat="49.3996" lon="1.17783">
        <ele>148</ele>
        <time>2017-02-28T13:47:25Z</time>
      </trkpt>
      <trkpt lat="49.39958" lon="1.17789">
        <ele>149</ele>
        <time>2017-02-28T13:47:25Z</time>
      </trkpt>
      <trkpt lat="49.39957" lon="1.17796">
        <ele>150</ele>
        <time>2017-02-28T13:47:25Z</time>
      </trkpt>
      <trkpt lat="49.39956" lon="1.17803">
        <ele>150</ele>
        <time>2017-02-28T13:47:25Z</time>
      </trkpt>
      <trkpt lat="49.39954" lon="1.1781">
        <ele>150</ele>
        <time>2017-02-28T13:47:41Z</time>
      </trkpt>
      <trkpt lat="49.39953" lon="1.17817">
        <ele>150</ele>
        <time>2017-02-28T13:47:41Z</time>
      </trkpt>
      <trkpt lat="49.39958" lon="1.17826">
        <ele>150</ele>
        <time>2017-02-28T13:47:41Z</time>
      </trkpt>
      <trkpt lat="49.39963" lon="1.17831">
        <ele>149</ele>
        <time>2017-02-28T13:47:41Z</time>
      </trkpt>
      <trkpt lat="49.39965" lon="1.17831">
        <ele>149</ele>
        <time>2017-02-28T13:47:57Z</time>
      </trkpt>
      <trkpt lat="49.3997" lon="1.17834">
        <ele>149</ele>
        <time>2017-02-28T13:47:57Z</time>
      </trkpt>
      <trkpt lat="49.39976" lon="1.1784">
        <ele>149</ele>
        <time>2017-02-28T13:47:57Z</time>
      </trkpt>
      <trkpt lat="49.3998" lon="1.17843">
        <ele>149</ele>
        <time>2017-02-28T13:47:57Z</time>
      </trkpt>
      <trkpt lat="49.39981" lon="1.17844">
        <ele>149</ele>
        <time>2017-02-28T13:48:13Z</time>
      </trkpt>
      <trkpt lat="49.39985" lon="1.17846">
        <ele>149</ele>
        <time>2017-02-28T13:48:13Z</time>
      </trkpt>
      <trkpt lat="49.39987" lon="1.17847">
        <ele>149</ele>
        <time>2017-02-28T13:48:13Z</time>
      </trkpt>
      <trkpt lat="49.39991" lon="1.17851">
        <ele>149</ele>
        <time>2017-02-28T13:48:13Z</time>
      </trkpt>
      <trkpt lat="49.39993" lon="1.17856">
        <ele>149</ele>
        <time>2017-02-28T13:48:33Z</time>
      </trkpt>
      <trkpt lat="49.39993" lon="1.17859">
        <ele>149</ele>
        <time>2017-02-28T13:48:33Z</time>
      </trkpt>
      <trkpt lat="49.39992" lon="1.17864">
        <ele>149</ele>
        <time>2017-02-28T13:48:33Z</time>
      </trkpt>
      <trkpt lat="49.39993" lon="1.17867">
        <ele>149</ele>
        <time>2017-02-28T13:48:33Z</time>
      </trkpt>
      <trkpt lat="49.39993" lon="1.17871">
        <ele>149</ele>
        <time>2017-02-28T13:48:33Z</time>
      </trkpt>
      <trkpt lat="49.39993" lon="1.17877">
        <ele>149</ele>
        <time>2017-02-28T13:48:49Z</time>
      </trkpt>
      <trkpt lat="49.39995" lon="1.17886">
        <ele>149</ele>
        <time>2017-02-28T13:48:49Z</time>
      </trkpt>
      <trkpt lat="49.39999" lon="1.17896">
        <ele>149</ele>
        <time>2017-02-28T13:48:49Z</time>
      </trkpt>
      <trkpt lat="49.40001" lon="1.17905">
        <ele>149</ele>
        <time>2017-02-28T13:48:49Z</time>
      </trkpt>
      <trkpt lat="49.40001" lon="1.17911">
        <ele>149</ele>
        <time>2017-02-28T13:49:06Z</time>
      </trkpt>
      <trkpt lat="49.40002" lon="1.17918">
        <ele>149</ele>
        <time>2017-02-28T13:49:06Z</time>
      </trkpt>
      <trkpt lat="49.4" lon="1.17922">
        <ele>149</ele>
        <time>2017-02-28T13:49:06Z</time>
      </trkpt>
      <trkpt lat="49.39997" lon="1.17926">
        <ele>149</ele>
        <time>2017-02-28T13:49:06Z</time>
      </trkpt>
      <trkpt lat="49.39994" lon="1.17928">
        <ele>149</ele>
        <time>2017-02-28T13:49:21Z</time>
      </trkpt>
      <trkpt lat="49.3999" lon="1.17931">
        <ele>149</ele>
        <time>2017-02-28T13:49:21Z</time>
      </trkpt>
      <trkpt lat="49.39988" lon="1.17938">
        <ele>149</ele>
        <time>2017-02-28T13:49:21Z</time>
      </trkpt>
      <trkpt lat="49.39986" lon="1.17944">
        <ele>149</ele>
        <time>2017-02-28T13:49:21Z</time>
      </trkpt>
      <trkpt lat="49.39983" lon="1.17948">
        <ele>149</ele>
        <time>2017-02-28T13:49:38Z</time>
      </trkpt>
      <trkpt lat="49.39979" lon="1.17951">
        <ele>149</ele>
        <time>2017-02-28T13:49:38Z</time>
      </trkpt>
      <trkpt lat="49.39975" lon="1.17955">
        <ele>149</ele>
        <time>2017-02-28T13:49:38Z</time>
      </trkpt>
      <trkpt lat="49.39971" lon="1.1796">
        <ele>151</ele>
        <time>2017-02-28T13:49:38Z</time>
      </trkpt>
      <trkpt lat="49.39968" lon="1.17966">
        <ele>151</ele>
        <time>2017-02-28T13:49:53Z</time>
      </trkpt>
      <trkpt lat="49.39965" lon="1.17972">
        <ele>151</ele>
        <time>2017-02-28T13:49:53Z</time>
      </trkpt>
      <trkpt lat="49.39962" lon="1.17977">
        <ele>151</ele>
        <time>2017-02-28T13:49:53Z</time>
      </trkpt>
      <trkpt lat="49.39959" lon="1.1798">
        <ele>151</ele>
        <time>2017-02-28T13:49:53Z</time>
      </trkpt>
      <trkpt lat="49.39955" lon="1.17984">
        <ele>152</ele>
        <time>2017-02-28T13:50:09Z</time>
      </trkpt>
      <trkpt lat="49.39951" lon="1.17986">
        <ele>152</ele>
        <time>2017-02-28T13:50:09Z</time>
      </trkpt>
      <trkpt lat="49.39949" lon="1.17992">
        <ele>152</ele>
        <time>2017-02-28T13:50:09Z</time>
      </trkpt>
      <trkpt lat="49.39945" lon="1.17995">
        <ele>152</ele>
        <time>2017-02-28T13:50:09Z</time>
      </trkpt>
      <trkpt lat="49.39942" lon="1.18">
        <ele>152</ele>
        <time>2017-02-28T13:50:25Z</time>
      </trkpt>
      <trkpt lat="49.39941" lon="1.18014">
        <ele>152</ele>
        <time>2017-02-28T13:50:25Z</time>
      </trkpt>
      <trkpt lat="49.3994" lon="1.1803">
        <ele>152</ele>
        <time>2017-02-28T13:50:25Z</time>
      </trkpt>
      <trkpt lat="49.39938" lon="1.18037">
        <ele>152</ele>
        <time>2017-02-28T13:50:25Z</time>
      </trkpt>
      <trkpt lat="49.39934" lon="1.18041">
        <ele>152</ele>
        <time>2017-02-28T13:50:41Z</time>
      </trkpt>
      <trkpt lat="49.3993" lon="1.18045">
        <ele>154</ele>
        <time>2017-02-28T13:50:41Z</time>
      </trkpt>
      <trkpt lat="49.39926" lon="1.18048">
        <ele>154</ele>
        <time>2017-02-28T13:50:41Z</time>
      </trkpt>
      <trkpt lat="49.39922" lon="1.18052">
        <ele>154</ele>
        <time>2017-02-28T13:50:41Z</time>
      </trkpt>
      <trkpt lat="49.39918" lon="1.18055">
        <ele>154</ele>
        <time>2017-02-28T13:50:57Z</time>
      </trkpt>
      <trkpt lat="49.39915" lon="1.18058">
        <ele>154</ele>
        <time>2017-02-28T13:50:57Z</time>
      </trkpt>
      <trkpt lat="49.39911" lon="1.18062">
        <ele>154</ele>
        <time>2017-02-28T13:50:57Z</time>
      </trkpt>
      <trkpt lat="49.39907" lon="1.18066">
        <ele>154</ele>
        <time>2017-02-28T13:50:57Z</time>
      </trkpt>
      <trkpt lat="49.39903" lon="1.1807">
        <ele>154</ele>
        <time>2017-02-28T13:51:13Z</time>
      </trkpt>
      <trkpt lat="49.39899" lon="1.18074">
        <ele>154</ele>
        <time>2017-02-28T13:51:13Z</time>
      </trkpt>
      <trkpt lat="49.39896" lon="1.18077">
        <ele>154</ele>
        <time>2017-02-28T13:51:13Z</time>
      </trkpt>
      <trkpt lat="49.39894" lon="1.18095">
        <ele>154</ele>
        <time>2017-02-28T13:51:13Z</time>
      </trkpt>
      <trkpt lat="49.39894" lon="1.18116">
        <ele>154</ele>
        <time>2017-02-28T13:51:29Z</time>
      </trkpt>
      <trkpt lat="49.39893" lon="1.18129">
        <ele>156</ele>
        <time>2017-02-28T13:51:29Z</time>
      </trkpt>
      <trkpt lat="49.39889" lon="1.18138">
        <ele>156</ele>
        <time>2017-02-28T13:51:29Z</time>
      </trkpt>
      <trkpt lat="49.39885" lon="1.18142">
        <ele>156</ele>
        <time>2017-02-28T13:51:29Z</time>
      </trkpt>
      <trkpt lat="49.39881" lon="1.18146">
        <ele>156</ele>
        <time>2017-02-28T13:51:45Z</time>
      </trkpt>
      <trkpt lat="49.39877" lon="1.1815">
        <ele>156</ele>
        <time>2017-02-28T13:51:45Z</time>
      </trkpt>
      <trkpt lat="49.39875" lon="1.18157">
        <ele>156</ele>
        <time>2017-02-28T13:51:45Z</time>
      </trkpt>
      <trkpt lat="49.39874" lon="1.18163">
        <ele>154</ele>
        <time>2017-02-28T13:51:45Z</time>
      </trkpt>
      <trkpt lat="49.3987" lon="1.18168">
        <ele>154</ele>
        <time>2017-02-28T13:52:01Z</time>
      </trkpt>
      <trkpt lat="49.39867" lon="1.18173">
        <ele>154</ele>
        <time>2017-02-28T13:52:01Z</time>
      </trkpt>
      <trkpt lat="49.39864" lon="1.18177">
        <ele>154</ele>
        <time>2017-02-28T13:52:01Z</time>
      </trkpt>
      <trkpt lat="49.39861" lon="1.1818">
        <ele>154</ele>
        <time>2017-02-28T13:52:01Z</time>
      </trkpt>
      <trkpt lat="49.39857" lon="1.18184">
        <ele>154</ele>
        <time>2017-02-28T13:52:17Z</time>
      </trkpt>
      <trkpt lat="49.39854" lon="1.18197">
        <ele>154</ele>
        <time>2017-02-28T13:52:17Z</time>
      </trkpt>
      <trkpt lat="49.39853" lon="1.18202">
        <ele>154</ele>
        <time>2017-02-28T13:52:17Z</time>
      </trkpt>
      <trkpt lat="49.3985" lon="1.18207">
        <ele>154</ele>
        <time>2017-02-28T13:52:17Z</time>
      </trkpt>
      <trkpt lat="49.39847" lon="1.18212">
        <ele>155</ele>
        <time>2017-02-28T13:52:33Z</time>
      </trkpt>
      <trkpt lat="49.39843" lon="1.18217">
        <ele>155</ele>
        <time>2017-02-28T13:52:33Z</time>
      </trkpt>
      <trkpt lat="49.3984" lon="1.18221">
        <ele>155</ele>
        <time>2017-02-28T13:52:33Z</time>
      </trkpt>
      <trkpt lat="49.39836" lon="1.18226">
        <ele>155</ele>
        <time>2017-02-28T13:52:33Z</time>
      </trkpt>
      <trkpt lat="49.39833" lon="1.1823">
        <ele>155</ele>
        <time>2017-02-28T13:52:49Z</time>
      </trkpt>
      <trkpt lat="49.39829" lon="1.18233">
        <ele>155</ele>
        <time>2017-02-28T13:52:49Z</time>
      </trkpt>
      <trkpt lat="49.39825" lon="1.18238">
        <ele>155</ele>
        <time>2017-02-28T13:52:49Z</time>
      </trkpt>
      <trkpt lat="49.39822" lon="1.18241">
        <ele>155</ele>
        <time>2017-02-28T13:52:49Z</time>
      </trkpt>
      <trkpt lat="49.3982" lon="1.18266">
        <ele>155</ele>
        <time>2017-02-28T13:53:05Z</time>
      </trkpt>
      <trkpt lat="49.39818" lon="1.1828">
        <ele>155</ele>
        <time>2017-02-28T13:53:05Z</time>
      </trkpt>
      <trkpt lat="49.39815" lon="1.18288">
        <ele>155</ele>
        <time>2017-02-28T13:53:05Z</time>
      </trkpt>
      <trkpt lat="49.39812" lon="1.18292">
        <ele>153</ele>
        <time>2017-02-28T13:53:05Z</time>
      </trkpt>
      <trkpt lat="49.39808" lon="1.18297">
        <ele>153</ele>
        <time>2017-02-28T13:53:21Z</time>
      </trkpt>
      <trkpt lat="49.39805" lon="1.18302">
        <ele>153</ele>
        <time>2017-02-28T13:53:21Z</time>
      </trkpt>
      <trkpt lat="49.39805" lon="1.18308">
        <ele>153</ele>
        <time>2017-02-28T13:53:21Z</time>
      </trkpt>
      <trkpt lat="49.39801" lon="1.18316">
        <ele>153</ele>
        <time>2017-02-28T13:53:21Z</time>
      </trkpt>
      <trkpt lat="49.39797" lon="1.18319">
        <ele>153</ele>
        <time>2017-02-28T13:53:37Z</time>
      </trkpt>
      <trkpt lat="49.39794" lon="1.18326">
        <ele>153</ele>
        <time>2017-02-28T13:53:37Z</time>
      </trkpt>
      <trkpt lat="49.3979" lon="1.18338">
        <ele>153</ele>
        <time>2017-02-28T13:53:37Z</time>
      </trkpt>
      <trkpt lat="49.39787" lon="1.18345">
        <ele>153</ele>
        <time>2017-02-28T13:53:37Z</time>
      </trkpt>
      <trkpt lat="49.39783" lon="1.1835">
        <ele>153</ele>
        <time>2017-02-28T13:53:53Z</time>
      </trkpt>
      <trkpt lat="49.39779" lon="1.18354">
        <ele>153</ele>
        <time>2017-02-28T13:53:53Z</time>
      </trkpt>
      <trkpt lat="49.39775" lon="1.18358">
        <ele>153</ele>
        <time>2017-02-28T13:53:53Z</time>
      </trkpt>
      <trkpt lat="49.39772" lon="1.18363">
        <ele>153</ele>
        <time>2017-02-28T13:53:53Z</time>
      </trkpt>
      <trkpt lat="49.39769" lon="1.18367">
        <ele>153</ele>
        <time>2017-02-28T13:54:09Z</time>
      </trkpt>
      <trkpt lat="49.39765" lon="1.18372">
        <ele>153</ele>
        <time>2017-02-28T13:54:09Z</time>
      </trkpt>
      <trkpt lat="49.39761" lon="1.18378">
        <ele>153</ele>
        <time>2017-02-28T13:54:09Z</time>
      </trkpt>
      <trkpt lat="49.39758" lon="1.18391">
        <ele>153</ele>
        <time>2017-02-28T13:54:09Z</time>
      </trkpt>
      <trkpt lat="49.39758" lon="1.18403">
        <ele>153</ele>
        <time>2017-02-28T13:54:25Z</time>
      </trkpt>
      <trkpt lat="49.39755" lon="1.18409">
        <ele>153</ele>
        <time>2017-02-28T13:54:25Z</time>
      </trkpt>
      <trkpt lat="49.39753" lon="1.18414">
        <ele>153</ele>
        <time>2017-02-28T13:54:25Z</time>
      </trkpt>
      <trkpt lat="49.39752" lon="1.18419">
        <ele>153</ele>
        <time>2017-02-28T13:54:25Z</time>
      </trkpt>
      <trkpt lat="49.39748" lon="1.18423">
        <ele>153</ele>
        <time>2017-02-28T13:54:41Z</time>
      </trkpt>
      <trkpt lat="49.39748" lon="1.18434">
        <ele>153</ele>
        <time>2017-02-28T13:54:41Z</time>
      </trkpt>
      <trkpt lat="49.39745" lon="1.18441">
        <ele>153</ele>
        <time>2017-02-28T13:54:41Z</time>
      </trkpt>
      <trkpt lat="49.39741" lon="1.18445">
        <ele>153</ele>
        <time>2017-02-28T13:54:41Z</time>
      </trkpt>
      <trkpt lat="49.39737" lon="1.18449">
        <ele>153</ele>
        <time>2017-02-28T13:54:57Z</time>
      </trkpt>
      <trkpt lat="49.39733" lon="1.18453">
        <ele>153</ele>
        <time>2017-02-28T13:54:57Z</time>
      </trkpt>
      <trkpt lat="49.3973" lon="1.18457">
        <ele>153</ele>
        <time>2017-02-28T13:54:57Z</time>
      </trkpt>
      <trkpt lat="49.39726" lon="1.18462">
        <ele>153</ele>
        <time>2017-02-28T13:54:57Z</time>
      </trkpt>
      <trkpt lat="49.39722" lon="1.18466">
        <ele>153</ele>
        <time>2017-02-28T13:55:13Z</time>
      </trkpt>
      <trkpt lat="49.39718" lon="1.1847">
        <ele>153</ele>
        <time>2017-02-28T13:55:13Z</time>
      </trkpt>
      <trkpt lat="49.39719" lon="1.18485">
        <ele>153</ele>
        <time>2017-02-28T13:55:13Z</time>
      </trkpt>
      <trkpt lat="49.39718" lon="1.18493">
        <ele>153</ele>
        <time>2017-02-28T13:55:13Z</time>
      </trkpt>
      <trkpt lat="49.39716" lon="1.18501">
        <ele>153</ele>
        <time>2017-02-28T13:55:29Z</time>
      </trkpt>
      <trkpt lat="49.39713" lon="1.18506">
        <ele>153</ele>
        <time>2017-02-28T13:55:29Z</time>
      </trkpt>
      <trkpt lat="49.39708" lon="1.18513">
        <ele>154</ele>
        <time>2017-02-28T13:55:29Z</time>
      </trkpt>
      <trkpt lat="49.39704" lon="1.18517">
        <ele>154</ele>
        <time>2017-02-28T13:55:29Z</time>
      </trkpt>
      <trkpt lat="49.397" lon="1.18522">
        <ele>154</ele>
        <time>2017-02-28T13:55:45Z</time>
      </trkpt>
      <trkpt lat="49.39696" lon="1.18529">
        <ele>154</ele>
        <time>2017-02-28T13:55:45Z</time>
      </trkpt>
      <trkpt lat="49.39691" lon="1.18536">
        <ele>154</ele>
        <time>2017-02-28T13:55:45Z</time>
      </trkpt>
      <trkpt lat="49.39687" lon="1.18545">
        <ele>155</ele>
        <time>2017-02-28T13:55:45Z</time>
      </trkpt>
      <trkpt lat="49.39684" lon="1.18555">
        <ele>155</ele>
        <time>2017-02-28T13:56:01Z</time>
      </trkpt>
      <trkpt lat="49.39681" lon="1.18561">
        <ele>155</ele>
        <time>2017-02-28T13:56:01Z</time>
      </trkpt>
      <trkpt lat="49.39679" lon="1.18568">
        <ele>155</ele>
        <time>2017-02-28T13:56:01Z</time>
      </trkpt>
      <trkpt lat="49.39676" lon="1.18573">
        <ele>155</ele>
        <time>2017-02-28T13:56:01Z</time>
      </trkpt>
      <trkpt lat="49.39673" lon="1.18578">
        <ele>155</ele>
        <time>2017-02-28T13:56:17Z</time>
      </trkpt>
      <trkpt lat="49.39669" lon="1.18584">
        <ele>155</ele>
        <time>2017-02-28T13:56:17Z</time>
      </trkpt>
      <trkpt lat="49.39665" lon="1.1859">
        <ele>155</ele>
        <time>2017-02-28T13:56:17Z</time>
      </trkpt>
      <trkpt lat="49.3966" lon="1.18598">
        <ele>155</ele>
        <time>2017-02-28T13:56:17Z</time>
      </trkpt>
      <trkpt lat="49.39657" lon="1.18604">
        <ele>155</ele>
        <time>2017-02-28T13:56:33Z</time>
      </trkpt>
      <trkpt lat="49.39655" lon="1.18609">
        <ele>155</ele>
        <time>2017-02-28T13:56:33Z</time>
      </trkpt>
      <trkpt lat="49.39651" lon="1.18618">
        <ele>155</ele>
        <time>2017-02-28T13:56:33Z</time>
      </trkpt>
      <trkpt lat="49.39648" lon="1.18625">
        <ele>155</ele>
        <time>2017-02-28T13:56:33Z</time>
      </trkpt>
      <trkpt lat="49.39646" lon="1.18632">
        <ele>156</ele>
        <time>2017-02-28T13:56:49Z</time>
      </trkpt>
      <trkpt lat="49.39644" lon="1.18636">
        <ele>156</ele>
        <time>2017-02-28T13:56:49Z</time>
      </trkpt>
      <trkpt lat="49.3964" lon="1.18643">
        <ele>156</ele>
        <time>2017-02-28T13:56:49Z</time>
      </trkpt>
      <trkpt lat="49.39637" lon="1.18649">
        <ele>156</ele>
        <time>2017-02-28T13:56:49Z</time>
      </trkpt>
      <trkpt lat="49.39634" lon="1.18655">
        <ele>156</ele>
        <time>2017-02-28T13:57:05Z</time>
      </trkpt>
      <trkpt lat="49.39631" lon="1.1866">
        <ele>156</ele>
        <time>2017-02-28T13:57:05Z</time>
      </trkpt>
      <trkpt lat="49.39629" lon="1.18664">
        <ele>156</ele>
        <time>2017-02-28T13:57:05Z</time>
      </trkpt>
      <trkpt lat="49.39625" lon="1.18668">
        <ele>156</ele>
        <time>2017-02-28T13:57:05Z</time>
      </trkpt>
      <trkpt lat="49.39624" lon="1.18672">
        <ele>154</ele>
        <time>2017-02-28T13:57:25Z</time>
      </trkpt>
      <trkpt lat="49.39621" lon="1.1869">
        <ele>154</ele>
        <time>2017-02-28T13:57:25Z</time>
      </trkpt>
      <trkpt lat="49.39622" lon="1.18692">
        <ele>154</ele>
        <time>2017-02-28T13:57:25Z</time>
      </trkpt>
      <trkpt lat="49.39622" lon="1.18695">
        <ele>154</ele>
        <time>2017-02-28T13:57:25Z</time>
      </trkpt>
      <trkpt lat="49.39616" lon="1.18703">
        <ele>154</ele>
        <time>2017-02-28T13:57:41Z</time>
      </trkpt>
      <trkpt lat="49.39612" lon="1.18714">
        <ele>153</ele>
        <time>2017-02-28T13:57:41Z</time>
      </trkpt>
      <trkpt lat="49.39607" lon="1.18721">
        <ele>153</ele>
        <time>2017-02-28T13:57:41Z</time>
      </trkpt>
      <trkpt lat="49.39603" lon="1.18729">
        <ele>153</ele>
        <time>2017-02-28T13:57:41Z</time>
      </trkpt>
      <trkpt lat="49.39599" lon="1.18736">
        <ele>153</ele>
        <time>2017-02-28T13:57:57Z</time>
      </trkpt>
      <trkpt lat="49.39596" lon="1.18743">
        <ele>153</ele>
        <time>2017-02-28T13:57:57Z</time>
      </trkpt>
      <trkpt lat="49.39592" lon="1.18749">
        <ele>153</ele>
        <time>2017-02-28T13:57:57Z</time>
      </trkpt>
      <trkpt lat="49.39588" lon="1.18756">
        <ele>153</ele>
        <time>2017-02-28T13:57:57Z</time>
      </trkpt>
      <trkpt lat="49.39585" lon="1.18764">
        <ele>153</ele>
        <time>2017-02-28T13:58:13Z</time>
      </trkpt>
      <trkpt lat="49.39581" lon="1.18771">
        <ele>153</ele>
        <time>2017-02-28T13:58:13Z</time>
      </trkpt>
      <trkpt lat="49.39577" lon="1.18778">
        <ele>153</ele>
        <time>2017-02-28T13:58:13Z</time>
      </trkpt>
      <trkpt lat="49.39574" lon="1.18785">
        <ele>153</ele>
        <time>2017-02-28T13:58:13Z</time>
      </trkpt>
      <trkpt lat="49.39571" lon="1.18792">
        <ele>154</ele>
        <time>2017-02-28T13:58:29Z</time>
      </trkpt>
      <trkpt lat="49.39568" lon="1.18797">
        <ele>154</ele>
        <time>2017-02-28T13:58:29Z</time>
      </trkpt>
      <trkpt lat="49.39566" lon="1.18803">
        <ele>154</ele>
        <time>2017-02-28T13:58:29Z</time>
      </trkpt>
      <trkpt lat="49.39563" lon="1.1881">
        <ele>154</ele>
        <time>2017-02-28T13:58:29Z</time>
      </trkpt>
      <trkpt lat="49.3956" lon="1.18817">
        <ele>154</ele>
        <time>2017-02-28T13:58:45Z</time>
      </trkpt>
      <trkpt lat="49.39556" lon="1.18824">
        <ele>154</ele>
        <time>2017-02-28T13:58:45Z</time>
      </trkpt>
      <trkpt lat="49.39552" lon="1.1883">
        <ele>154</ele>
        <time>2017-02-28T13:58:45Z</time>
      </trkpt>
      <trkpt lat="49.39549" lon="1.18836">
        <ele>154</ele>
        <time>2017-02-28T13:58:45Z</time>
      </trkpt>
      <trkpt lat="49.39547" lon="1.18841">
        <ele>154</ele>
        <time>2017-02-28T13:59:01Z</time>
      </trkpt>
      <trkpt lat="49.39544" lon="1.18848">
        <ele>154</ele>
        <time>2017-02-28T13:59:01Z</time>
      </trkpt>
      <trkpt lat="49.39541" lon="1.18854">
        <ele>152</ele>
        <time>2017-02-28T13:59:01Z</time>
      </trkpt>
      <trkpt lat="49.39539" lon="1.18859">
        <ele>152</ele>
        <time>2017-02-28T13:59:01Z</time>
      </trkpt>
      <trkpt lat="49.39535" lon="1.18863">
        <ele>152</ele>
        <time>2017-02-28T13:59:17Z</time>
      </trkpt>
      <trkpt lat="49.3953" lon="1.18868">
        <ele>152</ele>
        <time>2017-02-28T13:59:17Z</time>
      </trkpt>
      <trkpt lat="49.39528" lon="1.18875">
        <ele>152</ele>
        <time>2017-02-28T13:59:17Z</time>
      </trkpt>
      <trkpt lat="49.39525" lon="1.18882">
        <ele>152</ele>
        <time>2017-02-28T13:59:17Z</time>
      </trkpt>
      <trkpt lat="49.39521" lon="1.18889">
        <ele>152</ele>
        <time>2017-02-28T13:59:33Z</time>
      </trkpt>
      <trkpt lat="49.39518" lon="1.18895">
        <ele>152</ele>
        <time>2017-02-28T13:59:33Z</time>
      </trkpt>
      <trkpt lat="49.39515" lon="1.18902">
        <ele>152</ele>
        <time>2017-02-28T13:59:33Z</time>
      </trkpt>
      <trkpt lat="49.39512" lon="1.18909">
        <ele>152</ele>
        <time>2017-02-28T13:59:33Z</time>
      </trkpt>
      <trkpt lat="49.39508" lon="1.18914">
        <ele>152</ele>
        <time>2017-02-28T13:59:49Z</time>
      </trkpt>
      <trkpt lat="49.39507" lon="1.18921">
        <ele>152</ele>
        <time>2017-02-28T13:59:49Z</time>
      </trkpt>
      <trkpt lat="49.39504" lon="1.18927">
        <ele>152</ele>
        <time>2017-02-28T13:59:49Z</time>
      </trkpt>
      <trkpt lat="49.39503" lon="1.18931">
        <ele>152</ele>
        <time>2017-02-28T13:59:49Z</time>
      </trkpt>
      <trkpt lat="49.39501" lon="1.18938">
        <ele>152</ele>
        <time>2017-02-28T14:00:05Z</time>
      </trkpt>
      <trkpt lat="49.39498" lon="1.18944">
        <ele>152</ele>
        <time>2017-02-28T14:00:05Z</time>
      </trkpt>
      <trkpt lat="49.39495" lon="1.18952">
        <ele>152</ele>
        <time>2017-02-28T14:00:05Z</time>
      </trkpt>
      <trkpt lat="49.39491" lon="1.18958">
        <ele>152</ele>
        <time>2017-02-28T14:00:05Z</time>
      </trkpt>
      <trkpt lat="49.39487" lon="1.18962">
        <ele>153</ele>
        <time>2017-02-28T14:00:21Z</time>
      </trkpt>
      <trkpt lat="49.39484" lon="1.18967">
        <ele>153</ele>
        <time>2017-02-28T14:00:21Z</time>
      </trkpt>
      <trkpt lat="49.3948" lon="1.18976">
        <ele>153</ele>
        <time>2017-02-28T14:00:21Z</time>
      </trkpt>
      <trkpt lat="49.39478" lon="1.18982">
        <ele>153</ele>
        <time>2017-02-28T14:00:21Z</time>
      </trkpt>
      <trkpt lat="49.39475" lon="1.18988">
        <ele>153</ele>
        <time>2017-02-28T14:00:37Z</time>
      </trkpt>
      <trkpt lat="49.39472" lon="1.18992">
        <ele>153</ele>
        <time>2017-02-28T14:00:37Z</time>
      </trkpt>
      <trkpt lat="49.39468" lon="1.19">
        <ele>153</ele>
        <time>2017-02-28T14:00:37Z</time>
      </trkpt>
      <trkpt lat="49.39466" lon="1.19005">
        <ele>153</ele>
        <time>2017-02-28T14:00:37Z</time>
      </trkpt>
      <trkpt lat="49.39461" lon="1.19013">
        <ele>153</ele>
        <time>2017-02-28T14:00:53Z</time>
      </trkpt>
      <trkpt lat="49.39458" lon="1.1902">
        <ele>151</ele>
        <time>2017-02-28T14:00:53Z</time>
      </trkpt>
      <trkpt lat="49.39456" lon="1.19025">
        <ele>151</ele>
        <time>2017-02-28T14:00:53Z</time>
      </trkpt>
      <trkpt lat="49.39453" lon="1.1903">
        <ele>151</ele>
        <time>2017-02-28T14:00:53Z</time>
      </trkpt>
      <trkpt lat="49.39451" lon="1.19035">
        <ele>151</ele>
        <time>2017-02-28T14:01:09Z</time>
      </trkpt>
      <trkpt lat="49.39449" lon="1.19042">
        <ele>153</ele>
        <time>2017-02-28T14:01:09Z</time>
      </trkpt>
      <trkpt lat="49.39446" lon="1.19048">
        <ele>153</ele>
        <time>2017-02-28T14:01:09Z</time>
      </trkpt>
      <trkpt lat="49.39441" lon="1.19055">
        <ele>153</ele>
        <time>2017-02-28T14:01:09Z</time>
      </trkpt>
      <trkpt lat="49.39438" lon="1.19062">
        <ele>153</ele>
        <time>2017-02-28T14:01:25Z</time>
      </trkpt>
      <trkpt lat="49.39436" lon="1.19068">
        <ele>153</ele>
        <time>2017-02-28T14:01:25Z</time>
      </trkpt>
      <trkpt lat="49.39434" lon="1.19073">
        <ele>153</ele>
        <time>2017-02-28T14:01:25Z</time>
      </trkpt>
      <trkpt lat="49.39429" lon="1.19081">
        <ele>153</ele>
        <time>2017-02-28T14:01:25Z</time>
      </trkpt>
      <trkpt lat="49.39427" lon="1.19084">
        <ele>153</ele>
        <time>2017-02-28T14:01:41Z</time>
      </trkpt>
      <trkpt lat="49.39423" lon="1.19091">
        <ele>153</ele>
        <time>2017-02-28T14:01:41Z</time>
      </trkpt>
      <trkpt lat="49.39421" lon="1.19094">
        <ele>153</ele>
        <time>2017-02-28T14:01:41Z</time>
      </trkpt>
      <trkpt lat="49.39414" lon="1.19102">
        <ele>153</ele>
        <time>2017-02-28T14:01:41Z</time>
      </trkpt>
      <trkpt lat="49.3941" lon="1.19109">
        <ele>153</ele>
        <time>2017-02-28T14:01:57Z</time>
      </trkpt>
      <trkpt lat="49.39407" lon="1.19115">
        <ele>153</ele>
        <time>2017-02-28T14:01:57Z</time>
      </trkpt>
      <trkpt lat="49.39404" lon="1.1912">
        <ele>153</ele>
        <time>2017-02-28T14:01:57Z</time>
      </trkpt>
      <trkpt lat="49.394" lon="1.19125">
        <ele>155</ele>
        <time>2017-02-28T14:01:57Z</time>
      </trkpt>
      <trkpt lat="49.39398" lon="1.19128">
        <ele>155</ele>
        <time>2017-02-28T14:02:13Z</time>
      </trkpt>
      <trkpt lat="49.39394" lon="1.19132">
        <ele>155</ele>
        <time>2017-02-28T14:02:13Z</time>
      </trkpt>
      <trkpt lat="49.39391" lon="1.19141">
        <ele>155</ele>
        <time>2017-02-28T14:02:13Z</time>
      </trkpt>
      <trkpt lat="49.39388" lon="1.19149">
        <ele>155</ele>
        <time>2017-02-28T14:02:13Z</time>
      </trkpt>
      <trkpt lat="49.39385" lon="1.19158">
        <ele>155</ele>
        <time>2017-02-28T14:02:29Z</time>
      </trkpt>
      <trkpt lat="49.39382" lon="1.19166">
        <ele>155</ele>
        <time>2017-02-28T14:02:29Z</time>
      </trkpt>
      <trkpt lat="49.39379" lon="1.19171">
        <ele>155</ele>
        <time>2017-02-28T14:02:29Z</time>
      </trkpt>
      <trkpt lat="49.39376" lon="1.19177">
        <ele>155</ele>
        <time>2017-02-28T14:02:29Z</time>
      </trkpt>
      <trkpt lat="49.39374" lon="1.1918">
        <ele>156</ele>
        <time>2017-02-28T14:02:45Z</time>
      </trkpt>
      <trkpt lat="49.39369" lon="1.19188">
        <ele>156</ele>
        <time>2017-02-28T14:02:45Z</time>
      </trkpt>
      <trkpt lat="49.39366" lon="1.19193">
        <ele>156</ele>
        <time>2017-02-28T14:02:45Z</time>
      </trkpt>
      <trkpt lat="49.39364" lon="1.19198">
        <ele>156</ele>
        <time>2017-02-28T14:02:45Z</time>
      </trkpt>
      <trkpt lat="49.39361" lon="1.19203">
        <ele>156</ele>
        <time>2017-02-28T14:03:01Z</time>
      </trkpt>
      <trkpt lat="49.39358" lon="1.19211">
        <ele>157</ele>
        <time>2017-02-28T14:03:01Z</time>
      </trkpt>
      <trkpt lat="49.39356" lon="1.19217">
        <ele>157</ele>
        <time>2017-02-28T14:03:01Z</time>
      </trkpt>
      <trkpt lat="49.3935" lon="1.19224">
        <ele>157</ele>
        <time>2017-02-28T14:03:01Z</time>
      </trkpt>
      <trkpt lat="49.39347" lon="1.19229">
        <ele>157</ele>
        <time>2017-02-28T14:03:17Z</time>
      </trkpt>
      <trkpt lat="49.39345" lon="1.19235">
        <ele>157</ele>
        <time>2017-02-28T14:03:17Z</time>
      </trkpt>
      <trkpt lat="49.39342" lon="1.19241">
        <ele>157</ele>
        <time>2017-02-28T14:03:17Z</time>
      </trkpt>
      <trkpt lat="49.39339" lon="1.19247">
        <ele>157</ele>
        <time>2017-02-28T14:03:17Z</time>
      </trkpt>
      <trkpt lat="49.39335" lon="1.19251">
        <ele>157</ele>
        <time>2017-02-28T14:03:33Z</time>
      </trkpt>
      <trkpt lat="49.39332" lon="1.19255">
        <ele>157</ele>
        <time>2017-02-28T14:03:33Z</time>
      </trkpt>
      <trkpt lat="49.3933" lon="1.1926">
        <ele>157</ele>
        <time>2017-02-28T14:03:33Z</time>
      </trkpt>
      <trkpt lat="49.39326" lon="1.19269">
        <ele>157</ele>
        <time>2017-02-28T14:03:33Z</time>
      </trkpt>
      <trkpt lat="49.39325" lon="1.19276">
        <ele>157</ele>
        <time>2017-02-28T14:03:50Z</time>
      </trkpt>
      <trkpt lat="49.39322" lon="1.19284">
        <ele>157</ele>
        <time>2017-02-28T14:03:50Z</time>
      </trkpt>
      <trkpt lat="49.39319" lon="1.19291">
        <ele>157</ele>
        <time>2017-02-28T14:03:50Z</time>
      </trkpt>
      <trkpt lat="49.39317" lon="1.193">
        <ele>157</ele>
        <time>2017-02-28T14:03:50Z</time>
      </trkpt>
      <trkpt lat="49.39314" lon="1.19305">
        <ele>157</ele>
        <time>2017-02-28T14:04:05Z</time>
      </trkpt>
      <trkpt lat="49.39311" lon="1.1931">
        <ele>157</ele>
        <time>2017-02-28T14:04:05Z</time>
      </trkpt>
      <trkpt lat="49.39308" lon="1.19314">
        <ele>157</ele>
        <time>2017-02-28T14:04:05Z</time>
      </trkpt>
      <trkpt lat="49.39307" lon="1.1932">
        <ele>157</ele>
        <time>2017-02-28T14:04:05Z</time>
      </trkpt>
      <trkpt lat="49.39305" lon="1.19326">
        <ele>157</ele>
        <time>2017-02-28T14:04:21Z</time>
      </trkpt>
      <trkpt lat="49.39302" lon="1.19332">
        <ele>157</ele>
        <time>2017-02-28T14:04:22Z</time>
      </trkpt>
      <trkpt lat="49.39299" lon="1.19338">
        <ele>157</ele>
        <time>2017-02-28T14:04:22Z</time>
      </trkpt>
      <trkpt lat="49.39297" lon="1.19342">
        <ele>157</ele>
        <time>2017-02-28T14:04:22Z</time>
      </trkpt>
      <trkpt lat="49.39292" lon="1.19349">
        <ele>157</ele>
        <time>2017-02-28T14:04:37Z</time>
      </trkpt>
      <trkpt lat="49.39289" lon="1.19354">
        <ele>157</ele>
        <time>2017-02-28T14:04:37Z</time>
      </trkpt>
      <trkpt lat="49.39286" lon="1.19361">
        <ele>157</ele>
        <time>2017-02-28T14:04:37Z</time>
      </trkpt>
      <trkpt lat="49.39282" lon="1.19368">
        <ele>157</ele>
        <time>2017-02-28T14:04:37Z</time>
      </trkpt>
      <trkpt lat="49.3928" lon="1.19371">
        <ele>157</ele>
        <time>2017-02-28T14:04:53Z</time>
      </trkpt>
      <trkpt lat="49.39277" lon="1.19377">
        <ele>157</ele>
        <time>2017-02-28T14:04:53Z</time>
      </trkpt>
      <trkpt lat="49.39275" lon="1.19381">
        <ele>157</ele>
        <time>2017-02-28T14:04:53Z</time>
      </trkpt>
      <trkpt lat="49.39269" lon="1.19376">
        <ele>157</ele>
        <time>2017-02-28T14:04:53Z</time>
      </trkpt>
      <trkpt lat="49.39265" lon="1.19387">
        <ele>157</ele>
        <time>2017-02-28T14:05:09Z</time>
      </trkpt>
      <trkpt lat="49.39264" lon="1.19396">
        <ele>157</ele>
        <time>2017-02-28T14:05:09Z</time>
      </trkpt>
      <trkpt lat="49.39261" lon="1.19405">
        <ele>157</ele>
        <time>2017-02-28T14:05:09Z</time>
      </trkpt>
      <trkpt lat="49.39258" lon="1.19413">
        <ele>157</ele>
        <time>2017-02-28T14:05:09Z</time>
      </trkpt>
      <trkpt lat="49.39254" lon="1.19418">
        <ele>157</ele>
        <time>2017-02-28T14:05:25Z</time>
      </trkpt>
      <trkpt lat="49.39251" lon="1.19424">
        <ele>157</ele>
        <time>2017-02-28T14:05:25Z</time>
      </trkpt>
      <trkpt lat="49.39249" lon="1.19427">
        <ele>157</ele>
        <time>2017-02-28T14:05:25Z</time>
      </trkpt>
      <trkpt lat="49.39246" lon="1.19434">
        <ele>157</ele>
        <time>2017-02-28T14:05:25Z</time>
      </trkpt>
      <trkpt lat="49.39241" lon="1.19444">
        <ele>157</ele>
        <time>2017-02-28T14:05:41Z</time>
      </trkpt>
      <trkpt lat="49.39238" lon="1.1945">
        <ele>157</ele>
        <time>2017-02-28T14:05:41Z</time>
      </trkpt>
      <trkpt lat="49.39234" lon="1.19455">
        <ele>157</ele>
        <time>2017-02-28T14:05:41Z</time>
      </trkpt>
      <trkpt lat="49.39233" lon="1.19461">
        <ele>157</ele>
        <time>2017-02-28T14:05:41Z</time>
      </trkpt>
      <trkpt lat="49.3923" lon="1.19467">
        <ele>157</ele>
        <time>2017-02-28T14:05:57Z</time>
      </trkpt>
      <trkpt lat="49.39229" lon="1.19473">
        <ele>157</ele>
        <time>2017-02-28T14:05:57Z</time>
      </trkpt>
      <trkpt lat="49.39224" lon="1.19479">
        <ele>157</ele>
        <time>2017-02-28T14:05:57Z</time>
      </trkpt>
      <trkpt lat="49.39222" lon="1.19483">
        <ele>157</ele>
        <time>2017-02-28T14:05:57Z</time>
      </trkpt>
      <trkpt lat="49.39218" lon="1.19488">
        <ele>157</ele>
        <time>2017-02-28T14:06:13Z</time>
      </trkpt>
      <trkpt lat="49.39214" lon="1.19496">
        <ele>157</ele>
        <time>2017-02-28T14:06:13Z</time>
      </trkpt>
      <trkpt lat="49.3921" lon="1.19502">
        <ele>157</ele>
        <time>2017-02-28T14:06:13Z</time>
      </trkpt>
      <trkpt lat="49.39206" lon="1.19507">
        <ele>157</ele>
        <time>2017-02-28T14:06:13Z</time>
      </trkpt>
      <trkpt lat="49.39203" lon="1.19512">
        <ele>157</ele>
        <time>2017-02-28T14:06:29Z</time>
      </trkpt>
      <trkpt lat="49.39201" lon="1.19516">
        <ele>157</ele>
        <time>2017-02-28T14:06:29Z</time>
      </trkpt>
      <trkpt lat="49.39197" lon="1.19524">
        <ele>157</ele>
        <time>2017-02-28T14:06:29Z</time>
      </trkpt>
      <trkpt lat="49.39194" lon="1.19528">
        <ele>157</ele>
        <time>2017-02-28T14:06:29Z</time>
      </trkpt>
      <trkpt lat="49.3919" lon="1.19538">
        <ele>157</ele>
        <time>2017-02-28T14:06:45Z</time>
      </trkpt>
      <trkpt lat="49.39186" lon="1.19543">
        <ele>156</ele>
        <time>2017-02-28T14:06:45Z</time>
      </trkpt>
      <trkpt lat="49.39184" lon="1.19548">
        <ele>156</ele>
        <time>2017-02-28T14:06:45Z</time>
      </trkpt>
      <trkpt lat="49.39181" lon="1.19552">
        <ele>156</ele>
        <time>2017-02-28T14:06:45Z</time>
      </trkpt>
      <trkpt lat="49.39177" lon="1.19556">
        <ele>156</ele>
        <time>2017-02-28T14:07:01Z</time>
      </trkpt>
      <trkpt lat="49.39173" lon="1.19564">
        <ele>156</ele>
        <time>2017-02-28T14:07:01Z</time>
      </trkpt>
      <trkpt lat="49.39171" lon="1.19569">
        <ele>156</ele>
        <time>2017-02-28T14:07:01Z</time>
      </trkpt>
      <trkpt lat="49.39168" lon="1.19575">
        <ele>156</ele>
        <time>2017-02-28T14:07:01Z</time>
      </trkpt>
      <trkpt lat="49.39166" lon="1.19582">
        <ele>156</ele>
        <time>2017-02-28T14:07:17Z</time>
      </trkpt>
      <trkpt lat="49.39164" lon="1.19589">
        <ele>156</ele>
        <time>2017-02-28T14:07:17Z</time>
      </trkpt>
      <trkpt lat="49.3916" lon="1.19598">
        <ele>156</ele>
        <time>2017-02-28T14:07:17Z</time>
      </trkpt>
      <trkpt lat="49.39156" lon="1.19604">
        <ele>156</ele>
        <time>2017-02-28T14:07:17Z</time>
      </trkpt>
      <trkpt lat="49.39153" lon="1.1961">
        <ele>156</ele>
        <time>2017-02-28T14:07:33Z</time>
      </trkpt>
      <trkpt lat="49.39151" lon="1.19616">
        <ele>156</ele>
        <time>2017-02-28T14:07:33Z</time>
      </trkpt>
      <trkpt lat="49.39149" lon="1.19623">
        <ele>156</ele>
        <time>2017-02-28T14:07:33Z</time>
      </trkpt>
      <trkpt lat="49.39146" lon="1.19629">
        <ele>156</ele>
        <time>2017-02-28T14:07:33Z</time>
      </trkpt>
      <trkpt lat="49.39142" lon="1.19635">
        <ele>156</ele>
        <time>2017-02-28T14:07:49Z</time>
      </trkpt>
      <trkpt lat="49.39138" lon="1.1964">
        <ele>156</ele>
        <time>2017-02-28T14:07:49Z</time>
      </trkpt>
      <trkpt lat="49.39136" lon="1.19647">
        <ele>156</ele>
        <time>2017-02-28T14:07:49Z</time>
      </trkpt>
      <trkpt lat="49.39133" lon="1.19652">
        <ele>156</ele>
        <time>2017-02-28T14:07:49Z</time>
      </trkpt>
      <trkpt lat="49.39131" lon="1.19659">
        <ele>156</ele>
        <time>2017-02-28T14:08:05Z</time>
      </trkpt>
      <trkpt lat="49.39127" lon="1.19665">
        <ele>156</ele>
        <time>2017-02-28T14:08:05Z</time>
      </trkpt>
      <trkpt lat="49.39125" lon="1.19671">
        <ele>156</ele>
        <time>2017-02-28T14:08:05Z</time>
      </trkpt>
      <trkpt lat="49.39123" lon="1.19675">
        <ele>155</ele>
        <time>2017-02-28T14:08:05Z</time>
      </trkpt>
      <trkpt lat="49.3912" lon="1.19678">
        <ele>155</ele>
        <time>2017-02-28T14:08:21Z</time>
      </trkpt>
      <trkpt lat="49.39117" lon="1.19685">
        <ele>155</ele>
        <time>2017-02-28T14:08:21Z</time>
      </trkpt>
      <trkpt lat="49.39113" lon="1.19692">
        <ele>155</ele>
        <time>2017-02-28T14:08:21Z</time>
      </trkpt>
      <trkpt lat="49.39111" lon="1.19696">
        <ele>155</ele>
        <time>2017-02-28T14:08:21Z</time>
      </trkpt>
      <trkpt lat="49.39109" lon="1.19705">
        <ele>155</ele>
        <time>2017-02-28T14:08:37Z</time>
      </trkpt>
      <trkpt lat="49.39107" lon="1.19711">
        <ele>155</ele>
        <time>2017-02-28T14:08:37Z</time>
      </trkpt>
      <trkpt lat="49.39102" lon="1.19721">
        <ele>155</ele>
        <time>2017-02-28T14:08:37Z</time>
      </trkpt>
      <trkpt lat="49.39099" lon="1.19727">
        <ele>155</ele>
        <time>2017-02-28T14:08:37Z</time>
      </trkpt>
      <trkpt lat="49.39095" lon="1.19733">
        <ele>155</ele>
        <time>2017-02-28T14:08:53Z</time>
      </trkpt>
      <trkpt lat="49.39091" lon="1.19738">
        <ele>155</ele>
        <time>2017-02-28T14:08:53Z</time>
      </trkpt>
      <trkpt lat="49.39089" lon="1.1974">
        <ele>155</ele>
        <time>2017-02-28T14:08:53Z</time>
      </trkpt>
      <trkpt lat="49.39086" lon="1.19743">
        <ele>155</ele>
        <time>2017-02-28T14:08:53Z</time>
      </trkpt>
      <trkpt lat="49.39084" lon="1.1975">
        <ele>155</ele>
        <time>2017-02-28T14:09:09Z</time>
      </trkpt>
      <trkpt lat="49.3908" lon="1.19756">
        <ele>155</ele>
        <time>2017-02-28T14:09:09Z</time>
      </trkpt>
      <trkpt lat="49.39077" lon="1.19763">
        <ele>155</ele>
        <time>2017-02-28T14:09:09Z</time>
      </trkpt>
      <trkpt lat="49.39076" lon="1.19771">
        <ele>155</ele>
        <time>2017-02-28T14:09:09Z</time>
      </trkpt>
      <trkpt lat="49.39073" lon="1.19776">
        <ele>155</ele>
        <time>2017-02-28T14:09:25Z</time>
      </trkpt>
      <trkpt lat="49.39069" lon="1.19781">
        <ele>155</ele>
        <time>2017-02-28T14:09:25Z</time>
      </trkpt>
      <trkpt lat="49.39066" lon="1.19786">
        <ele>155</ele>
        <time>2017-02-28T14:09:25Z</time>
      </trkpt>
      <trkpt lat="49.39062" lon="1.19791">
        <ele>155</ele>
        <time>2017-02-28T14:09:25Z</time>
      </trkpt>
      <trkpt lat="49.39058" lon="1.19796">
        <ele>154</ele>
        <time>2017-02-28T14:09:41Z</time>
      </trkpt>
      <trkpt lat="49.39055" lon="1.19801">
        <ele>154</ele>
        <time>2017-02-28T14:09:41Z</time>
      </trkpt>
      <trkpt lat="49.39051" lon="1.19806">
        <ele>154</ele>
        <time>2017-02-28T14:09:41Z</time>
      </trkpt>
      <trkpt lat="49.39048" lon="1.19811">
        <ele>154</ele>
        <time>2017-02-28T14:09:41Z</time>
      </trkpt>
      <trkpt lat="49.39044" lon="1.19815">
        <ele>154</ele>
        <time>2017-02-28T14:09:57Z</time>
      </trkpt>
      <trkpt lat="49.39041" lon="1.19823">
        <ele>154</ele>
        <time>2017-02-28T14:09:57Z</time>
      </trkpt>
      <trkpt lat="49.3904" lon="1.19831">
        <ele>154</ele>
        <time>2017-02-28T14:09:57Z</time>
      </trkpt>
      <trkpt lat="49.39038" lon="1.19837">
        <ele>154</ele>
        <time>2017-02-28T14:09:57Z</time>
      </trkpt>
      <trkpt lat="49.39035" lon="1.19842">
        <ele>154</ele>
        <time>2017-02-28T14:10:13Z</time>
      </trkpt>
      <trkpt lat="49.39033" lon="1.1985">
        <ele>154</ele>
        <time>2017-02-28T14:10:13Z</time>
      </trkpt>
      <trkpt lat="49.3903" lon="1.19858">
        <ele>154</ele>
        <time>2017-02-28T14:10:13Z</time>
      </trkpt>
      <trkpt lat="49.39027" lon="1.19864">
        <ele>154</ele>
        <time>2017-02-28T14:10:13Z</time>
      </trkpt>
      <trkpt lat="49.39023" lon="1.19869">
        <ele>154</ele>
        <time>2017-02-28T14:10:29Z</time>
      </trkpt>
      <trkpt lat="49.39017" lon="1.19877">
        <ele>154</ele>
        <time>2017-02-28T14:10:29Z</time>
      </trkpt>
      <trkpt lat="49.39014" lon="1.19882">
        <ele>154</ele>
        <time>2017-02-28T14:10:29Z</time>
      </trkpt>
      <trkpt lat="49.39011" lon="1.19888">
        <ele>154</ele>
        <time>2017-02-28T14:10:29Z</time>
      </trkpt>
      <trkpt lat="49.39008" lon="1.19892">
        <ele>154</ele>
        <time>2017-02-28T14:10:45Z</time>
      </trkpt>
      <trkpt lat="49.39005" lon="1.19898">
        <ele>154</ele>
        <time>2017-02-28T14:10:45Z</time>
      </trkpt>
      <trkpt lat="49.39003" lon="1.19903">
        <ele>154</ele>
        <time>2017-02-28T14:10:45Z</time>
      </trkpt>
      <trkpt lat="49.38999" lon="1.19908">
        <ele>154</ele>
        <time>2017-02-28T14:10:45Z</time>
      </trkpt>
      <trkpt lat="49.38996" lon="1.19913">
        <ele>154</ele>
        <time>2017-02-28T14:11:01Z</time>
      </trkpt>
      <trkpt lat="49.38993" lon="1.19922">
        <ele>154</ele>
        <time>2017-02-28T14:11:01Z</time>
      </trkpt>
      <trkpt lat="49.38991" lon="1.19929">
        <ele>154</ele>
        <time>2017-02-28T14:11:01Z</time>
      </trkpt>
      <trkpt lat="49.38988" lon="1.19935">
        <ele>154</ele>
        <time>2017-02-28T14:11:01Z</time>
      </trkpt>
      <trkpt lat="49.38986" lon="1.1994">
        <ele>154</ele>
        <time>2017-02-28T14:11:17Z</time>
      </trkpt>
      <trkpt lat="49.38981" lon="1.19947">
        <ele>154</ele>
        <time>2017-02-28T14:11:17Z</time>
      </trkpt>
      <trkpt lat="49.38977" lon="1.19951">
        <ele>154</ele>
        <time>2017-02-28T14:11:17Z</time>
      </trkpt>
      <trkpt lat="49.38972" lon="1.19954">
        <ele>154</ele>
        <time>2017-02-28T14:11:17Z</time>
      </trkpt>
      <trkpt lat="49.38968" lon="1.19955">
        <ele>154</ele>
        <time>2017-02-28T14:11:33Z</time>
      </trkpt>
      <trkpt lat="49.38967" lon="1.19947">
        <ele>154</ele>
        <time>2017-02-28T14:11:33Z</time>
      </trkpt>
      <trkpt lat="49.38967" lon="1.19939">
        <ele>154</ele>
        <time>2017-02-28T14:11:33Z</time>
      </trkpt>
      <trkpt lat="49.38969" lon="1.19937">
        <ele>154</ele>
        <time>2017-02-28T14:11:33Z</time>
      </trkpt>
      <trkpt lat="49.3897" lon="1.19937">
        <ele>154</ele>
        <time>2017-02-28T14:12:06Z</time>
      </trkpt>
      <trkpt lat="49.3897" lon="1.19937">
        <ele>154</ele>
        <time>2017-02-28T14:12:06Z</time>
      </trkpt>
      <trkpt lat="49.38966" lon="1.19934">
        <ele>154</ele>
        <time>2017-02-28T14:12:06Z</time>
      </trkpt>
      <trkpt lat="49.38961" lon="1.19934">
        <ele>154</ele>
        <time>2017-02-28T14:12:06Z</time>
      </trkpt>
      <trkpt lat="49.38957" lon="1.19936">
        <ele>152</ele>
        <time>2017-02-28T14:12:06Z</time>
      </trkpt>
      <trkpt lat="49.38954" lon="1.19942">
        <ele>152</ele>
        <time>2017-02-28T14:13:29Z</time>
      </trkpt>
      <trkpt lat="49.38954" lon="1.19943">
        <ele>152</ele>
        <time>2017-02-28T14:13:29Z</time>
      </trkpt>
      <trkpt lat="49.3895" lon="1.19945">
        <ele>152</ele>
        <time>2017-02-28T14:13:29Z</time>
      </trkpt>
      <trkpt lat="49.38946" lon="1.19952">
        <ele>152</ele>
        <time>2017-02-28T14:13:29Z</time>
      </trkpt>
      <trkpt lat="49.38943" lon="1.19955">
        <ele>152</ele>
        <time>2017-02-28T14:13:29Z</time>
      </trkpt>
      <trkpt lat="49.38939" lon="1.19956">
        <ele>152</ele>
        <time>2017-02-28T14:13:45Z</time>
      </trkpt>
      <trkpt lat="49.38934" lon="1.19959">
        <ele>152</ele>
        <time>2017-02-28T14:13:45Z</time>
      </trkpt>
      <trkpt lat="49.3893" lon="1.19965">
        <ele>152</ele>
        <time>2017-02-28T14:13:45Z</time>
      </trkpt>
      <trkpt lat="49.38925" lon="1.1997">
        <ele>152</ele>
        <time>2017-02-28T14:13:45Z</time>
      </trkpt>
      <trkpt lat="49.3892" lon="1.19972">
        <ele>152</ele>
        <time>2017-02-28T14:14:01Z</time>
      </trkpt>
      <trkpt lat="49.38917" lon="1.19967">
        <ele>152</ele>
        <time>2017-02-28T14:14:01Z</time>
      </trkpt>
      <trkpt lat="49.3891" lon="1.19967">
        <ele>152</ele>
        <time>2017-02-28T14:14:01Z</time>
      </trkpt>
      <trkpt lat="49.38904" lon="1.19966">
        <ele>152</ele>
        <time>2017-02-28T14:14:01Z</time>
      </trkpt>
      <trkpt lat="49.38901" lon="1.19965">
        <ele>152</ele>
        <time>2017-02-28T14:14:17Z</time>
      </trkpt>
      <trkpt lat="49.38898" lon="1.19966">
        <ele>152</ele>
        <time>2017-02-28T14:14:17Z</time>
      </trkpt>
      <trkpt lat="49.38892" lon="1.19964">
        <ele>152</ele>
        <time>2017-02-28T14:14:17Z</time>
      </trkpt>
      <trkpt lat="49.38888" lon="1.19961">
        <ele>152</ele>
        <time>2017-02-28T14:14:17Z</time>
      </trkpt>
      <trkpt lat="49.38883" lon="1.19958">
        <ele>152</ele>
        <time>2017-02-28T14:14:33Z</time>
      </trkpt>
      <trkpt lat="49.38878" lon="1.19956">
        <ele>152</ele>
        <time>2017-02-28T14:14:33Z</time>
      </trkpt>
      <trkpt lat="49.38873" lon="1.19953">
        <ele>151</ele>
        <time>2017-02-28T14:14:33Z</time>
      </trkpt>
      <trkpt lat="49.38868" lon="1.19951">
        <ele>151</ele>
        <time>2017-02-28T14:14:33Z</time>
      </trkpt>
      <trkpt lat="49.38862" lon="1.19952">
        <ele>151</ele>
        <time>2017-02-28T14:14:49Z</time>
      </trkpt>
      <trkpt lat="49.38857" lon="1.19953">
        <ele>151</ele>
        <time>2017-02-28T14:14:49Z</time>
      </trkpt>
      <trkpt lat="49.3885" lon="1.19954">
        <ele>151</ele>
        <time>2017-02-28T14:14:49Z</time>
      </trkpt>
      <trkpt lat="49.38847" lon="1.19951">
        <ele>151</ele>
        <time>2017-02-28T14:14:49Z</time>
      </trkpt>
      <trkpt lat="49.38841" lon="1.19953">
        <ele>151</ele>
        <time>2017-02-28T14:15:05Z</time>
      </trkpt>
      <trkpt lat="49.38838" lon="1.19959">
        <ele>151</ele>
        <time>2017-02-28T14:15:05Z</time>
      </trkpt>
      <trkpt lat="49.38834" lon="1.19967">
        <ele>151</ele>
        <time>2017-02-28T14:15:05Z</time>
      </trkpt>
      <trkpt lat="49.38833" lon="1.19975">
        <ele>151</ele>
        <time>2017-02-28T14:15:05Z</time>
      </trkpt>
      <trkpt lat="49.38831" lon="1.1998">
        <ele>151</ele>
        <time>2017-02-28T14:15:21Z</time>
      </trkpt>
      <trkpt lat="49.38827" lon="1.19987">
        <ele>151</ele>
        <time>2017-02-28T14:15:21Z</time>
      </trkpt>
      <trkpt lat="49.38822" lon="1.19992">
        <ele>151</ele>
        <time>2017-02-28T14:15:21Z</time>
      </trkpt>
      <trkpt lat="49.3882" lon="1.19999">
        <ele>151</ele>
        <time>2017-02-28T14:15:21Z</time>
      </trkpt>
      <trkpt lat="49.38817" lon="1.20004">
        <ele>151</ele>
        <time>2017-02-28T14:15:37Z</time>
      </trkpt>
      <trkpt lat="49.38815" lon="1.2001">
        <ele>151</ele>
        <time>2017-02-28T14:15:37Z</time>
      </trkpt>
      <trkpt lat="49.38811" lon="1.20017">
        <ele>151</ele>
        <time>2017-02-28T14:15:37Z</time>
      </trkpt>
      <trkpt lat="49.38808" lon="1.20023">
        <ele>151</ele>
        <time>2017-02-28T14:15:37Z</time>
      </trkpt>
      <trkpt lat="49.38803" lon="1.20026">
        <ele>151</ele>
        <time>2017-02-28T14:15:53Z</time>
      </trkpt>
      <trkpt lat="49.388" lon="1.20029">
        <ele>151</ele>
        <time>2017-02-28T14:15:53Z</time>
      </trkpt>
      <trkpt lat="49.38793" lon="1.20035">
        <ele>151</ele>
        <time>2017-02-28T14:15:53Z</time>
      </trkpt>
      <trkpt lat="49.3879" lon="1.20039">
        <ele>152</ele>
        <time>2017-02-28T14:15:53Z</time>
      </trkpt>
      <trkpt lat="49.38788" lon="1.20042">
        <ele>153</ele>
        <time>2017-02-28T14:16:09Z</time>
      </trkpt>
      <trkpt lat="49.38785" lon="1.20044">
        <ele>153</ele>
        <time>2017-02-28T14:16:09Z</time>
      </trkpt>
      <trkpt lat="49.38781" lon="1.20048">
        <ele>153</ele>
        <time>2017-02-28T14:16:09Z</time>
      </trkpt>
      <trkpt lat="49.38775" lon="1.20055">
        <ele>153</ele>
        <time>2017-02-28T14:16:09Z</time>
      </trkpt>
      <trkpt lat="49.38772" lon="1.20059">
        <ele>153</ele>
        <time>2017-02-28T14:16:25Z</time>
      </trkpt>
      <trkpt lat="49.38768" lon="1.20063">
        <ele>153</ele>
        <time>2017-02-28T14:16:25Z</time>
      </trkpt>
      <trkpt lat="49.38763" lon="1.20066">
        <ele>153</ele>
        <time>2017-02-28T14:16:25Z</time>
      </trkpt>
      <trkpt lat="49.38758" lon="1.20065">
        <ele>153</ele>
        <time>2017-02-28T14:16:25Z</time>
      </trkpt>
      <trkpt lat="49.38753" lon="1.20067">
        <ele>153</ele>
        <time>2017-02-28T14:16:41Z</time>
      </trkpt>
      <trkpt lat="49.38749" lon="1.20067">
        <ele>153</ele>
        <time>2017-02-28T14:16:41Z</time>
      </trkpt>
      <trkpt lat="49.38745" lon="1.20067">
        <ele>153</ele>
        <time>2017-02-28T14:16:41Z</time>
      </trkpt>
      <trkpt lat="49.3874" lon="1.20068">
        <ele>153</ele>
        <time>2017-02-28T14:16:41Z</time>
      </trkpt>
      <trkpt lat="49.38735" lon="1.20073">
        <ele>153</ele>
        <time>2017-02-28T14:16:57Z</time>
      </trkpt>
      <trkpt lat="49.38731" lon="1.20077">
        <ele>153</ele>
        <time>2017-02-28T14:16:57Z</time>
      </trkpt>
      <trkpt lat="49.38727" lon="1.20084">
        <ele>153</ele>
        <time>2017-02-28T14:16:57Z</time>
      </trkpt>
      <trkpt lat="49.38721" lon="1.20089">
        <ele>153</ele>
        <time>2017-02-28T14:16:57Z</time>
      </trkpt>
      <trkpt lat="49.38717" lon="1.20091">
        <ele>153</ele>
        <time>2017-02-28T14:17:13Z</time>
      </trkpt>
      <trkpt lat="49.38712" lon="1.20096">
        <ele>153</ele>
        <time>2017-02-28T14:17:13Z</time>
      </trkpt>
      <trkpt lat="49.38709" lon="1.20101">
        <ele>153</ele>
        <time>2017-02-28T14:17:13Z</time>
      </trkpt>
      <trkpt lat="49.38706" lon="1.20107">
        <ele>153</ele>
        <time>2017-02-28T14:17:13Z</time>
      </trkpt>
      <trkpt lat="49.38702" lon="1.20115">
        <ele>153</ele>
        <time>2017-02-28T14:17:29Z</time>
      </trkpt>
      <trkpt lat="49.387" lon="1.20121">
        <ele>153</ele>
        <time>2017-02-28T14:17:29Z</time>
      </trkpt>
      <trkpt lat="49.38697" lon="1.2013">
        <ele>153</ele>
        <time>2017-02-28T14:17:29Z</time>
      </trkpt>
      <trkpt lat="49.38695" lon="1.20137">
        <ele>153</ele>
        <time>2017-02-28T14:17:29Z</time>
      </trkpt>
      <trkpt lat="49.38693" lon="1.20144">
        <ele>153</ele>
        <time>2017-02-28T14:17:45Z</time>
      </trkpt>
      <trkpt lat="49.3869" lon="1.2015">
        <ele>153</ele>
        <time>2017-02-28T14:17:45Z</time>
      </trkpt>
      <trkpt lat="49.38688" lon="1.20155">
        <ele>153</ele>
        <time>2017-02-28T14:17:45Z</time>
      </trkpt>
      <trkpt lat="49.38686" lon="1.20164">
        <ele>153</ele>
        <time>2017-02-28T14:17:45Z</time>
      </trkpt>
      <trkpt lat="49.38684" lon="1.20169">
        <ele>153</ele>
        <time>2017-02-28T14:18:01Z</time>
      </trkpt>
      <trkpt lat="49.38681" lon="1.20177">
        <ele>153</ele>
        <time>2017-02-28T14:18:01Z</time>
      </trkpt>
      <trkpt lat="49.38682" lon="1.20188">
        <ele>153</ele>
        <time>2017-02-28T14:18:01Z</time>
      </trkpt>
      <trkpt lat="49.3868" lon="1.20195">
        <ele>153</ele>
        <time>2017-02-28T14:18:01Z</time>
      </trkpt>
      <trkpt lat="49.38678" lon="1.20204">
        <ele>153</ele>
        <time>2017-02-28T14:18:17Z</time>
      </trkpt>
      <trkpt lat="49.38678" lon="1.20213">
        <ele>153</ele>
        <time>2017-02-28T14:18:17Z</time>
      </trkpt>
      <trkpt lat="49.38678" lon="1.20223">
        <ele>153</ele>
        <time>2017-02-28T14:18:17Z</time>
      </trkpt>
      <trkpt lat="49.38677" lon="1.20229">
        <ele>153</ele>
        <time>2017-02-28T14:18:17Z</time>
      </trkpt>
      <trkpt lat="49.38677" lon="1.20237">
        <ele>153</ele>
        <time>2017-02-28T14:18:33Z</time>
      </trkpt>
      <trkpt lat="49.38677" lon="1.20245">
        <ele>153</ele>
        <time>2017-02-28T14:18:33Z</time>
      </trkpt>
      <trkpt lat="49.38675" lon="1.20252">
        <ele>153</ele>
        <time>2017-02-28T14:18:33Z</time>
      </trkpt>
      <trkpt lat="49.38672" lon="1.2026">
        <ele>153</ele>
        <time>2017-02-28T14:18:33Z</time>
      </trkpt>
      <trkpt lat="49.3867" lon="1.20264">
        <ele>153</ele>
        <time>2017-02-28T14:18:49Z</time>
      </trkpt>
      <trkpt lat="49.38666" lon="1.20268">
        <ele>153</ele>
        <time>2017-02-28T14:18:49Z</time>
      </trkpt>
      <trkpt lat="49.38661" lon="1.20268">
        <ele>153</ele>
        <time>2017-02-28T14:18:49Z</time>
      </trkpt>
      <trkpt lat="49.38656" lon="1.2027">
        <ele>153</ele>
        <time>2017-02-28T14:18:49Z</time>
      </trkpt>
      <trkpt lat="49.38653" lon="1.2027">
        <ele>153</ele>
        <time>2017-02-28T14:19:06Z</time>
      </trkpt>
      <trkpt lat="49.38649" lon="1.20271">
        <ele>153</ele>
        <time>2017-02-28T14:19:06Z</time>
      </trkpt>
      <trkpt lat="49.38644" lon="1.20272">
        <ele>153</ele>
        <time>2017-02-28T14:19:06Z</time>
      </trkpt>
      <trkpt lat="49.3864" lon="1.20273">
        <ele>153</ele>
        <time>2017-02-28T14:19:06Z</time>
      </trkpt>
      <trkpt lat="49.38634" lon="1.20275">
        <ele>153</ele>
        <time>2017-02-28T14:19:21Z</time>
      </trkpt>
      <trkpt lat="49.3863" lon="1.20277">
        <ele>153</ele>
        <time>2017-02-28T14:19:21Z</time>
      </trkpt>
      <trkpt lat="49.38625" lon="1.20277">
        <ele>153</ele>
        <time>2017-02-28T14:19:21Z</time>
      </trkpt>
      <trkpt lat="49.38623" lon="1.20276">
        <ele>156</ele>
        <time>2017-02-28T14:19:21Z</time>
      </trkpt>
      <trkpt lat="49.38618" lon="1.20276">
        <ele>156</ele>
        <time>2017-02-28T14:19:37Z</time>
      </trkpt>
      <trkpt lat="49.38615" lon="1.20276">
        <ele>156</ele>
        <time>2017-02-28T14:19:37Z</time>
      </trkpt>
      <trkpt lat="49.38609" lon="1.20275">
        <ele>156</ele>
        <time>2017-02-28T14:19:37Z</time>
      </trkpt>
      <trkpt lat="49.38607" lon="1.2028">
        <ele>156</ele>
        <time>2017-02-28T14:19:37Z</time>
      </trkpt>
      <trkpt lat="49.38608" lon="1.20283">
        <ele>156</ele>
        <time>2017-02-28T14:20:01Z</time>
      </trkpt>
      <trkpt lat="49.38605" lon="1.20289">
        <ele>156</ele>
        <time>2017-02-28T14:20:01Z</time>
      </trkpt>
      <trkpt lat="49.38602" lon="1.20294">
        <ele>156</ele>
        <time>2017-02-28T14:20:01Z</time>
      </trkpt>
      <trkpt lat="49.38592" lon="1.20296">
        <ele>156</ele>
        <time>2017-02-28T14:20:01Z</time>
      </trkpt>
      <trkpt lat="49.38587" lon="1.20294">
        <ele>156</ele>
        <time>2017-02-28T14:20:17Z</time>
      </trkpt>
      <trkpt lat="49.38581" lon="1.2029">
        <ele>156</ele>
        <time>2017-02-28T14:20:17Z</time>
      </trkpt>
      <trkpt lat="49.38578" lon="1.20283">
        <ele>156</ele>
        <time>2017-02-28T14:20:17Z</time>
      </trkpt>
      <trkpt lat="49.38574" lon="1.20277">
        <ele>156</ele>
        <time>2017-02-28T14:20:17Z</time>
      </trkpt>
      <trkpt lat="49.38572" lon="1.20272">
        <ele>156</ele>
        <time>2017-02-28T14:20:33Z</time>
      </trkpt>
      <trkpt lat="49.38569" lon="1.20266">
        <ele>156</ele>
        <time>2017-02-28T14:20:33Z</time>
      </trkpt>
      <trkpt lat="49.38566" lon="1.20261">
        <ele>156</ele>
        <time>2017-02-28T14:20:33Z</time>
      </trkpt>
      <trkpt lat="49.38564" lon="1.20264">
        <ele>156</ele>
        <time>2017-02-28T14:20:33Z</time>
      </trkpt>
      <trkpt lat="49.38568" lon="1.2026">
        <ele>156</ele>
        <time>2017-02-28T14:23:18Z</time>
      </trkpt>
      <trkpt lat="49.38569" lon="1.2026">
        <ele>156</ele>
        <time>2017-02-28T14:23:18Z</time>
      </trkpt>
      <trkpt lat="49.38569" lon="1.20259">
        <ele>156</ele>
        <time>2017-02-28T14:23:18Z</time>
      </trkpt>
      <trkpt lat="49.38568" lon="1.20254">
        <ele>156</ele>
        <time>2017-02-28T14:23:18Z</time>
      </trkpt>
      <trkpt lat="49.38566" lon="1.20247">
        <ele>156</ele>
        <time>2017-02-28T14:23:18Z</time>
      </trkpt>
      <trkpt lat="49.38562" lon="1.2024">
        <ele>156</ele>
        <time>2017-02-28T14:24:09Z</time>
      </trkpt>
      <trkpt lat="49.38557" lon="1.20242">
        <ele>156</ele>
        <time>2017-02-28T14:24:09Z</time>
      </trkpt>
      <trkpt lat="49.38554" lon="1.20239">
        <ele>156</ele>
        <time>2017-02-28T14:24:09Z</time>
      </trkpt>
      <trkpt lat="49.38548" lon="1.2024">
        <ele>156</ele>
        <time>2017-02-28T14:24:09Z</time>
      </trkpt>
      <trkpt lat="49.38545" lon="1.20244">
        <ele>156</ele>
        <time>2017-02-28T14:24:09Z</time>
      </trkpt>
      <trkpt lat="49.3854" lon="1.20251">
        <ele>155</ele>
        <time>2017-02-28T14:24:26Z</time>
      </trkpt>
      <trkpt lat="49.38536" lon="1.20257">
        <ele>155</ele>
        <time>2017-02-28T14:24:26Z</time>
      </trkpt>
      <trkpt lat="49.38532" lon="1.20263">
        <ele>155</ele>
        <time>2017-02-28T14:24:26Z</time>
      </trkpt>
      <trkpt lat="49.38527" lon="1.20267">
        <ele>155</ele>
        <time>2017-02-28T14:24:26Z</time>
      </trkpt>
      <trkpt lat="49.38524" lon="1.20272">
        <ele>155</ele>
        <time>2017-02-28T14:24:41Z</time>
      </trkpt>
      <trkpt lat="49.3852" lon="1.20281">
        <ele>155</ele>
        <time>2017-02-28T14:24:41Z</time>
      </trkpt>
      <trkpt lat="49.38517" lon="1.20288">
        <ele>155</ele>
        <time>2017-02-28T14:24:41Z</time>
      </trkpt>
      <trkpt lat="49.38512" lon="1.2029">
        <ele>155</ele>
        <time>2017-02-28T14:24:41Z</time>
      </trkpt>
      <trkpt lat="49.38505" lon="1.20287">
        <ele>155</ele>
        <time>2017-02-28T14:24:57Z</time>
      </trkpt>
      <trkpt lat="49.38501" lon="1.20289">
        <ele>155</ele>
        <time>2017-02-28T14:24:57Z</time>
      </trkpt>
      <trkpt lat="49.38496" lon="1.20296">
        <ele>156</ele>
        <time>2017-02-28T14:24:57Z</time>
      </trkpt>
      <trkpt lat="49.38492" lon="1.20299">
        <ele>156</ele>
        <time>2017-02-28T14:24:57Z</time>
      </trkpt>
      <trkpt lat="49.38487" lon="1.20302">
        <ele>156</ele>
        <time>2017-02-28T14:25:13Z</time>
      </trkpt>
      <trkpt lat="49.38483" lon="1.20308">
        <ele>156</ele>
        <time>2017-02-28T14:25:13Z</time>
      </trkpt>
      <trkpt lat="49.3848" lon="1.20314">
        <ele>156</ele>
        <time>2017-02-28T14:25:13Z</time>
      </trkpt>
      <trkpt lat="49.38476" lon="1.20319">
        <ele>156</ele>
        <time>2017-02-28T14:25:13Z</time>
      </trkpt>
      <trkpt lat="49.38472" lon="1.20325">
        <ele>156</ele>
        <time>2017-02-28T14:25:29Z</time>
      </trkpt>
      <trkpt lat="49.38468" lon="1.2033">
        <ele>156</ele>
        <time>2017-02-28T14:25:29Z</time>
      </trkpt>
      <trkpt lat="49.38463" lon="1.20334">
        <ele>156</ele>
        <time>2017-02-28T14:25:29Z</time>
      </trkpt>
      <trkpt lat="49.38459" lon="1.20337">
        <ele>156</ele>
        <time>2017-02-28T14:25:29Z</time>
      </trkpt>
      <trkpt lat="49.38455" lon="1.20342">
        <ele>153</ele>
        <time>2017-02-28T14:25:45Z</time>
      </trkpt>
      <trkpt lat="49.3845" lon="1.20346">
        <ele>153</ele>
        <time>2017-02-28T14:25:45Z</time>
      </trkpt>
      <trkpt lat="49.38446" lon="1.2035">
        <ele>153</ele>
        <time>2017-02-28T14:25:45Z</time>
      </trkpt>
      <trkpt lat="49.38443" lon="1.20357">
        <ele>153</ele>
        <time>2017-02-28T14:25:45Z</time>
      </trkpt>
      <trkpt lat="49.38433" lon="1.20368">
        <ele>153</ele>
        <time>2017-02-28T14:26:17Z</time>
      </trkpt>
      <trkpt lat="49.38426" lon="1.20369">
        <ele>153</ele>
        <time>2017-02-28T14:26:17Z</time>
      </trkpt>
      <trkpt lat="49.38422" lon="1.20373">
        <ele>153</ele>
        <time>2017-02-28T14:26:17Z</time>
      </trkpt>
      <trkpt lat="49.38415" lon="1.20383">
        <ele>155</ele>
        <time>2017-02-28T14:26:17Z</time>
      </trkpt>
      <trkpt lat="49.38411" lon="1.20387">
        <ele>155</ele>
        <time>2017-02-28T14:26:17Z</time>
      </trkpt>
      <trkpt lat="49.38407" lon="1.20397">
        <ele>155</ele>
        <time>2017-02-28T14:26:33Z</time>
      </trkpt>
      <trkpt lat="49.38403" lon="1.20403">
        <ele>155</ele>
        <time>2017-02-28T14:26:33Z</time>
      </trkpt>
      <trkpt lat="49.384" lon="1.20407">
        <ele>155</ele>
        <time>2017-02-28T14:26:33Z</time>
      </trkpt>
      <trkpt lat="49.38396" lon="1.20413">
        <ele>155</ele>
        <time>2017-02-28T14:26:33Z</time>
      </trkpt>
      <trkpt lat="49.38392" lon="1.20418">
        <ele>155</ele>
        <time>2017-02-28T14:26:49Z</time>
      </trkpt>
      <trkpt lat="49.3839" lon="1.20422">
        <ele>155</ele>
        <time>2017-02-28T14:26:49Z</time>
      </trkpt>
      <trkpt lat="49.38386" lon="1.20427">
        <ele>155</ele>
        <time>2017-02-28T14:26:49Z</time>
      </trkpt>
      <trkpt lat="49.38383" lon="1.20433">
        <ele>155</ele>
        <time>2017-02-28T14:26:49Z</time>
      </trkpt>
      <trkpt lat="49.3838" lon="1.20436">
        <ele>155</ele>
        <time>2017-02-28T14:27:05Z</time>
      </trkpt>
      <trkpt lat="49.38376" lon="1.20441">
        <ele>155</ele>
        <time>2017-02-28T14:27:05Z</time>
      </trkpt>
      <trkpt lat="49.38372" lon="1.20444">
        <ele>151</ele>
        <time>2017-02-28T14:27:05Z</time>
      </trkpt>
      <trkpt lat="49.38369" lon="1.20449">
        <ele>151</ele>
        <time>2017-02-28T14:27:05Z</time>
      </trkpt>
      <trkpt lat="49.38369" lon="1.20457">
        <ele>151</ele>
        <time>2017-02-28T14:27:21Z</time>
      </trkpt>
      <trkpt lat="49.3837" lon="1.20465">
        <ele>150</ele>
        <time>2017-02-28T14:27:21Z</time>
      </trkpt>
      <trkpt lat="49.38373" lon="1.20471">
        <ele>150</ele>
        <time>2017-02-28T14:27:21Z</time>
      </trkpt>
      <trkpt lat="49.38376" lon="1.20477">
        <ele>155</ele>
        <time>2017-02-28T14:27:21Z</time>
      </trkpt>
      <trkpt lat="49.38378" lon="1.20484">
        <ele>155</ele>
        <time>2017-02-28T14:27:38Z</time>
      </trkpt>
      <trkpt lat="49.3838" lon="1.20491">
        <ele>155</ele>
        <time>2017-02-28T14:27:38Z</time>
      </trkpt>
      <trkpt lat="49.38384" lon="1.20497">
        <ele>155</ele>
        <time>2017-02-28T14:27:38Z</time>
      </trkpt>
      <trkpt lat="49.38386" lon="1.20505">
        <ele>155</ele>
        <time>2017-02-28T14:27:38Z</time>
      </trkpt>
      <trkpt lat="49.38387" lon="1.2051">
        <ele>155</ele>
        <time>2017-02-28T14:27:53Z</time>
      </trkpt>
      <trkpt lat="49.38391" lon="1.20516">
        <ele>155</ele>
        <time>2017-02-28T14:27:53Z</time>
      </trkpt>
      <trkpt lat="49.38395" lon="1.20523">
        <ele>155</ele>
        <time>2017-02-28T14:27:53Z</time>
      </trkpt>
      <trkpt lat="49.38397" lon="1.20531">
        <ele>155</ele>
        <time>2017-02-28T14:27:53Z</time>
      </trkpt>
      <trkpt lat="49.38401" lon="1.20538">
        <ele>155</ele>
        <time>2017-02-28T14:28:09Z</time>
      </trkpt>
      <trkpt lat="49.38403" lon="1.20543">
        <ele>155</ele>
        <time>2017-02-28T14:28:09Z</time>
      </trkpt>
      <trkpt lat="49.38406" lon="1.20548">
        <ele>155</ele>
        <time>2017-02-28T14:28:09Z</time>
      </trkpt>
      <trkpt lat="49.38408" lon="1.20556">
        <ele>155</ele>
        <time>2017-02-28T14:28:09Z</time>
      </trkpt>
      <trkpt lat="49.38412" lon="1.20561">
        <ele>155</ele>
        <time>2017-02-28T14:28:25Z</time>
      </trkpt>
      <trkpt lat="49.38415" lon="1.20565">
        <ele>155</ele>
        <time>2017-02-28T14:28:25Z</time>
      </trkpt>
      <trkpt lat="49.38418" lon="1.20571">
        <ele>155</ele>
        <time>2017-02-28T14:28:25Z</time>
      </trkpt>
      <trkpt lat="49.3842" lon="1.20577">
        <ele>155</ele>
        <time>2017-02-28T14:28:25Z</time>
      </trkpt>
      <trkpt lat="49.3842" lon="1.20582">
        <ele>155</ele>
        <time>2017-02-28T14:28:41Z</time>
      </trkpt>
      <trkpt lat="49.38422" lon="1.20586">
        <ele>155</ele>
        <time>2017-02-28T14:28:41Z</time>
      </trkpt>
      <trkpt lat="49.38425" lon="1.20595">
        <ele>155</ele>
        <time>2017-02-28T14:28:41Z</time>
      </trkpt>
      <trkpt lat="49.38427" lon="1.206">
        <ele>155</ele>
        <time>2017-02-28T14:28:41Z</time>
      </trkpt>
      <trkpt lat="49.38429" lon="1.20609">
        <ele>155</ele>
        <time>2017-02-28T14:28:58Z</time>
      </trkpt>
      <trkpt lat="49.38429" lon="1.20615">
        <ele>155</ele>
        <time>2017-02-28T14:28:58Z</time>
      </trkpt>
      <trkpt lat="49.38431" lon="1.20622">
        <ele>155</ele>
        <time>2017-02-28T14:28:58Z</time>
      </trkpt>
      <trkpt lat="49.38434" lon="1.20625">
        <ele>155</ele>
        <time>2017-02-28T14:28:58Z</time>
      </trkpt>
      <trkpt lat="49.38434" lon="1.20625">
        <ele>155</ele>
        <time>2017-02-28T14:29:22Z</time>
      </trkpt>
      <trkpt lat="49.38434" lon="1.20625">
        <ele>155</ele>
        <time>2017-02-28T14:29:22Z</time>
      </trkpt>
      <trkpt lat="49.38434" lon="1.20624">
        <ele>155</ele>
        <time>2017-02-28T14:29:22Z</time>
      </trkpt>
      <trkpt lat="49.38438" lon="1.20627">
        <ele>156</ele>
        <time>2017-02-28T14:29:22Z</time>
      </trkpt>
      <trkpt lat="49.38444" lon="1.20632">
        <ele>156</ele>
        <time>2017-02-28T14:29:22Z</time>
      </trkpt>
      <trkpt lat="49.38448" lon="1.20636">
        <ele>156</ele>
        <time>2017-02-28T14:29:37Z</time>
      </trkpt>
      <trkpt lat="49.3845" lon="1.20642">
        <ele>156</ele>
        <time>2017-02-28T14:29:37Z</time>
      </trkpt>
      <trkpt lat="49.38453" lon="1.20652">
        <ele>156</ele>
        <time>2017-02-28T14:29:37Z</time>
      </trkpt>
      <trkpt lat="49.38453" lon="1.20656">
        <ele>156</ele>
        <time>2017-02-28T14:29:37Z</time>
      </trkpt>
      <trkpt lat="49.38454" lon="1.20666">
        <ele>156</ele>
        <time>2017-02-28T14:29:53Z</time>
      </trkpt>
      <trkpt lat="49.38454" lon="1.20671">
        <ele>156</ele>
        <time>2017-02-28T14:29:53Z</time>
      </trkpt>
      <trkpt lat="49.38454" lon="1.20675">
        <ele>156</ele>
        <time>2017-02-28T14:29:53Z</time>
      </trkpt>
      <trkpt lat="49.38457" lon="1.20681">
        <ele>156</ele>
        <time>2017-02-28T14:29:53Z</time>
      </trkpt>
      <trkpt lat="49.38457" lon="1.20689">
        <ele>156</ele>
        <time>2017-02-28T14:30:09Z</time>
      </trkpt>
      <trkpt lat="49.3846" lon="1.20695">
        <ele>158</ele>
        <time>2017-02-28T14:30:09Z</time>
      </trkpt>
      <trkpt lat="49.38465" lon="1.20699">
        <ele>158</ele>
        <time>2017-02-28T14:30:09Z</time>
      </trkpt>
      <trkpt lat="49.3847" lon="1.20705">
        <ele>158</ele>
        <time>2017-02-28T14:30:09Z</time>
      </trkpt>
      <trkpt lat="49.38476" lon="1.20712">
        <ele>158</ele>
        <time>2017-02-28T14:30:25Z</time>
      </trkpt>
      <trkpt lat="49.3848" lon="1.20718">
        <ele>158</ele>
        <time>2017-02-28T14:30:25Z</time>
      </trkpt>
      <trkpt lat="49.38485" lon="1.20726">
        <ele>158</ele>
        <time>2017-02-28T14:30:25Z</time>
      </trkpt>
      <trkpt lat="49.38487" lon="1.2073">
        <ele>158</ele>
        <time>2017-02-28T14:30:25Z</time>
      </trkpt>
      <trkpt lat="49.38489" lon="1.20737">
        <ele>158</ele>
        <time>2017-02-28T14:30:41Z</time>
      </trkpt>
      <trkpt lat="49.3849" lon="1.20745">
        <ele>158</ele>
        <time>2017-02-28T14:30:41Z</time>
      </trkpt>
      <trkpt lat="49.38493" lon="1.20751">
        <ele>158</ele>
        <time>2017-02-28T14:30:41Z</time>
      </trkpt>
      <trkpt lat="49.38495" lon="1.20756">
        <ele>158</ele>
        <time>2017-02-28T14:30:41Z</time>
      </trkpt>
      <trkpt lat="49.38497" lon="1.20763">
        <ele>158</ele>
        <time>2017-02-28T14:30:57Z</time>
      </trkpt>
      <trkpt lat="49.38498" lon="1.20769">
        <ele>158</ele>
        <time>2017-02-28T14:30:57Z</time>
      </trkpt>
      <trkpt lat="49.38498" lon="1.20774">
        <ele>158</ele>
        <time>2017-02-28T14:30:57Z</time>
      </trkpt>
      <trkpt lat="49.38501" lon="1.20783">
        <ele>158</ele>
        <time>2017-02-28T14:30:57Z</time>
      </trkpt>
      <trkpt lat="49.38503" lon="1.2079">
        <ele>158</ele>
        <time>2017-02-28T14:31:13Z</time>
      </trkpt>
      <trkpt lat="49.38502" lon="1.20797">
        <ele>157</ele>
        <time>2017-02-28T14:31:13Z</time>
      </trkpt>
      <trkpt lat="49.38501" lon="1.20804">
        <ele>157</ele>
        <time>2017-02-28T14:31:13Z</time>
      </trkpt>
      <trkpt lat="49.38501" lon="1.20809">
        <ele>157</ele>
        <time>2017-02-28T14:31:13Z</time>
      </trkpt>
      <trkpt lat="49.38501" lon="1.20815">
        <ele>157</ele>
        <time>2017-02-28T14:31:29Z</time>
      </trkpt>
      <trkpt lat="49.38504" lon="1.20819">
        <ele>157</ele>
        <time>2017-02-28T14:31:29Z</time>
      </trkpt>
      <trkpt lat="49.38505" lon="1.20825">
        <ele>157</ele>
        <time>2017-02-28T14:31:29Z</time>
      </trkpt>
      <trkpt lat="49.38504" lon="1.20828">
        <ele>157</ele>
        <time>2017-02-28T14:31:29Z</time>
      </trkpt>
      <trkpt lat="49.38541" lon="1.2084">
        <ele>157</ele>
        <time>2017-02-28T14:33:09Z</time>
      </trkpt>
      <trkpt lat="49.38543" lon="1.20841">
        <ele>158</ele>
        <time>2017-02-28T14:33:09Z</time>
      </trkpt>
      <trkpt lat="49.38545" lon="1.20849">
        <ele>158</ele>
        <time>2017-02-28T14:33:09Z</time>
      </trkpt>
      <trkpt lat="49.38545" lon="1.20856">
        <ele>158</ele>
        <time>2017-02-28T14:33:09Z</time>
      </trkpt>
      <trkpt lat="49.38546" lon="1.20854">
        <ele>158</ele>
        <time>2017-02-28T14:33:09Z</time>
      </trkpt>
      <trkpt lat="49.38546" lon="1.20854">
        <ele>158</ele>
        <time>2017-02-28T14:34:25Z</time>
      </trkpt>
      <trkpt lat="49.38545" lon="1.20857">
        <ele>158</ele>
        <time>2017-02-28T14:34:25Z</time>
      </trkpt>
      <trkpt lat="49.38541" lon="1.20863">
        <ele>157</ele>
        <time>2017-02-28T14:34:25Z</time>
      </trkpt>
      <trkpt lat="49.38538" lon="1.20869">
        <ele>157</ele>
        <time>2017-02-28T14:34:25Z</time>
      </trkpt>
      <trkpt lat="49.38536" lon="1.20872">
        <ele>157</ele>
        <time>2017-02-28T14:34:25Z</time>
      </trkpt>
      <trkpt lat="49.38533" lon="1.20875">
        <ele>157</ele>
        <time>2017-02-28T14:34:41Z</time>
      </trkpt>
      <trkpt lat="49.38531" lon="1.20879">
        <ele>157</ele>
        <time>2017-02-28T14:34:41Z</time>
      </trkpt>
      <trkpt lat="49.3853" lon="1.20887">
        <ele>157</ele>
        <time>2017-02-28T14:34:41Z</time>
      </trkpt>
      <trkpt lat="49.38533" lon="1.20892">
        <ele>157</ele>
        <time>2017-02-28T14:34:41Z</time>
      </trkpt>
      <trkpt lat="49.38538" lon="1.20896">
        <ele>157</ele>
        <time>2017-02-28T14:35:37Z</time>
      </trkpt>
      <trkpt lat="49.38537" lon="1.20903">
        <ele>157</ele>
        <time>2017-02-28T14:35:37Z</time>
      </trkpt>
      <trkpt lat="49.38536" lon="1.20907">
        <ele>157</ele>
        <time>2017-02-28T14:35:37Z</time>
      </trkpt>
      <trkpt lat="49.38534" lon="1.20915">
        <ele>157</ele>
        <time>2017-02-28T14:35:37Z</time>
      </trkpt>
      <trkpt lat="49.38532" lon="1.20919">
        <ele>157</ele>
        <time>2017-02-28T14:35:37Z</time>
      </trkpt>
      <trkpt lat="49.38532" lon="1.20927">
        <ele>157</ele>
        <time>2017-02-28T14:35:54Z</time>
      </trkpt>
      <trkpt lat="49.38532" lon="1.20933">
        <ele>157</ele>
        <time>2017-02-28T14:35:54Z</time>
      </trkpt>
      <trkpt lat="49.38531" lon="1.20942">
        <ele>157</ele>
        <time>2017-02-28T14:35:54Z</time>
      </trkpt>
      <trkpt lat="49.38533" lon="1.20949">
        <ele>157</ele>
        <time>2017-02-28T14:35:54Z</time>
      </trkpt>
      <trkpt lat="49.38533" lon="1.20954">
        <ele>157</ele>
        <time>2017-02-28T14:36:09Z</time>
      </trkpt>
      <trkpt lat="49.38531" lon="1.20961">
        <ele>156</ele>
        <time>2017-02-28T14:36:09Z</time>
      </trkpt>
      <trkpt lat="49.3853" lon="1.20965">
        <ele>156</ele>
        <time>2017-02-28T14:36:09Z</time>
      </trkpt>
      <trkpt lat="49.38529" lon="1.20974">
        <ele>156</ele>
        <time>2017-02-28T14:36:09Z</time>
      </trkpt>
      <trkpt lat="49.38529" lon="1.20979">
        <ele>156</ele>
        <time>2017-02-28T14:36:25Z</time>
      </trkpt>
      <trkpt lat="49.38533" lon="1.20987">
        <ele>156</ele>
        <time>2017-02-28T14:36:25Z</time>
      </trkpt>
      <trkpt lat="49.38535" lon="1.20994">
        <ele>156</ele>
        <time>2017-02-28T14:36:25Z</time>
      </trkpt>
      <trkpt lat="49.38537" lon="1.21">
        <ele>156</ele>
        <time>2017-02-28T14:36:25Z</time>
      </trkpt>
      <trkpt lat="49.38538" lon="1.21009">
        <ele>156</ele>
        <time>2017-02-28T14:36:41Z</time>
      </trkpt>
      <trkpt lat="49.38539" lon="1.21016">
        <ele>156</ele>
        <time>2017-02-28T14:36:41Z</time>
      </trkpt>
      <trkpt lat="49.3854" lon="1.21025">
        <ele>156</ele>
        <time>2017-02-28T14:36:41Z</time>
      </trkpt>
      <trkpt lat="49.38539" lon="1.21033">
        <ele>156</ele>
        <time>2017-02-28T14:36:41Z</time>
      </trkpt>
      <trkpt lat="49.38539" lon="1.21038">
        <ele>156</ele>
        <time>2017-02-28T14:36:57Z</time>
      </trkpt>
      <trkpt lat="49.38542" lon="1.21046">
        <ele>153</ele>
        <time>2017-02-28T14:36:57Z</time>
      </trkpt>
      <trkpt lat="49.38543" lon="1.21055">
        <ele>156</ele>
        <time>2017-02-28T14:36:57Z</time>
      </trkpt>
      <trkpt lat="49.38543" lon="1.21062">
        <ele>156</ele>
        <time>2017-02-28T14:36:57Z</time>
      </trkpt>
      <trkpt lat="49.38542" lon="1.2107">
        <ele>156</ele>
        <time>2017-02-28T14:37:13Z</time>
      </trkpt>
      <trkpt lat="49.38541" lon="1.21077">
        <ele>153</ele>
        <time>2017-02-28T14:37:13Z</time>
      </trkpt>
      <trkpt lat="49.38541" lon="1.21084">
        <ele>153</ele>
        <time>2017-02-28T14:37:13Z</time>
      </trkpt>
      <trkpt lat="49.3854" lon="1.21091">
        <ele>153</ele>
        <time>2017-02-28T14:37:13Z</time>
      </trkpt>
      <trkpt lat="49.3854" lon="1.21095">
        <ele>153</ele>
        <time>2017-02-28T14:37:29Z</time>
      </trkpt>
      <trkpt lat="49.38542" lon="1.21104">
        <ele>156</ele>
        <time>2017-02-28T14:37:29Z</time>
      </trkpt>
      <trkpt lat="49.38543" lon="1.21111">
        <ele>156</ele>
        <time>2017-02-28T14:37:29Z</time>
      </trkpt>
      <trkpt lat="49.38544" lon="1.21118">
        <ele>156</ele>
        <time>2017-02-28T14:37:29Z</time>
      </trkpt>
      <trkpt lat="49.38546" lon="1.21128">
        <ele>154</ele>
        <time>2017-02-28T14:37:46Z</time>
      </trkpt>
      <trkpt lat="49.38548" lon="1.21135">
        <ele>154</ele>
        <time>2017-02-28T14:37:46Z</time>
      </trkpt>
      <trkpt lat="49.3855" lon="1.2114">
        <ele>154</ele>
        <time>2017-02-28T14:37:46Z</time>
      </trkpt>
      <trkpt lat="49.38551" lon="1.21147">
        <ele>154</ele>
        <time>2017-02-28T14:37:46Z</time>
      </trkpt>
      <trkpt lat="49.38551" lon="1.21153">
        <ele>154</ele>
        <time>2017-02-28T14:38:01Z</time>
      </trkpt>
      <trkpt lat="49.38553" lon="1.21156">
        <ele>154</ele>
        <time>2017-02-28T14:38:01Z</time>
      </trkpt>
      <trkpt lat="49.38556" lon="1.21161">
        <ele>154</ele>
        <time>2017-02-28T14:38:01Z</time>
      </trkpt>
      <trkpt lat="49.38558" lon="1.21165">
        <ele>154</ele>
        <time>2017-02-28T14:38:01Z</time>
      </trkpt>
      <trkpt lat="49.3856" lon="1.21171">
        <ele>154</ele>
        <time>2017-02-28T14:38:17Z</time>
      </trkpt>
      <trkpt lat="49.38561" lon="1.21174">
        <ele>154</ele>
        <time>2017-02-28T14:38:17Z</time>
      </trkpt>
      <trkpt lat="49.38563" lon="1.21181">
        <ele>154</ele>
        <time>2017-02-28T14:38:17Z</time>
      </trkpt>
      <trkpt lat="49.38565" lon="1.21189">
        <ele>154</ele>
        <time>2017-02-28T14:38:17Z</time>
      </trkpt>
      <trkpt lat="49.38568" lon="1.21197">
        <ele>154</ele>
        <time>2017-02-28T14:38:33Z</time>
      </trkpt>
      <trkpt lat="49.38569" lon="1.21201">
        <ele>154</ele>
        <time>2017-02-28T14:38:33Z</time>
      </trkpt>
      <trkpt lat="49.3857" lon="1.21206">
        <ele>154</ele>
        <time>2017-02-28T14:38:33Z</time>
      </trkpt>
      <trkpt lat="49.38573" lon="1.21216">
        <ele>153</ele>
        <time>2017-02-28T14:38:33Z</time>
      </trkpt>
      <trkpt lat="49.38576" lon="1.21222">
        <ele>153</ele>
        <time>2017-02-28T14:38:49Z</time>
      </trkpt>
      <trkpt lat="49.38576" lon="1.21228">
        <ele>153</ele>
        <time>2017-02-28T14:38:49Z</time>
      </trkpt>
      <trkpt lat="49.38578" lon="1.21235">
        <ele>153</ele>
        <time>2017-02-28T14:38:49Z</time>
      </trkpt>
      <trkpt lat="49.3858" lon="1.21241">
        <ele>153</ele>
        <time>2017-02-28T14:38:49Z</time>
      </trkpt>
      <trkpt lat="49.38584" lon="1.21249">
        <ele>153</ele>
        <time>2017-02-28T14:39:05Z</time>
      </trkpt>
      <trkpt lat="49.38586" lon="1.21254">
        <ele>153</ele>
        <time>2017-02-28T14:39:05Z</time>
      </trkpt>
      <trkpt lat="49.38589" lon="1.21262">
        <ele>153</ele>
        <time>2017-02-28T14:39:05Z</time>
      </trkpt>
      <trkpt lat="49.3859" lon="1.21268">
        <ele>153</ele>
        <time>2017-02-28T14:39:05Z</time>
      </trkpt>
      <trkpt lat="49.38592" lon="1.21274">
        <ele>153</ele>
        <time>2017-02-28T14:39:21Z</time>
      </trkpt>
      <trkpt lat="49.38595" lon="1.21282">
        <ele>153</ele>
        <time>2017-02-28T14:39:21Z</time>
      </trkpt>
      <trkpt lat="49.38597" lon="1.21288">
        <ele>153</ele>
        <time>2017-02-28T14:39:21Z</time>
      </trkpt>
      <trkpt lat="49.38599" lon="1.21294">
        <ele>153</ele>
        <time>2017-02-28T14:39:21Z</time>
      </trkpt>
      <trkpt lat="49.38602" lon="1.21302">
        <ele>153</ele>
        <time>2017-02-28T14:39:37Z</time>
      </trkpt>
      <trkpt lat="49.38604" lon="1.21313">
        <ele>153</ele>
        <time>2017-02-28T14:39:37Z</time>
      </trkpt>
      <trkpt lat="49.38604" lon="1.21321">
        <ele>153</ele>
        <time>2017-02-28T14:39:37Z</time>
      </trkpt>
      <trkpt lat="49.38607" lon="1.21326">
        <ele>153</ele>
        <time>2017-02-28T14:39:37Z</time>
      </trkpt>
      <trkpt lat="49.3861" lon="1.21333">
        <ele>153</ele>
        <time>2017-02-28T14:39:53Z</time>
      </trkpt>
      <trkpt lat="49.38612" lon="1.21337">
        <ele>153</ele>
        <time>2017-02-28T14:39:53Z</time>
      </trkpt>
      <trkpt lat="49.38616" lon="1.21345">
        <ele>153</ele>
        <time>2017-02-28T14:39:53Z</time>
      </trkpt>
      <trkpt lat="49.38617" lon="1.21349">
        <ele>153</ele>
        <time>2017-02-28T14:39:53Z</time>
      </trkpt>
      <trkpt lat="49.38618" lon="1.21358">
        <ele>153</ele>
        <time>2017-02-28T14:40:09Z</time>
      </trkpt>
      <trkpt lat="49.3862" lon="1.21363">
        <ele>153</ele>
        <time>2017-02-28T14:40:09Z</time>
      </trkpt>
      <trkpt lat="49.38623" lon="1.21372">
        <ele>153</ele>
        <time>2017-02-28T14:40:09Z</time>
      </trkpt>
      <trkpt lat="49.38626" lon="1.21376">
        <ele>156</ele>
        <time>2017-02-28T14:40:09Z</time>
      </trkpt>
      <trkpt lat="49.38628" lon="1.21383">
        <ele>156</ele>
        <time>2017-02-28T14:40:25Z</time>
      </trkpt>
      <trkpt lat="49.38629" lon="1.21391">
        <ele>156</ele>
        <time>2017-02-28T14:40:25Z</time>
      </trkpt>
      <trkpt lat="49.3863" lon="1.21397">
        <ele>156</ele>
        <time>2017-02-28T14:40:25Z</time>
      </trkpt>
      <trkpt lat="49.3863" lon="1.21404">
        <ele>156</ele>
        <time>2017-02-28T14:40:25Z</time>
      </trkpt>
      <trkpt lat="49.3863" lon="1.2141">
        <ele>156</ele>
        <time>2017-02-28T14:40:42Z</time>
      </trkpt>
      <trkpt lat="49.38629" lon="1.21414">
        <ele>156</ele>
        <time>2017-02-28T14:40:42Z</time>
      </trkpt>
      <trkpt lat="49.38631" lon="1.21422">
        <ele>156</ele>
        <time>2017-02-28T14:40:42Z</time>
      </trkpt>
      <trkpt lat="49.38634" lon="1.21429">
        <ele>156</ele>
        <time>2017-02-28T14:40:42Z</time>
      </trkpt>
      <trkpt lat="49.38637" lon="1.21435">
        <ele>156</ele>
        <time>2017-02-28T14:40:57Z</time>
      </trkpt>
      <trkpt lat="49.38639" lon="1.21441">
        <ele>156</ele>
        <time>2017-02-28T14:40:57Z</time>
      </trkpt>
      <trkpt lat="49.38641" lon="1.21449">
        <ele>156</ele>
        <time>2017-02-28T14:40:57Z</time>
      </trkpt>
      <trkpt lat="49.38641" lon="1.21454">
        <ele>156</ele>
        <time>2017-02-28T14:40:57Z</time>
      </trkpt>
      <trkpt lat="49.38642" lon="1.21461">
        <ele>157</ele>
        <time>2017-02-28T14:41:13Z</time>
      </trkpt>
      <trkpt lat="49.38643" lon="1.21466">
        <ele>157</ele>
        <time>2017-02-28T14:41:13Z</time>
      </trkpt>
      <trkpt lat="49.38644" lon="1.21473">
        <ele>157</ele>
        <time>2017-02-28T14:41:13Z</time>
      </trkpt>
      <trkpt lat="49.38648" lon="1.21482">
        <ele>157</ele>
        <time>2017-02-28T14:41:13Z</time>
      </trkpt>
      <trkpt lat="49.38651" lon="1.21488">
        <ele>157</ele>
        <time>2017-02-28T14:41:29Z</time>
      </trkpt>
      <trkpt lat="49.38653" lon="1.21493">
        <ele>157</ele>
        <time>2017-02-28T14:41:29Z</time>
      </trkpt>
      <trkpt lat="49.38656" lon="1.21503">
        <ele>157</ele>
        <time>2017-02-28T14:41:29Z</time>
      </trkpt>
      <trkpt lat="49.38658" lon="1.21512">
        <ele>157</ele>
        <time>2017-02-28T14:41:29Z</time>
      </trkpt>
      <trkpt lat="49.38661" lon="1.21518">
        <ele>157</ele>
        <time>2017-02-28T14:41:45Z</time>
      </trkpt>
      <trkpt lat="49.38663" lon="1.21525">
        <ele>157</ele>
        <time>2017-02-28T14:41:45Z</time>
      </trkpt>
      <trkpt lat="49.38664" lon="1.21529">
        <ele>157</ele>
        <time>2017-02-28T14:41:45Z</time>
      </trkpt>
      <trkpt lat="49.38665" lon="1.21535">
        <ele>157</ele>
        <time>2017-02-28T14:41:45Z</time>
      </trkpt>
      <trkpt lat="49.38666" lon="1.2154">
        <ele>157</ele>
        <time>2017-02-28T14:42:01Z</time>
      </trkpt>
      <trkpt lat="49.38668" lon="1.21547">
        <ele>158</ele>
        <time>2017-02-28T14:42:01Z</time>
      </trkpt>
      <trkpt lat="49.38672" lon="1.21553">
        <ele>158</ele>
        <time>2017-02-28T14:42:01Z</time>
      </trkpt>
      <trkpt lat="49.38677" lon="1.2156">
        <ele>158</ele>
        <time>2017-02-28T14:42:01Z</time>
      </trkpt>
      <trkpt lat="49.3868" lon="1.21567">
        <ele>158</ele>
        <time>2017-02-28T14:42:17Z</time>
      </trkpt>
      <trkpt lat="49.38684" lon="1.21575">
        <ele>158</ele>
        <time>2017-02-28T14:42:17Z</time>
      </trkpt>
      <trkpt lat="49.38687" lon="1.21583">
        <ele>158</ele>
        <time>2017-02-28T14:42:17Z</time>
      </trkpt>
      <trkpt lat="49.38688" lon="1.21589">
        <ele>158</ele>
        <time>2017-02-28T14:42:17Z</time>
      </trkpt>
      <trkpt lat="49.38691" lon="1.21594">
        <ele>158</ele>
        <time>2017-02-28T14:42:33Z</time>
      </trkpt>
      <trkpt lat="49.38692" lon="1.21599">
        <ele>158</ele>
        <time>2017-02-28T14:42:33Z</time>
      </trkpt>
      <trkpt lat="49.38696" lon="1.21609">
        <ele>158</ele>
        <time>2017-02-28T14:42:33Z</time>
      </trkpt>
      <trkpt lat="49.38698" lon="1.21615">
        <ele>158</ele>
        <time>2017-02-28T14:42:33Z</time>
      </trkpt>
      <trkpt lat="49.38703" lon="1.21623">
        <ele>158</ele>
        <time>2017-02-28T14:42:49Z</time>
      </trkpt>
      <trkpt lat="49.38707" lon="1.21631">
        <ele>158</ele>
        <time>2017-02-28T14:42:49Z</time>
      </trkpt>
      <trkpt lat="49.3871" lon="1.21637">
        <ele>160</ele>
        <time>2017-02-28T14:42:49Z</time>
      </trkpt>
      <trkpt lat="49.38711" lon="1.21643">
        <ele>160</ele>
        <time>2017-02-28T14:42:49Z</time>
      </trkpt>
      <trkpt lat="49.38711" lon="1.21648">
        <ele>160</ele>
        <time>2017-02-28T14:43:05Z</time>
      </trkpt>
      <trkpt lat="49.38711" lon="1.21653">
        <ele>160</ele>
        <time>2017-02-28T14:43:05Z</time>
      </trkpt>
      <trkpt lat="49.38713" lon="1.21658">
        <ele>160</ele>
        <time>2017-02-28T14:43:05Z</time>
      </trkpt>
      <trkpt lat="49.38716" lon="1.21665">
        <ele>160</ele>
        <time>2017-02-28T14:43:05Z</time>
      </trkpt>
      <trkpt lat="49.38719" lon="1.21671">
        <ele>160</ele>
        <time>2017-02-28T14:43:21Z</time>
      </trkpt>
      <trkpt lat="49.38721" lon="1.21678">
        <ele>160</ele>
        <time>2017-02-28T14:43:21Z</time>
      </trkpt>
      <trkpt lat="49.38722" lon="1.21685">
        <ele>160</ele>
        <time>2017-02-28T14:43:21Z</time>
      </trkpt>
      <trkpt lat="49.38727" lon="1.21692">
        <ele>160</ele>
        <time>2017-02-28T14:43:21Z</time>
      </trkpt>
      <trkpt lat="49.3873" lon="1.21699">
        <ele>160</ele>
        <time>2017-02-28T14:43:37Z</time>
      </trkpt>
      <trkpt lat="49.38733" lon="1.21707">
        <ele>160</ele>
        <time>2017-02-28T14:43:37Z</time>
      </trkpt>
      <trkpt lat="49.38736" lon="1.21713">
        <ele>159</ele>
        <time>2017-02-28T14:43:37Z</time>
      </trkpt>
      <trkpt lat="49.38737" lon="1.2172">
        <ele>159</ele>
        <time>2017-02-28T14:43:37Z</time>
      </trkpt>
      <trkpt lat="49.38739" lon="1.21724">
        <ele>159</ele>
        <time>2017-02-28T14:43:53Z</time>
      </trkpt>
      <trkpt lat="49.38744" lon="1.21731">
        <ele>159</ele>
        <time>2017-02-28T14:43:53Z</time>
      </trkpt>
      <trkpt lat="49.38747" lon="1.21736">
        <ele>159</ele>
        <time>2017-02-28T14:43:53Z</time>
      </trkpt>
      <trkpt lat="49.38748" lon="1.21741">
        <ele>159</ele>
        <time>2017-02-28T14:43:53Z</time>
      </trkpt>
      <trkpt lat="49.38749" lon="1.21749">
        <ele>159</ele>
        <time>2017-02-28T14:44:10Z</time>
      </trkpt>
      <trkpt lat="49.38749" lon="1.21756">
        <ele>159</ele>
        <time>2017-02-28T14:44:10Z</time>
      </trkpt>
      <trkpt lat="49.38749" lon="1.21764">
        <ele>159</ele>
        <time>2017-02-28T14:44:10Z</time>
      </trkpt>
      <trkpt lat="49.38747" lon="1.21772">
        <ele>159</ele>
        <time>2017-02-28T14:44:10Z</time>
      </trkpt>
      <trkpt lat="49.38746" lon="1.2178">
        <ele>159</ele>
        <time>2017-02-28T14:44:26Z</time>
      </trkpt>
      <trkpt lat="49.38745" lon="1.21787">
        <ele>159</ele>
        <time>2017-02-28T14:44:26Z</time>
      </trkpt>
      <trkpt lat="49.38744" lon="1.21796">
        <ele>159</ele>
        <time>2017-02-28T14:44:26Z</time>
      </trkpt>
      <trkpt lat="49.38743" lon="1.21802">
        <ele>159</ele>
        <time>2017-02-28T14:44:26Z</time>
      </trkpt>
      <trkpt lat="49.38742" lon="1.21809">
        <ele>159</ele>
        <time>2017-02-28T14:44:42Z</time>
      </trkpt>
      <trkpt lat="49.38742" lon="1.21815">
        <ele>159</ele>
        <time>2017-02-28T14:44:42Z</time>
      </trkpt>
      <trkpt lat="49.38742" lon="1.21821">
        <ele>159</ele>
        <time>2017-02-28T14:44:42Z</time>
      </trkpt>
      <trkpt lat="49.38742" lon="1.21831">
        <ele>159</ele>
        <time>2017-02-28T14:44:42Z</time>
      </trkpt>
      <trkpt lat="49.38742" lon="1.21838">
        <ele>159</ele>
        <time>2017-02-28T14:44:57Z</time>
      </trkpt>
      <trkpt lat="49.38741" lon="1.21847">
        <ele>159</ele>
        <time>2017-02-28T14:44:57Z</time>
      </trkpt>
      <trkpt lat="49.38741" lon="1.21853">
        <ele>159</ele>
        <time>2017-02-28T14:44:57Z</time>
      </trkpt>
      <trkpt lat="49.38741" lon="1.21858">
        <ele>159</ele>
        <time>2017-02-28T14:44:57Z</time>
      </trkpt>
      <trkpt lat="49.38742" lon="1.21867">
        <ele>159</ele>
        <time>2017-02-28T14:45:13Z</time>
      </trkpt>
      <trkpt lat="49.38742" lon="1.21876">
        <ele>159</ele>
        <time>2017-02-28T14:45:13Z</time>
      </trkpt>
      <trkpt lat="49.38743" lon="1.21884">
        <ele>159</ele>
        <time>2017-02-28T14:45:13Z</time>
      </trkpt>
      <trkpt lat="49.38742" lon="1.21889">
        <ele>159</ele>
        <time>2017-02-28T14:45:13Z</time>
      </trkpt>
      <trkpt lat="49.38742" lon="1.219">
        <ele>159</ele>
        <time>2017-02-28T14:45:29Z</time>
      </trkpt>
      <trkpt lat="49.38741" lon="1.21908">
        <ele>159</ele>
        <time>2017-02-28T14:45:29Z</time>
      </trkpt>
      <trkpt lat="49.38739" lon="1.21916">
        <ele>159</ele>
        <time>2017-02-28T14:45:29Z</time>
      </trkpt>
      <trkpt lat="49.38739" lon="1.21922">
        <ele>159</ele>
        <time>2017-02-28T14:45:29Z</time>
      </trkpt>
      <trkpt lat="49.38738" lon="1.2193">
        <ele>159</ele>
        <time>2017-02-28T14:45:45Z</time>
      </trkpt>
      <trkpt lat="49.38737" lon="1.21937">
        <ele>159</ele>
        <time>2017-02-28T14:45:45Z</time>
      </trkpt>
      <trkpt lat="49.38736" lon="1.21945">
        <ele>159</ele>
        <time>2017-02-28T14:45:45Z</time>
      </trkpt>
      <trkpt lat="49.38736" lon="1.21955">
        <ele>159</ele>
        <time>2017-02-28T14:45:45Z</time>
      </trkpt>
      <trkpt lat="49.38736" lon="1.21962">
        <ele>159</ele>
        <time>2017-02-28T14:46:01Z</time>
      </trkpt>
      <trkpt lat="49.38734" lon="1.21968">
        <ele>159</ele>
        <time>2017-02-28T14:46:01Z</time>
      </trkpt>
      <trkpt lat="49.38732" lon="1.21976">
        <ele>159</ele>
        <time>2017-02-28T14:46:01Z</time>
      </trkpt>
      <trkpt lat="49.3873" lon="1.21982">
        <ele>159</ele>
        <time>2017-02-28T14:46:01Z</time>
      </trkpt>
      <trkpt lat="49.38729" lon="1.21986">
        <ele>159</ele>
        <time>2017-02-28T14:46:17Z</time>
      </trkpt>
      <trkpt lat="49.38729" lon="1.21996">
        <ele>159</ele>
        <time>2017-02-28T14:46:17Z</time>
      </trkpt>
      <trkpt lat="49.38729" lon="1.22006">
        <ele>159</ele>
        <time>2017-02-28T14:46:17Z</time>
      </trkpt>
      <trkpt lat="49.3873" lon="1.22014">
        <ele>159</ele>
        <time>2017-02-28T14:46:17Z</time>
      </trkpt>
      <trkpt lat="49.38731" lon="1.22021">
        <ele>159</ele>
        <time>2017-02-28T14:46:33Z</time>
      </trkpt>
      <trkpt lat="49.38731" lon="1.22032">
        <ele>159</ele>
        <time>2017-02-28T14:46:33Z</time>
      </trkpt>
      <trkpt lat="49.38731" lon="1.22038">
        <ele>159</ele>
        <time>2017-02-28T14:46:33Z</time>
      </trkpt>
      <trkpt lat="49.38731" lon="1.22047">
        <ele>160</ele>
        <time>2017-02-28T14:46:33Z</time>
      </trkpt>
      <trkpt lat="49.38731" lon="1.22054">
        <ele>160</ele>
        <time>2017-02-28T14:46:49Z</time>
      </trkpt>
      <trkpt lat="49.3873" lon="1.22063">
        <ele>160</ele>
        <time>2017-02-28T14:46:49Z</time>
      </trkpt>
      <trkpt lat="49.38729" lon="1.22071">
        <ele>160</ele>
        <time>2017-02-28T14:46:49Z</time>
      </trkpt>
      <trkpt lat="49.38728" lon="1.22079">
        <ele>160</ele>
        <time>2017-02-28T14:46:49Z</time>
      </trkpt>
      <trkpt lat="49.3873" lon="1.22084">
        <ele>160</ele>
        <time>2017-02-28T14:47:05Z</time>
      </trkpt>
      <trkpt lat="49.38733" lon="1.22091">
        <ele>160</ele>
        <time>2017-02-28T14:47:05Z</time>
      </trkpt>
      <trkpt lat="49.38734" lon="1.221">
        <ele>160</ele>
        <time>2017-02-28T14:47:05Z</time>
      </trkpt>
      <trkpt lat="49.38736" lon="1.22106">
        <ele>160</ele>
        <time>2017-02-28T14:47:05Z</time>
      </trkpt>
      <trkpt lat="49.38742" lon="1.22115">
        <ele>160</ele>
        <time>2017-02-28T14:47:21Z</time>
      </trkpt>
      <trkpt lat="49.38747" lon="1.22118">
        <ele>160</ele>
        <time>2017-02-28T14:47:21Z</time>
      </trkpt>
      <trkpt lat="49.38754" lon="1.22118">
        <ele>160</ele>
        <time>2017-02-28T14:47:21Z</time>
      </trkpt>
      <trkpt lat="49.38759" lon="1.2212">
        <ele>160</ele>
        <time>2017-02-28T14:47:21Z</time>
      </trkpt>
      <trkpt lat="49.38763" lon="1.22121">
        <ele>160</ele>
        <time>2017-02-28T14:47:37Z</time>
      </trkpt>
      <trkpt lat="49.38763" lon="1.22127">
        <ele>158</ele>
        <time>2017-02-28T14:47:37Z</time>
      </trkpt>
      <trkpt lat="49.38763" lon="1.22134">
        <ele>158</ele>
        <time>2017-02-28T14:47:37Z</time>
      </trkpt>
      <trkpt lat="49.38765" lon="1.22137">
        <ele>158</ele>
        <time>2017-02-28T14:47:37Z</time>
      </trkpt>
      <trkpt lat="49.38769" lon="1.22141">
        <ele>158</ele>
        <time>2017-02-28T14:47:53Z</time>
      </trkpt>
      <trkpt lat="49.38773" lon="1.22141">
        <ele>158</ele>
        <time>2017-02-28T14:47:53Z</time>
      </trkpt>
      <trkpt lat="49.3878" lon="1.22139">
        <ele>158</ele>
        <time>2017-02-28T14:47:53Z</time>
      </trkpt>
      <trkpt lat="49.38784" lon="1.22138">
        <ele>158</ele>
        <time>2017-02-28T14:47:53Z</time>
      </trkpt>
      <trkpt lat="49.3879" lon="1.22143">
        <ele>158</ele>
        <time>2017-02-28T14:48:21Z</time>
      </trkpt>
      <trkpt lat="49.38794" lon="1.22146">
        <ele>159</ele>
        <time>2017-02-28T14:48:21Z</time>
      </trkpt>
      <trkpt lat="49.38798" lon="1.22144">
        <ele>159</ele>
        <time>2017-02-28T14:48:21Z</time>
      </trkpt>
      <trkpt lat="49.38803" lon="1.22147">
        <ele>159</ele>
        <time>2017-02-28T14:48:21Z</time>
      </trkpt>
      <trkpt lat="49.38806" lon="1.22151">
        <ele>159</ele>
        <time>2017-02-28T14:48:21Z</time>
      </trkpt>
      <trkpt lat="49.38809" lon="1.22153">
        <ele>159</ele>
        <time>2017-02-28T14:48:38Z</time>
      </trkpt>
      <trkpt lat="49.38813" lon="1.22154">
        <ele>159</ele>
        <time>2017-02-28T14:48:38Z</time>
      </trkpt>
      <trkpt lat="49.38822" lon="1.22147">
        <ele>159</ele>
        <time>2017-02-28T14:48:38Z</time>
      </trkpt>
      <trkpt lat="49.38825" lon="1.22142">
        <ele>159</ele>
        <time>2017-02-28T14:48:38Z</time>
      </trkpt>
      <trkpt lat="49.38826" lon="1.22139">
        <ele>159</ele>
        <time>2017-02-28T14:48:53Z</time>
      </trkpt>
      <trkpt lat="49.38834" lon="1.22144">
        <ele>159</ele>
        <time>2017-02-28T14:48:53Z</time>
      </trkpt>
      <trkpt lat="49.38842" lon="1.22145">
        <ele>159</ele>
        <time>2017-02-28T14:48:53Z</time>
      </trkpt>
      <trkpt lat="49.38844" lon="1.22143">
        <ele>159</ele>
        <time>2017-02-28T14:48:53Z</time>
      </trkpt>
      <trkpt lat="49.38847" lon="1.22145">
        <ele>159</ele>
        <time>2017-02-28T14:49:09Z</time>
      </trkpt>
      <trkpt lat="49.38852" lon="1.22143">
        <ele>159</ele>
        <time>2017-02-28T14:49:09Z</time>
      </trkpt>
      <trkpt lat="49.38858" lon="1.22145">
        <ele>159</ele>
        <time>2017-02-28T14:49:09Z</time>
      </trkpt>
      <trkpt lat="49.38865" lon="1.22146">
        <ele>159</ele>
        <time>2017-02-28T14:49:09Z</time>
      </trkpt>
      <trkpt lat="49.3887" lon="1.22152">
        <ele>159</ele>
        <time>2017-02-28T14:49:25Z</time>
      </trkpt>
      <trkpt lat="49.38874" lon="1.22156">
        <ele>159</ele>
        <time>2017-02-28T14:49:25Z</time>
      </trkpt>
      <trkpt lat="49.38877" lon="1.22159">
        <ele>159</ele>
        <time>2017-02-28T14:49:25Z</time>
      </trkpt>
      <trkpt lat="49.3888" lon="1.22165">
        <ele>159</ele>
        <time>2017-02-28T14:49:25Z</time>
      </trkpt>
      <trkpt lat="49.38882" lon="1.22171">
        <ele>159</ele>
        <time>2017-02-28T14:49:42Z</time>
      </trkpt>
      <trkpt lat="49.38884" lon="1.22177">
        <ele>159</ele>
        <time>2017-02-28T14:49:42Z</time>
      </trkpt>
      <trkpt lat="49.38886" lon="1.22185">
        <ele>159</ele>
        <time>2017-02-28T14:49:42Z</time>
      </trkpt>
      <trkpt lat="49.38887" lon="1.22191">
        <ele>159</ele>
        <time>2017-02-28T14:49:42Z</time>
      </trkpt>
      <trkpt lat="49.38889" lon="1.22199">
        <ele>159</ele>
        <time>2017-02-28T14:49:57Z</time>
      </trkpt>
      <trkpt lat="49.3889" lon="1.22205">
        <ele>159</ele>
        <time>2017-02-28T14:49:57Z</time>
      </trkpt>
      <trkpt lat="49.38891" lon="1.22212">
        <ele>158</ele>
        <time>2017-02-28T14:49:57Z</time>
      </trkpt>
      <trkpt lat="49.38893" lon="1.22222">
        <ele>158</ele>
        <time>2017-02-28T14:49:57Z</time>
      </trkpt>
      <trkpt lat="49.38894" lon="1.22227">
        <ele>158</ele>
        <time>2017-02-28T14:50:13Z</time>
      </trkpt>
      <trkpt lat="49.38896" lon="1.22238">
        <ele>158</ele>
        <time>2017-02-28T14:50:13Z</time>
      </trkpt>
      <trkpt lat="49.38896" lon="1.22246">
        <ele>158</ele>
        <time>2017-02-28T14:50:13Z</time>
      </trkpt>
      <trkpt lat="49.38896" lon="1.22251">
        <ele>158</ele>
        <time>2017-02-28T14:50:13Z</time>
      </trkpt>
      <trkpt lat="49.38896" lon="1.22255">
        <ele>158</ele>
        <time>2017-02-28T14:50:29Z</time>
      </trkpt>
      <trkpt lat="49.38895" lon="1.22263">
        <ele>158</ele>
        <time>2017-02-28T14:50:29Z</time>
      </trkpt>
      <trkpt lat="49.38897" lon="1.22272">
        <ele>158</ele>
        <time>2017-02-28T14:50:29Z</time>
      </trkpt>
      <trkpt lat="49.38897" lon="1.22276">
        <ele>158</ele>
        <time>2017-02-28T14:50:29Z</time>
      </trkpt>
      <trkpt lat="49.38899" lon="1.22285">
        <ele>158</ele>
        <time>2017-02-28T14:50:45Z</time>
      </trkpt>
      <trkpt lat="49.38902" lon="1.22291">
        <ele>158</ele>
        <time>2017-02-28T14:50:45Z</time>
      </trkpt>
      <trkpt lat="49.38902" lon="1.22296">
        <ele>155</ele>
        <time>2017-02-28T14:50:45Z</time>
      </trkpt>
      <trkpt lat="49.38903" lon="1.22305">
        <ele>155</ele>
        <time>2017-02-28T14:50:45Z</time>
      </trkpt>
      <trkpt lat="49.38904" lon="1.22314">
        <ele>155</ele>
        <time>2017-02-28T14:51:01Z</time>
      </trkpt>
      <trkpt lat="49.38904" lon="1.22321">
        <ele>155</ele>
        <time>2017-02-28T14:51:01Z</time>
      </trkpt>
      <trkpt lat="49.38905" lon="1.2233">
        <ele>155</ele>
        <time>2017-02-28T14:51:01Z</time>
      </trkpt>
      <trkpt lat="49.38908" lon="1.22338">
        <ele>155</ele>
        <time>2017-02-28T14:51:01Z</time>
      </trkpt>
      <trkpt lat="49.38911" lon="1.22344">
        <ele>155</ele>
        <time>2017-02-28T14:51:17Z</time>
      </trkpt>
      <trkpt lat="49.38915" lon="1.22353">
        <ele>155</ele>
        <time>2017-02-28T14:51:17Z</time>
      </trkpt>
      <trkpt lat="49.38916" lon="1.22359">
        <ele>155</ele>
        <time>2017-02-28T14:51:17Z</time>
      </trkpt>
      <trkpt lat="49.38917" lon="1.22368">
        <ele>155</ele>
        <time>2017-02-28T14:51:17Z</time>
      </trkpt>
      <trkpt lat="49.38919" lon="1.22373">
        <ele>155</ele>
        <time>2017-02-28T14:51:33Z</time>
      </trkpt>
      <trkpt lat="49.38921" lon="1.22384">
        <ele>156</ele>
        <time>2017-02-28T14:51:33Z</time>
      </trkpt>
      <trkpt lat="49.38921" lon="1.22391">
        <ele>156</ele>
        <time>2017-02-28T14:51:33Z</time>
      </trkpt>
      <trkpt lat="49.38922" lon="1.22396">
        <ele>156</ele>
        <time>2017-02-28T14:51:33Z</time>
      </trkpt>
      <trkpt lat="49.38922" lon="1.22401">
        <ele>156</ele>
        <time>2017-02-28T14:51:49Z</time>
      </trkpt>
      <trkpt lat="49.38923" lon="1.22409">
        <ele>156</ele>
        <time>2017-02-28T14:51:49Z</time>
      </trkpt>
      <trkpt lat="49.38926" lon="1.22419">
        <ele>156</ele>
        <time>2017-02-28T14:51:49Z</time>
      </trkpt>
      <trkpt lat="49.38927" lon="1.22425">
        <ele>156</ele>
        <time>2017-02-28T14:51:49Z</time>
      </trkpt>
      <trkpt lat="49.38929" lon="1.22434">
        <ele>156</ele>
        <time>2017-02-28T14:52:05Z</time>
      </trkpt>
      <trkpt lat="49.3893" lon="1.22441">
        <ele>156</ele>
        <time>2017-02-28T14:52:05Z</time>
      </trkpt>
      <trkpt lat="49.38931" lon="1.22446">
        <ele>156</ele>
        <time>2017-02-28T14:52:05Z</time>
      </trkpt>
      <trkpt lat="49.38934" lon="1.22455">
        <ele>156</ele>
        <time>2017-02-28T14:52:05Z</time>
      </trkpt>
      <trkpt lat="49.38936" lon="1.22459">
        <ele>158</ele>
        <time>2017-02-28T14:52:21Z</time>
      </trkpt>
      <trkpt lat="49.38941" lon="1.22466">
        <ele>158</ele>
        <time>2017-02-28T14:52:21Z</time>
      </trkpt>
      <trkpt lat="49.38944" lon="1.22471">
        <ele>158</ele>
        <time>2017-02-28T14:52:21Z</time>
      </trkpt>
      <trkpt lat="49.38947" lon="1.22478">
        <ele>158</ele>
        <time>2017-02-28T14:52:21Z</time>
      </trkpt>
      <trkpt lat="49.38949" lon="1.22485">
        <ele>158</ele>
        <time>2017-02-28T14:52:37Z</time>
      </trkpt>
      <trkpt lat="49.38949" lon="1.2249">
        <ele>158</ele>
        <time>2017-02-28T14:52:37Z</time>
      </trkpt>
      <trkpt lat="49.38952" lon="1.22498">
        <ele>158</ele>
        <time>2017-02-28T14:52:37Z</time>
      </trkpt>
      <trkpt lat="49.38955" lon="1.22503">
        <ele>158</ele>
        <time>2017-02-28T14:52:37Z</time>
      </trkpt>
      <trkpt lat="49.38962" lon="1.22509">
        <ele>157</ele>
        <time>2017-02-28T14:52:53Z</time>
      </trkpt>
      <trkpt lat="49.38966" lon="1.22513">
        <ele>157</ele>
        <time>2017-02-28T14:52:53Z</time>
      </trkpt>
      <trkpt lat="49.3897" lon="1.22516">
        <ele>157</ele>
        <time>2017-02-28T14:52:53Z</time>
      </trkpt>
      <trkpt lat="49.38975" lon="1.2252">
        <ele>157</ele>
        <time>2017-02-28T14:52:53Z</time>
      </trkpt>
      <trkpt lat="49.38979" lon="1.22525">
        <ele>157</ele>
        <time>2017-02-28T14:53:09Z</time>
      </trkpt>
      <trkpt lat="49.38984" lon="1.22531">
        <ele>157</ele>
        <time>2017-02-28T14:53:09Z</time>
      </trkpt>
      <trkpt lat="49.38987" lon="1.22533">
        <ele>157</ele>
        <time>2017-02-28T14:53:09Z</time>
      </trkpt>
      <trkpt lat="49.38992" lon="1.22535">
        <ele>157</ele>
        <time>2017-02-28T14:53:09Z</time>
      </trkpt>
      <trkpt lat="49.38997" lon="1.2254">
        <ele>157</ele>
        <time>2017-02-28T14:53:25Z</time>
      </trkpt>
      <trkpt lat="49.39001" lon="1.22545">
        <ele>158</ele>
        <time>2017-02-28T14:53:25Z</time>
      </trkpt>
      <trkpt lat="49.39004" lon="1.22551">
        <ele>158</ele>
        <time>2017-02-28T14:53:25Z</time>
      </trkpt>
      <trkpt lat="49.39006" lon="1.22555">
        <ele>158</ele>
        <time>2017-02-28T14:53:25Z</time>
      </trkpt>
      <trkpt lat="49.3901" lon="1.2256">
        <ele>158</ele>
        <time>2017-02-28T14:53:41Z</time>
      </trkpt>
      <trkpt lat="49.39012" lon="1.22566">
        <ele>158</ele>
        <time>2017-02-28T14:53:41Z</time>
      </trkpt>
      <trkpt lat="49.39014" lon="1.22573">
        <ele>158</ele>
        <time>2017-02-28T14:53:41Z</time>
      </trkpt>
      <trkpt lat="49.39016" lon="1.22579">
        <ele>158</ele>
        <time>2017-02-28T14:53:41Z</time>
      </trkpt>
      <trkpt lat="49.39023" lon="1.22581">
        <ele>158</ele>
        <time>2017-02-28T14:53:57Z</time>
      </trkpt>
      <trkpt lat="49.39029" lon="1.22584">
        <ele>158</ele>
        <time>2017-02-28T14:53:57Z</time>
      </trkpt>
      <trkpt lat="49.39032" lon="1.22588">
        <ele>158</ele>
        <time>2017-02-28T14:53:57Z</time>
      </trkpt>
      <trkpt lat="49.39036" lon="1.22591">
        <ele>158</ele>
        <time>2017-02-28T14:53:57Z</time>
      </trkpt>
      <trkpt lat="49.3904" lon="1.22594">
        <ele>158</ele>
        <time>2017-02-28T14:54:13Z</time>
      </trkpt>
      <trkpt lat="49.39043" lon="1.22596">
        <ele>154</ele>
        <time>2017-02-28T14:54:13Z</time>
      </trkpt>
      <trkpt lat="49.39048" lon="1.22599">
        <ele>154</ele>
        <time>2017-02-28T14:54:13Z</time>
      </trkpt>
      <trkpt lat="49.39052" lon="1.22602">
        <ele>154</ele>
        <time>2017-02-28T14:54:13Z</time>
      </trkpt>
      <trkpt lat="49.39057" lon="1.22607">
        <ele>154</ele>
        <time>2017-02-28T14:54:29Z</time>
      </trkpt>
      <trkpt lat="49.39066" lon="1.22611">
        <ele>154</ele>
        <time>2017-02-28T14:54:29Z</time>
      </trkpt>
      <trkpt lat="49.39071" lon="1.22611">
        <ele>154</ele>
        <time>2017-02-28T14:54:29Z</time>
      </trkpt>
      <trkpt lat="49.39076" lon="1.22613">
        <ele>154</ele>
        <time>2017-02-28T14:54:29Z</time>
      </trkpt>
      <trkpt lat="49.39077" lon="1.22618">
        <ele>154</ele>
        <time>2017-02-28T14:54:45Z</time>
      </trkpt>
      <trkpt lat="49.3908" lon="1.22623">
        <ele>154</ele>
        <time>2017-02-28T14:54:45Z</time>
      </trkpt>
      <trkpt lat="49.39083" lon="1.22627">
        <ele>155</ele>
        <time>2017-02-28T14:54:45Z</time>
      </trkpt>
      <trkpt lat="49.39084" lon="1.22629">
        <ele>155</ele>
        <time>2017-02-28T14:54:45Z</time>
      </trkpt>
      <trkpt lat="49.39087" lon="1.22631">
        <ele>155</ele>
        <time>2017-02-28T14:55:01Z</time>
      </trkpt>
      <trkpt lat="49.39089" lon="1.22635">
        <ele>155</ele>
        <time>2017-02-28T14:55:01Z</time>
      </trkpt>
      <trkpt lat="49.39084" lon="1.22625">
        <ele>155</ele>
        <time>2017-02-28T14:55:01Z</time>
      </trkpt>
      <trkpt lat="49.39087" lon="1.22614">
        <ele>154</ele>
        <time>2017-02-28T14:55:01Z</time>
      </trkpt>
      <trkpt lat="49.3909" lon="1.22606">
        <ele>154</ele>
        <time>2017-02-28T14:55:18Z</time>
      </trkpt>
      <trkpt lat="49.3909" lon="1.22602">
        <ele>154</ele>
        <time>2017-02-28T14:55:18Z</time>
      </trkpt>
      <trkpt lat="49.39096" lon="1.22601">
        <ele>154</ele>
        <time>2017-02-28T14:55:18Z</time>
      </trkpt>
      <trkpt lat="49.39095" lon="1.22594">
        <ele>154</ele>
        <time>2017-02-28T14:55:18Z</time>
      </trkpt>
      <trkpt lat="49.39101" lon="1.22586">
        <ele>154</ele>
        <time>2017-02-28T14:55:33Z</time>
      </trkpt>
      <trkpt lat="49.39103" lon="1.22578">
        <ele>154</ele>
        <time>2017-02-28T14:55:33Z</time>
      </trkpt>
      <trkpt lat="49.39106" lon="1.22575">
        <ele>154</ele>
        <time>2017-02-28T14:55:33Z</time>
      </trkpt>
      <trkpt lat="49.39108" lon="1.22571">
        <ele>154</ele>
        <time>2017-02-28T14:55:33Z</time>
      </trkpt>
      <trkpt lat="49.39114" lon="1.22563">
        <ele>154</ele>
        <time>2017-02-28T14:55:49Z</time>
      </trkpt>
      <trkpt lat="49.39116" lon="1.22559">
        <ele>154</ele>
        <time>2017-02-28T14:55:49Z</time>
      </trkpt>
      <trkpt lat="49.3912" lon="1.22553">
        <ele>154</ele>
        <time>2017-02-28T14:55:49Z</time>
      </trkpt>
      <trkpt lat="49.39124" lon="1.22547">
        <ele>154</ele>
        <time>2017-02-28T14:55:49Z</time>
      </trkpt>
      <trkpt lat="49.39128" lon="1.2254">
        <ele>152</ele>
        <time>2017-02-28T14:56:05Z</time>
      </trkpt>
      <trkpt lat="49.39131" lon="1.22533">
        <ele>152</ele>
        <time>2017-02-28T14:56:05Z</time>
      </trkpt>
      <trkpt lat="49.39139" lon="1.22526">
        <ele>152</ele>
        <time>2017-02-28T14:56:05Z</time>
      </trkpt>
      <trkpt lat="49.39143" lon="1.22522">
        <ele>152</ele>
        <time>2017-02-28T14:56:05Z</time>
      </trkpt>
      <trkpt lat="49.39143" lon="1.22517">
        <ele>152</ele>
        <time>2017-02-28T14:56:22Z</time>
      </trkpt>
      <trkpt lat="49.39143" lon="1.22513">
        <ele>152</ele>
        <time>2017-02-28T14:56:22Z</time>
      </trkpt>
      <trkpt lat="49.39142" lon="1.22504">
        <ele>152</ele>
        <time>2017-02-28T14:56:22Z</time>
      </trkpt>
      <trkpt lat="49.39141" lon="1.22496">
        <ele>152</ele>
        <time>2017-02-28T14:56:22Z</time>
      </trkpt>
      <trkpt lat="49.39139" lon="1.2249">
        <ele>152</ele>
        <time>2017-02-28T14:56:37Z</time>
      </trkpt>
      <trkpt lat="49.3914" lon="1.2248">
        <ele>152</ele>
        <time>2017-02-28T14:56:37Z</time>
      </trkpt>
      <trkpt lat="49.39143" lon="1.22475">
        <ele>152</ele>
        <time>2017-02-28T14:56:37Z</time>
      </trkpt>
      <trkpt lat="49.39147" lon="1.22472">
        <ele>152</ele>
        <time>2017-02-28T14:56:37Z</time>
      </trkpt>
      <trkpt lat="49.39159" lon="1.22469">
        <ele>152</ele>
        <time>2017-02-28T14:56:53Z</time>
      </trkpt>
      <trkpt lat="49.39176" lon="1.22471">
        <ele>152</ele>
        <time>2017-02-28T14:56:53Z</time>
      </trkpt>
      <trkpt lat="49.39182" lon="1.22469">
        <ele>152</ele>
        <time>2017-02-28T14:56:53Z</time>
      </trkpt>
      <trkpt lat="49.39189" lon="1.22461">
        <ele>152</ele>
        <time>2017-02-28T14:56:53Z</time>
      </trkpt>
      <trkpt lat="49.39192" lon="1.22456">
        <ele>152</ele>
        <time>2017-02-28T14:57:09Z</time>
      </trkpt>
      <trkpt lat="49.39196" lon="1.22451">
        <ele>152</ele>
        <time>2017-02-28T14:57:09Z</time>
      </trkpt>
      <trkpt lat="49.39201" lon="1.22445">
        <ele>152</ele>
        <time>2017-02-28T14:57:09Z</time>
      </trkpt>
      <trkpt lat="49.39207" lon="1.2244">
        <ele>152</ele>
        <time>2017-02-28T14:57:09Z</time>
      </trkpt>
      <trkpt lat="49.39213" lon="1.22434">
        <ele>155</ele>
        <time>2017-02-28T14:57:26Z</time>
      </trkpt>
      <trkpt lat="49.39217" lon="1.22429">
        <ele>155</ele>
        <time>2017-02-28T14:57:26Z</time>
      </trkpt>
      <trkpt lat="49.3922" lon="1.22422">
        <ele>155</ele>
        <time>2017-02-28T14:57:26Z</time>
      </trkpt>
      <trkpt lat="49.3922" lon="1.22418">
        <ele>155</ele>
        <time>2017-02-28T14:57:26Z</time>
      </trkpt>
      <trkpt lat="49.3922" lon="1.2242">
        <ele>155</ele>
        <time>2017-02-28T14:57:57Z</time>
      </trkpt>
      <trkpt lat="49.3922" lon="1.2242">
        <ele>155</ele>
        <time>2017-02-28T14:57:57Z</time>
      </trkpt>
      <trkpt lat="49.3922" lon="1.2242">
        <ele>155</ele>
        <time>2017-02-28T14:57:57Z</time>
      </trkpt>
      <trkpt lat="49.39225" lon="1.22418">
        <ele>155</ele>
        <time>2017-02-28T14:57:57Z</time>
      </trkpt>
      <trkpt lat="49.39229" lon="1.22415">
        <ele>155</ele>
        <time>2017-02-28T14:57:57Z</time>
      </trkpt>
      <trkpt lat="49.39234" lon="1.22408">
        <ele>155</ele>
        <time>2017-02-28T14:58:13Z</time>
      </trkpt>
      <trkpt lat="49.39236" lon="1.22404">
        <ele>155</ele>
        <time>2017-02-28T14:58:13Z</time>
      </trkpt>
      <trkpt lat="49.3924" lon="1.22397">
        <ele>155</ele>
        <time>2017-02-28T14:58:13Z</time>
      </trkpt>
      <trkpt lat="49.39243" lon="1.22394">
        <ele>155</ele>
        <time>2017-02-28T14:58:13Z</time>
      </trkpt>
      <trkpt lat="49.39245" lon="1.22389">
        <ele>155</ele>
        <time>2017-02-28T14:58:30Z</time>
      </trkpt>
      <trkpt lat="49.39247" lon="1.22384">
        <ele>155</ele>
        <time>2017-02-28T14:58:30Z</time>
      </trkpt>
      <trkpt lat="49.39248" lon="1.22379">
        <ele>155</ele>
        <time>2017-02-28T14:58:30Z</time>
      </trkpt>
      <trkpt lat="49.39248" lon="1.22374">
        <ele>156</ele>
        <time>2017-02-28T14:58:30Z</time>
      </trkpt>
      <trkpt lat="49.39252" lon="1.22369">
        <ele>156</ele>
        <time>2017-02-28T14:58:46Z</time>
      </trkpt>
      <trkpt lat="49.39257" lon="1.22363">
        <ele>156</ele>
        <time>2017-02-28T14:58:46Z</time>
      </trkpt>
      <trkpt lat="49.3926" lon="1.22359">
        <ele>156</ele>
        <time>2017-02-28T14:58:46Z</time>
      </trkpt>
      <trkpt lat="49.39262" lon="1.22352">
        <ele>156</ele>
        <time>2017-02-28T14:58:46Z</time>
      </trkpt>
      <trkpt lat="49.39264" lon="1.22348">
        <ele>156</ele>
        <time>2017-02-28T14:59:01Z</time>
      </trkpt>
      <trkpt lat="49.39268" lon="1.22341">
        <ele>156</ele>
        <time>2017-02-28T14:59:01Z</time>
      </trkpt>
      <trkpt lat="49.3927" lon="1.22334">
        <ele>156</ele>
        <time>2017-02-28T14:59:01Z</time>
      </trkpt>
      <trkpt lat="49.39272" lon="1.2233">
        <ele>156</ele>
        <time>2017-02-28T14:59:01Z</time>
      </trkpt>
      <trkpt lat="49.39272" lon="1.22323">
        <ele>156</ele>
        <time>2017-02-28T14:59:17Z</time>
      </trkpt>
      <trkpt lat="49.39272" lon="1.22315">
        <ele>156</ele>
        <time>2017-02-28T14:59:17Z</time>
      </trkpt>
      <trkpt lat="49.39274" lon="1.2231">
        <ele>156</ele>
        <time>2017-02-28T14:59:17Z</time>
      </trkpt>
      <trkpt lat="49.39275" lon="1.22304">
        <ele>156</ele>
        <time>2017-02-28T14:59:17Z</time>
      </trkpt>
      <trkpt lat="49.39276" lon="1.22298">
        <ele>156</ele>
        <time>2017-02-28T14:59:34Z</time>
      </trkpt>
      <trkpt lat="49.39278" lon="1.22291">
        <ele>157</ele>
        <time>2017-02-28T14:59:34Z</time>
      </trkpt>
      <trkpt lat="49.39284" lon="1.22284">
        <ele>157</ele>
        <time>2017-02-28T14:59:34Z</time>
      </trkpt>
      <trkpt lat="49.39286" lon="1.2228">
        <ele>157</ele>
        <time>2017-02-28T14:59:34Z</time>
      </trkpt>
      <trkpt lat="49.39286" lon="1.22272">
        <ele>157</ele>
        <time>2017-02-28T14:59:49Z</time>
      </trkpt>
      <trkpt lat="49.39288" lon="1.22266">
        <ele>157</ele>
        <time>2017-02-28T14:59:49Z</time>
      </trkpt>
      <trkpt lat="49.3929" lon="1.22261">
        <ele>157</ele>
        <time>2017-02-28T14:59:49Z</time>
      </trkpt>
      <trkpt lat="49.39292" lon="1.2225">
        <ele>158</ele>
        <time>2017-02-28T14:59:49Z</time>
      </trkpt>
      <trkpt lat="49.39293" lon="1.22242">
        <ele>158</ele>
        <time>2017-02-28T15:00:05Z</time>
      </trkpt>
      <trkpt lat="49.39297" lon="1.22232">
        <ele>158</ele>
        <time>2017-02-28T15:00:05Z</time>
      </trkpt>
      <trkpt lat="49.39301" lon="1.22226">
        <ele>158</ele>
        <time>2017-02-28T15:00:05Z</time>
      </trkpt>
      <trkpt lat="49.39304" lon="1.22217">
        <ele>158</ele>
        <time>2017-02-28T15:00:05Z</time>
      </trkpt>
      <trkpt lat="49.39311" lon="1.22208">
        <ele>158</ele>
        <time>2017-02-28T15:00:21Z</time>
      </trkpt>
      <trkpt lat="49.39317" lon="1.22202">
        <ele>158</ele>
        <time>2017-02-28T15:00:21Z</time>
      </trkpt>
      <trkpt lat="49.39323" lon="1.22203">
        <ele>158</ele>
        <time>2017-02-28T15:00:21Z</time>
      </trkpt>
      <trkpt lat="49.39328" lon="1.22203">
        <ele>158</ele>
        <time>2017-02-28T15:00:21Z</time>
      </trkpt>
      <trkpt lat="49.39336" lon="1.2221">
        <ele>158</ele>
        <time>2017-02-28T15:00:53Z</time>
      </trkpt>
      <trkpt lat="49.39336" lon="1.2221">
        <ele>158</ele>
        <time>2017-02-28T15:00:53Z</time>
      </trkpt>
      <trkpt lat="49.39336" lon="1.2221">
        <ele>158</ele>
        <time>2017-02-28T15:00:53Z</time>
      </trkpt>
      <trkpt lat="49.39336" lon="1.22211">
        <ele>158</ele>
        <time>2017-02-28T15:00:53Z</time>
      </trkpt>
      <trkpt lat="49.39337" lon="1.22211">
        <ele>158</ele>
        <time>2017-02-28T15:00:53Z</time>
      </trkpt>
      <trkpt lat="49.39342" lon="1.22216">
        <ele>158</ele>
        <time>2017-02-28T15:01:09Z</time>
      </trkpt>
      <trkpt lat="49.39345" lon="1.2222">
        <ele>158</ele>
        <time>2017-02-28T15:01:09Z</time>
      </trkpt>
      <trkpt lat="49.39349" lon="1.22223">
        <ele>158</ele>
        <time>2017-02-28T15:01:09Z</time>
      </trkpt>
      <trkpt lat="49.3935" lon="1.22225">
        <ele>158</ele>
        <time>2017-02-28T15:01:09Z</time>
      </trkpt>
      <trkpt lat="49.39353" lon="1.22226">
        <ele>158</ele>
        <time>2017-02-28T15:01:29Z</time>
      </trkpt>
      <trkpt lat="49.39356" lon="1.22228">
        <ele>158</ele>
        <time>2017-02-28T15:01:29Z</time>
      </trkpt>
      <trkpt lat="49.39356" lon="1.22232">
        <ele>158</ele>
        <time>2017-02-28T15:01:29Z</time>
      </trkpt>
      <trkpt lat="49.39358" lon="1.22237">
        <ele>158</ele>
        <time>2017-02-28T15:01:29Z</time>
      </trkpt>
      <trkpt lat="49.39365" lon="1.22239">
        <ele>158</ele>
        <time>2017-02-28T15:01:29Z</time>
      </trkpt>
      <trkpt lat="49.39368" lon="1.22242">
        <ele>158</ele>
        <time>2017-02-28T15:01:45Z</time>
      </trkpt>
      <trkpt lat="49.39369" lon="1.22247">
        <ele>158</ele>
        <time>2017-02-28T15:01:45Z</time>
      </trkpt>
      <trkpt lat="49.39372" lon="1.22252">
        <ele>158</ele>
        <time>2017-02-28T15:01:45Z</time>
      </trkpt>
      <trkpt lat="49.39376" lon="1.22252">
        <ele>159</ele>
        <time>2017-02-28T15:01:45Z</time>
      </trkpt>
      <trkpt lat="49.39377" lon="1.22256">
        <ele>159</ele>
        <time>2017-02-28T15:02:05Z</time>
      </trkpt>
      <trkpt lat="49.39376" lon="1.2226">
        <ele>159</ele>
        <time>2017-02-28T15:02:05Z</time>
      </trkpt>
      <trkpt lat="49.3938" lon="1.22263">
        <ele>159</ele>
        <time>2017-02-28T15:02:05Z</time>
      </trkpt>
      <trkpt lat="49.39381" lon="1.22265">
        <ele>159</ele>
        <time>2017-02-28T15:02:05Z</time>
      </trkpt>
      <trkpt lat="49.39382" lon="1.22268">
        <ele>159</ele>
        <time>2017-02-28T15:02:05Z</time>
      </trkpt>
      <trkpt lat="49.39388" lon="1.22267">
        <ele>159</ele>
        <time>2017-02-28T15:02:21Z</time>
      </trkpt>
      <trkpt lat="49.39396" lon="1.22268">
        <ele>159</ele>
        <time>2017-02-28T15:02:21Z</time>
      </trkpt>
      <trkpt lat="49.39407" lon="1.2227">
        <ele>159</ele>
        <time>2017-02-28T15:02:21Z</time>
      </trkpt>
      <trkpt lat="49.39411" lon="1.22272">
        <ele>159</ele>
        <time>2017-02-28T15:02:21Z</time>
      </trkpt>
      <trkpt lat="49.39413" lon="1.2227">
        <ele>159</ele>
        <time>2017-02-28T15:02:41Z</time>
      </trkpt>
      <trkpt lat="49.39414" lon="1.2227">
        <ele>159</ele>
        <time>2017-02-28T15:02:41Z</time>
      </trkpt>
      <trkpt lat="49.39417" lon="1.22274">
        <ele>159</ele>
        <time>2017-02-28T15:02:41Z</time>
      </trkpt>
      <trkpt lat="49.39419" lon="1.22278">
        <ele>159</ele>
        <time>2017-02-28T15:02:41Z</time>
      </trkpt>
      <trkpt lat="49.39421" lon="1.2228">
        <ele>159</ele>
        <time>2017-02-28T15:02:41Z</time>
      </trkpt>
      <trkpt lat="49.39422" lon="1.22279">
        <ele>159</ele>
        <time>2017-02-28T15:03:05Z</time>
      </trkpt>
      <trkpt lat="49.39422" lon="1.22279">
        <ele>159</ele>
        <time>2017-02-28T15:03:05Z</time>
      </trkpt>
      <trkpt lat="49.39424" lon="1.22275">
        <ele>159</ele>
        <time>2017-02-28T15:03:05Z</time>
      </trkpt>
      <trkpt lat="49.39427" lon="1.22268">
        <ele>159</ele>
        <time>2017-02-28T15:03:05Z</time>
      </trkpt>
      <trkpt lat="49.3943" lon="1.22267">
        <ele>159</ele>
        <time>2017-02-28T15:03:05Z</time>
      </trkpt>
      <trkpt lat="49.39437" lon="1.22262">
        <ele>159</ele>
        <time>2017-02-28T15:03:21Z</time>
      </trkpt>
      <trkpt lat="49.39439" lon="1.22255">
        <ele>159</ele>
        <time>2017-02-28T15:03:21Z</time>
      </trkpt>
      <trkpt lat="49.3944" lon="1.2225">
        <ele>159</ele>
        <time>2017-02-28T15:03:21Z</time>
      </trkpt>
      <trkpt lat="49.3944" lon="1.22244">
        <ele>159</ele>
        <time>2017-02-28T15:03:21Z</time>
      </trkpt>
      <trkpt lat="49.3944" lon="1.22238">
        <ele>159</ele>
        <time>2017-02-28T15:03:38Z</time>
      </trkpt>
      <trkpt lat="49.3944" lon="1.22234">
        <ele>159</ele>
        <time>2017-02-28T15:03:38Z</time>
      </trkpt>
      <trkpt lat="49.3944" lon="1.22224">
        <ele>159</ele>
        <time>2017-02-28T15:03:38Z</time>
      </trkpt>
      <trkpt lat="49.3944" lon="1.2222">
        <ele>159</ele>
        <time>2017-02-28T15:03:38Z</time>
      </trkpt>
      <trkpt lat="49.3944" lon="1.22215">
        <ele>159</ele>
        <time>2017-02-28T15:03:53Z</time>
      </trkpt>
      <trkpt lat="49.39441" lon="1.22211">
        <ele>159</ele>
        <time>2017-02-28T15:03:53Z</time>
      </trkpt>
      <trkpt lat="49.39442" lon="1.22206">
        <ele>157</ele>
        <time>2017-02-28T15:03:53Z</time>
      </trkpt>
      <trkpt lat="49.39444" lon="1.22201">
        <ele>157</ele>
        <time>2017-02-28T15:03:53Z</time>
      </trkpt>
      <trkpt lat="49.39446" lon="1.22196">
        <ele>157</ele>
        <time>2017-02-28T15:04:10Z</time>
      </trkpt>
      <trkpt lat="49.39447" lon="1.22191">
        <ele>157</ele>
        <time>2017-02-28T15:04:10Z</time>
      </trkpt>
      <trkpt lat="49.39448" lon="1.22187">
        <ele>157</ele>
        <time>2017-02-28T15:04:10Z</time>
      </trkpt>
      <trkpt lat="49.39448" lon="1.22182">
        <ele>157</ele>
        <time>2017-02-28T15:04:10Z</time>
      </trkpt>
      <trkpt lat="49.39449" lon="1.22174">
        <ele>157</ele>
        <time>2017-02-28T15:04:25Z</time>
      </trkpt>
      <trkpt lat="49.39451" lon="1.22171">
        <ele>157</ele>
        <time>2017-02-28T15:04:25Z</time>
      </trkpt>
      <trkpt lat="49.39452" lon="1.22165">
        <ele>157</ele>
        <time>2017-02-28T15:04:25Z</time>
      </trkpt>
      <trkpt lat="49.39454" lon="1.22161">
        <ele>157</ele>
        <time>2017-02-28T15:04:25Z</time>
      </trkpt>
      <trkpt lat="49.39458" lon="1.22156">
        <ele>157</ele>
        <time>2017-02-28T15:04:41Z</time>
      </trkpt>
      <trkpt lat="49.39459" lon="1.22152">
        <ele>158</ele>
        <time>2017-02-28T15:04:41Z</time>
      </trkpt>
      <trkpt lat="49.39461" lon="1.22146">
        <ele>158</ele>
        <time>2017-02-28T15:04:41Z</time>
      </trkpt>
      <trkpt lat="49.39462" lon="1.22138">
        <ele>158</ele>
        <time>2017-02-28T15:04:41Z</time>
      </trkpt>
      <trkpt lat="49.39464" lon="1.22132">
        <ele>158</ele>
        <time>2017-02-28T15:04:57Z</time>
      </trkpt>
      <trkpt lat="49.39466" lon="1.22125">
        <ele>158</ele>
        <time>2017-02-28T15:04:57Z</time>
      </trkpt>
      <trkpt lat="49.39468" lon="1.22119">
        <ele>157</ele>
        <time>2017-02-28T15:04:57Z</time>
      </trkpt>
      <trkpt lat="49.39469" lon="1.22113">
        <ele>157</ele>
        <time>2017-02-28T15:04:57Z</time>
      </trkpt>
      <trkpt lat="49.39469" lon="1.22108">
        <ele>157</ele>
        <time>2017-02-28T15:05:13Z</time>
      </trkpt>
      <trkpt lat="49.39472" lon="1.22101">
        <ele>157</ele>
        <time>2017-02-28T15:05:13Z</time>
      </trkpt>
      <trkpt lat="49.39474" lon="1.22096">
        <ele>157</ele>
        <time>2017-02-28T15:05:13Z</time>
      </trkpt>
      <trkpt lat="49.39474" lon="1.22092">
        <ele>157</ele>
        <time>2017-02-28T15:05:13Z</time>
      </trkpt>
      <trkpt lat="49.39476" lon="1.22085">
        <ele>157</ele>
        <time>2017-02-28T15:05:29Z</time>
      </trkpt>
      <trkpt lat="49.39479" lon="1.2208">
        <ele>157</ele>
        <time>2017-02-28T15:05:29Z</time>
      </trkpt>
      <trkpt lat="49.39479" lon="1.22076">
        <ele>157</ele>
        <time>2017-02-28T15:05:29Z</time>
      </trkpt>
      <trkpt lat="49.39481" lon="1.2207">
        <ele>157</ele>
        <time>2017-02-28T15:05:29Z</time>
      </trkpt>
      <trkpt lat="49.39483" lon="1.22061">
        <ele>157</ele>
        <time>2017-02-28T15:05:45Z</time>
      </trkpt>
      <trkpt lat="49.39484" lon="1.22057">
        <ele>157</ele>
        <time>2017-02-28T15:05:45Z</time>
      </trkpt>
      <trkpt lat="49.39486" lon="1.2205">
        <ele>157</ele>
        <time>2017-02-28T15:05:45Z</time>
      </trkpt>
      <trkpt lat="49.39488" lon="1.2204">
        <ele>155</ele>
        <time>2017-02-28T15:05:45Z</time>
      </trkpt>
      <trkpt lat="49.39488" lon="1.22036">
        <ele>155</ele>
        <time>2017-02-28T15:06:01Z</time>
      </trkpt>
      <trkpt lat="49.3949" lon="1.22029">
        <ele>155</ele>
        <time>2017-02-28T15:06:01Z</time>
      </trkpt>
      <trkpt lat="49.39492" lon="1.22022">
        <ele>155</ele>
        <time>2017-02-28T15:06:01Z</time>
      </trkpt>
      <trkpt lat="49.39493" lon="1.22015">
        <ele>155</ele>
        <time>2017-02-28T15:06:01Z</time>
      </trkpt>
      <trkpt lat="49.39494" lon="1.22008">
        <ele>155</ele>
        <time>2017-02-28T15:06:22Z</time>
      </trkpt>
      <trkpt lat="49.39494" lon="1.22004">
        <ele>155</ele>
        <time>2017-02-28T15:06:22Z</time>
      </trkpt>
      <trkpt lat="49.39494" lon="1.22001">
        <ele>155</ele>
        <time>2017-02-28T15:06:22Z</time>
      </trkpt>
      <trkpt lat="49.39496" lon="1.21996">
        <ele>155</ele>
        <time>2017-02-28T15:06:22Z</time>
      </trkpt>
      <trkpt lat="49.39499" lon="1.21986">
        <ele>155</ele>
        <time>2017-02-28T15:06:22Z</time>
      </trkpt>
      <trkpt lat="49.395" lon="1.21978">
        <ele>155</ele>
        <time>2017-02-28T15:06:37Z</time>
      </trkpt>
      <trkpt lat="49.39502" lon="1.2197">
        <ele>155</ele>
        <time>2017-02-28T15:06:37Z</time>
      </trkpt>
      <trkpt lat="49.39503" lon="1.21962">
        <ele>155</ele>
        <time>2017-02-28T15:06:37Z</time>
      </trkpt>
      <trkpt lat="49.39505" lon="1.21953">
        <ele>154</ele>
        <time>2017-02-28T15:06:37Z</time>
      </trkpt>
      <trkpt lat="49.39507" lon="1.21948">
        <ele>154</ele>
        <time>2017-02-28T15:06:53Z</time>
      </trkpt>
      <trkpt lat="49.39509" lon="1.21939">
        <ele>154</ele>
        <time>2017-02-28T15:06:53Z</time>
      </trkpt>
      <trkpt lat="49.39511" lon="1.21932">
        <ele>154</ele>
        <time>2017-02-28T15:06:53Z</time>
      </trkpt>
      <trkpt lat="49.39512" lon="1.21927">
        <ele>154</ele>
        <time>2017-02-28T15:06:53Z</time>
      </trkpt>
      <trkpt lat="49.39514" lon="1.21919">
        <ele>154</ele>
        <time>2017-02-28T15:07:09Z</time>
      </trkpt>
      <trkpt lat="49.39515" lon="1.21914">
        <ele>154</ele>
        <time>2017-02-28T15:07:09Z</time>
      </trkpt>
      <trkpt lat="49.39516" lon="1.21906">
        <ele>154</ele>
        <time>2017-02-28T15:07:09Z</time>
      </trkpt>
      <trkpt lat="49.39517" lon="1.21901">
        <ele>154</ele>
        <time>2017-02-28T15:07:09Z</time>
      </trkpt>
      <trkpt lat="49.39519" lon="1.21893">
        <ele>154</ele>
        <time>2017-02-28T15:07:26Z</time>
      </trkpt>
      <trkpt lat="49.39521" lon="1.21885">
        <ele>154</ele>
        <time>2017-02-28T15:07:26Z</time>
      </trkpt>
      <trkpt lat="49.39522" lon="1.21878">
        <ele>154</ele>
        <time>2017-02-28T15:07:26Z</time>
      </trkpt>
      <trkpt lat="49.39524" lon="1.21871">
        <ele>153</ele>
        <time>2017-02-28T15:07:26Z</time>
      </trkpt>
      <trkpt lat="49.39525" lon="1.21863">
        <ele>153</ele>
        <time>2017-02-28T15:07:41Z</time>
      </trkpt>
      <trkpt lat="49.39526" lon="1.21857">
        <ele>153</ele>
        <time>2017-02-28T15:07:41Z</time>
      </trkpt>
      <trkpt lat="49.39528" lon="1.2185">
        <ele>153</ele>
        <time>2017-02-28T15:07:41Z</time>
      </trkpt>
      <trkpt lat="49.39529" lon="1.21845">
        <ele>153</ele>
        <time>2017-02-28T15:07:41Z</time>
      </trkpt>
      <trkpt lat="49.39531" lon="1.21836">
        <ele>153</ele>
        <time>2017-02-28T15:07:57Z</time>
      </trkpt>
      <trkpt lat="49.39532" lon="1.21831">
        <ele>153</ele>
        <time>2017-02-28T15:07:57Z</time>
      </trkpt>
      <trkpt lat="49.39534" lon="1.21823">
        <ele>153</ele>
        <time>2017-02-28T15:07:57Z</time>
      </trkpt>
      <trkpt lat="49.39535" lon="1.21818">
        <ele>153</ele>
        <time>2017-02-28T15:07:57Z</time>
      </trkpt>
      <trkpt lat="49.39536" lon="1.21808">
        <ele>153</ele>
        <time>2017-02-28T15:08:13Z</time>
      </trkpt>
      <trkpt lat="49.39538" lon="1.21801">
        <ele>153</ele>
        <time>2017-02-28T15:08:13Z</time>
      </trkpt>
      <trkpt lat="49.3954" lon="1.21792">
        <ele>153</ele>
        <time>2017-02-28T15:08:13Z</time>
      </trkpt>
      <trkpt lat="49.3954" lon="1.21786">
        <ele>153</ele>
        <time>2017-02-28T15:08:13Z</time>
      </trkpt>
      <trkpt lat="49.39541" lon="1.21784">
        <ele>153</ele>
        <time>2017-02-28T15:08:29Z</time>
      </trkpt>
      <trkpt lat="49.39544" lon="1.21775">
        <ele>152</ele>
        <time>2017-02-28T15:08:29Z</time>
      </trkpt>
      <trkpt lat="49.39546" lon="1.21774">
        <ele>152</ele>
        <time>2017-02-28T15:08:29Z</time>
      </trkpt>
      <trkpt lat="49.39552" lon="1.2177">
        <ele>152</ele>
        <time>2017-02-28T15:08:29Z</time>
      </trkpt>
      <trkpt lat="49.39554" lon="1.2177">
        <ele>152</ele>
        <time>2017-02-28T15:09:37Z</time>
      </trkpt>
      <trkpt lat="49.39555" lon="1.2177">
        <ele>152</ele>
        <time>2017-02-28T15:09:37Z</time>
      </trkpt>
      <trkpt lat="49.39554" lon="1.21765">
        <ele>152</ele>
        <time>2017-02-28T15:09:37Z</time>
      </trkpt>
      <trkpt lat="49.39555" lon="1.21759">
        <ele>152</ele>
        <time>2017-02-28T15:09:37Z</time>
      </trkpt>
      <trkpt lat="49.39556" lon="1.21752">
        <ele>152</ele>
        <time>2017-02-28T15:09:37Z</time>
      </trkpt>
      <trkpt lat="49.39556" lon="1.21743">
        <ele>152</ele>
        <time>2017-02-28T15:09:53Z</time>
      </trkpt>
      <trkpt lat="49.39557" lon="1.21734">
        <ele>152</ele>
        <time>2017-02-28T15:09:53Z</time>
      </trkpt>
      <trkpt lat="49.39558" lon="1.21726">
        <ele>152</ele>
        <time>2017-02-28T15:09:53Z</time>
      </trkpt>
      <trkpt lat="49.3956" lon="1.21715">
        <ele>152</ele>
        <time>2017-02-28T15:09:53Z</time>
      </trkpt>
      <trkpt lat="49.39561" lon="1.21706">
        <ele>151</ele>
        <time>2017-02-28T15:10:09Z</time>
      </trkpt>
      <trkpt lat="49.39562" lon="1.21701">
        <ele>151</ele>
        <time>2017-02-28T15:10:09Z</time>
      </trkpt>
      <trkpt lat="49.39564" lon="1.21693">
        <ele>151</ele>
        <time>2017-02-28T15:10:09Z</time>
      </trkpt>
      <trkpt lat="49.39565" lon="1.21684">
        <ele>151</ele>
        <time>2017-02-28T15:10:09Z</time>
      </trkpt>
      <trkpt lat="49.39567" lon="1.21673">
        <ele>151</ele>
        <time>2017-02-28T15:10:26Z</time>
      </trkpt>
      <trkpt lat="49.39567" lon="1.21669">
        <ele>151</ele>
        <time>2017-02-28T15:10:26Z</time>
      </trkpt>
      <trkpt lat="49.39569" lon="1.21659">
        <ele>151</ele>
        <time>2017-02-28T15:10:26Z</time>
      </trkpt>
      <trkpt lat="49.3957" lon="1.2165">
        <ele>151</ele>
        <time>2017-02-28T15:10:26Z</time>
      </trkpt>
      <trkpt lat="49.39571" lon="1.21643">
        <ele>151</ele>
        <time>2017-02-28T15:10:41Z</time>
      </trkpt>
      <trkpt lat="49.39572" lon="1.21634">
        <ele>151</ele>
        <time>2017-02-28T15:10:41Z</time>
      </trkpt>
      <trkpt lat="49.39572" lon="1.21628">
        <ele>151</ele>
        <time>2017-02-28T15:10:41Z</time>
      </trkpt>
      <trkpt lat="49.39573" lon="1.21618">
        <ele>151</ele>
        <time>2017-02-28T15:10:41Z</time>
      </trkpt>
      <trkpt lat="49.39576" lon="1.21606">
        <ele>151</ele>
        <time>2017-02-28T15:10:57Z</time>
      </trkpt>
      <trkpt lat="49.39577" lon="1.21601">
        <ele>151</ele>
        <time>2017-02-28T15:10:57Z</time>
      </trkpt>
      <trkpt lat="49.39578" lon="1.21593">
        <ele>151</ele>
        <time>2017-02-28T15:10:57Z</time>
      </trkpt>
      <trkpt lat="49.39579" lon="1.21585">
        <ele>151</ele>
        <time>2017-02-28T15:10:57Z</time>
      </trkpt>
      <trkpt lat="49.39581" lon="1.21578">
        <ele>151</ele>
        <time>2017-02-28T15:11:13Z</time>
      </trkpt>
      <trkpt lat="49.39583" lon="1.21571">
        <ele>151</ele>
        <time>2017-02-28T15:11:13Z</time>
      </trkpt>
      <trkpt lat="49.39585" lon="1.21563">
        <ele>151</ele>
        <time>2017-02-28T15:11:13Z</time>
      </trkpt>
      <trkpt lat="49.39587" lon="1.21554">
        <ele>151</ele>
        <time>2017-02-28T15:11:13Z</time>
      </trkpt>
      <trkpt lat="49.39589" lon="1.21545">
        <ele>151</ele>
        <time>2017-02-28T15:11:29Z</time>
      </trkpt>
      <trkpt lat="49.3959" lon="1.21536">
        <ele>152</ele>
        <time>2017-02-28T15:11:29Z</time>
      </trkpt>
      <trkpt lat="49.39591" lon="1.2153">
        <ele>152</ele>
        <time>2017-02-28T15:11:29Z</time>
      </trkpt>
      <trkpt lat="49.39592" lon="1.21522">
        <ele>152</ele>
        <time>2017-02-28T15:11:29Z</time>
      </trkpt>
      <trkpt lat="49.39595" lon="1.21515">
        <ele>152</ele>
        <time>2017-02-28T15:11:45Z</time>
      </trkpt>
      <trkpt lat="49.39596" lon="1.21507">
        <ele>152</ele>
        <time>2017-02-28T15:11:45Z</time>
      </trkpt>
      <trkpt lat="49.39597" lon="1.21499">
        <ele>152</ele>
        <time>2017-02-28T15:11:45Z</time>
      </trkpt>
      <trkpt lat="49.39598" lon="1.21488">
        <ele>152</ele>
        <time>2017-02-28T15:11:45Z</time>
      </trkpt>
      <trkpt lat="49.39599" lon="1.21479">
        <ele>152</ele>
        <time>2017-02-28T15:12:01Z</time>
      </trkpt>
      <trkpt lat="49.396" lon="1.2147">
        <ele>152</ele>
        <time>2017-02-28T15:12:01Z</time>
      </trkpt>
      <trkpt lat="49.39602" lon="1.21461">
        <ele>152</ele>
        <time>2017-02-28T15:12:01Z</time>
      </trkpt>
      <trkpt lat="49.39603" lon="1.21454">
        <ele>152</ele>
        <time>2017-02-28T15:12:01Z</time>
      </trkpt>
      <trkpt lat="49.39605" lon="1.21445">
        <ele>152</ele>
        <time>2017-02-28T15:12:17Z</time>
      </trkpt>
      <trkpt lat="49.39606" lon="1.21437">
        <ele>152</ele>
        <time>2017-02-28T15:12:17Z</time>
      </trkpt>
      <trkpt lat="49.39608" lon="1.21431">
        <ele>152</ele>
        <time>2017-02-28T15:12:17Z</time>
      </trkpt>
      <trkpt lat="49.39609" lon="1.21424">
        <ele>152</ele>
        <time>2017-02-28T15:12:17Z</time>
      </trkpt>
      <trkpt lat="49.39611" lon="1.21415">
        <ele>152</ele>
        <time>2017-02-28T15:12:33Z</time>
      </trkpt>
      <trkpt lat="49.39614" lon="1.21407">
        <ele>152</ele>
        <time>2017-02-28T15:12:33Z</time>
      </trkpt>
      <trkpt lat="49.39616" lon="1.21401">
        <ele>152</ele>
        <time>2017-02-28T15:12:33Z</time>
      </trkpt>
      <trkpt lat="49.39618" lon="1.21393">
        <ele>152</ele>
        <time>2017-02-28T15:12:33Z</time>
      </trkpt>
      <trkpt lat="49.39619" lon="1.21385">
        <ele>152</ele>
        <time>2017-02-28T15:12:49Z</time>
      </trkpt>
      <trkpt lat="49.39622" lon="1.21377">
        <ele>152</ele>
        <time>2017-02-28T15:12:49Z</time>
      </trkpt>
      <trkpt lat="49.39625" lon="1.21367">
        <ele>147</ele>
        <time>2017-02-28T15:12:49Z</time>
      </trkpt>
      <trkpt lat="49.39626" lon="1.21362">
        <ele>147</ele>
        <time>2017-02-28T15:12:49Z</time>
      </trkpt>
      <trkpt lat="49.39628" lon="1.21353">
        <ele>147</ele>
        <time>2017-02-28T15:13:05Z</time>
      </trkpt>
      <trkpt lat="49.39629" lon="1.21347">
        <ele>147</ele>
        <time>2017-02-28T15:13:05Z</time>
      </trkpt>
      <trkpt lat="49.39631" lon="1.21338">
        <ele>147</ele>
        <time>2017-02-28T15:13:05Z</time>
      </trkpt>
      <trkpt lat="49.39634" lon="1.2133">
        <ele>147</ele>
        <time>2017-02-28T15:13:05Z</time>
      </trkpt>
      <trkpt lat="49.39634" lon="1.21324">
        <ele>147</ele>
        <time>2017-02-28T15:13:21Z</time>
      </trkpt>
      <trkpt lat="49.39636" lon="1.21316">
        <ele>147</ele>
        <time>2017-02-28T15:13:21Z</time>
      </trkpt>
      <trkpt lat="49.39638" lon="1.21309">
        <ele>147</ele>
        <time>2017-02-28T15:13:21Z</time>
      </trkpt>
      <trkpt lat="49.39639" lon="1.21301">
        <ele>147</ele>
        <time>2017-02-28T15:13:21Z</time>
      </trkpt>
      <trkpt lat="49.3964" lon="1.21292">
        <ele>147</ele>
        <time>2017-02-28T15:13:38Z</time>
      </trkpt>
      <trkpt lat="49.39641" lon="1.21283">
        <ele>147</ele>
        <time>2017-02-28T15:13:38Z</time>
      </trkpt>
      <trkpt lat="49.39643" lon="1.21274">
        <ele>147</ele>
        <time>2017-02-28T15:13:38Z</time>
      </trkpt>
      <trkpt lat="49.39645" lon="1.21264">
        <ele>147</ele>
        <time>2017-02-28T15:13:38Z</time>
      </trkpt>
      <trkpt lat="49.39646" lon="1.21259">
        <ele>147</ele>
        <time>2017-02-28T15:13:53Z</time>
      </trkpt>
      <trkpt lat="49.39647" lon="1.21251">
        <ele>147</ele>
        <time>2017-02-28T15:13:53Z</time>
      </trkpt>
      <trkpt lat="49.39648" lon="1.21242">
        <ele>147</ele>
        <time>2017-02-28T15:13:53Z</time>
      </trkpt>
      <trkpt lat="49.39649" lon="1.21234">
        <ele>147</ele>
        <time>2017-02-28T15:13:53Z</time>
      </trkpt>
      <trkpt lat="49.39649" lon="1.21226">
        <ele>147</ele>
        <time>2017-02-28T15:14:09Z</time>
      </trkpt>
      <trkpt lat="49.39649" lon="1.21219">
        <ele>147</ele>
        <time>2017-02-28T15:14:09Z</time>
      </trkpt>
      <trkpt lat="49.39648" lon="1.21211">
        <ele>147</ele>
        <time>2017-02-28T15:14:09Z</time>
      </trkpt>
      <trkpt lat="49.39647" lon="1.21205">
        <ele>147</ele>
        <time>2017-02-28T15:14:09Z</time>
      </trkpt>
      <trkpt lat="49.39646" lon="1.21197">
        <ele>147</ele>
        <time>2017-02-28T15:14:25Z</time>
      </trkpt>
      <trkpt lat="49.39644" lon="1.21188">
        <ele>147</ele>
        <time>2017-02-28T15:14:25Z</time>
      </trkpt>
      <trkpt lat="49.39643" lon="1.2118">
        <ele>147</ele>
        <time>2017-02-28T15:14:25Z</time>
      </trkpt>
      <trkpt lat="49.39642" lon="1.21175">
        <ele>147</ele>
        <time>2017-02-28T15:14:25Z</time>
      </trkpt>
      <trkpt lat="49.39639" lon="1.21166">
        <ele>147</ele>
        <time>2017-02-28T15:14:41Z</time>
      </trkpt>
      <trkpt lat="49.39637" lon="1.21159">
        <ele>147</ele>
        <time>2017-02-28T15:14:41Z</time>
      </trkpt>
      <trkpt lat="49.39636" lon="1.21153">
        <ele>147</ele>
        <time>2017-02-28T15:14:41Z</time>
      </trkpt>
      <trkpt lat="49.39633" lon="1.21144">
        <ele>147</ele>
        <time>2017-02-28T15:14:41Z</time>
      </trkpt>
      <trkpt lat="49.3963" lon="1.21137">
        <ele>147</ele>
        <time>2017-02-28T15:14:57Z</time>
      </trkpt>
      <trkpt lat="49.3963" lon="1.2113">
        <ele>147</ele>
        <time>2017-02-28T15:14:57Z</time>
      </trkpt>
      <trkpt lat="49.3963" lon="1.21125">
        <ele>148</ele>
        <time>2017-02-28T15:14:57Z</time>
      </trkpt>
      <trkpt lat="49.39629" lon="1.21118">
        <ele>148</ele>
        <time>2017-02-28T15:14:57Z</time>
      </trkpt>
      <trkpt lat="49.39626" lon="1.21111">
        <ele>148</ele>
        <time>2017-02-28T15:15:13Z</time>
      </trkpt>
      <trkpt lat="49.39623" lon="1.21101">
        <ele>148</ele>
        <time>2017-02-28T15:15:13Z</time>
      </trkpt>
      <trkpt lat="49.39621" lon="1.21095">
        <ele>148</ele>
        <time>2017-02-28T15:15:13Z</time>
      </trkpt>
      <trkpt lat="49.39618" lon="1.21088">
        <ele>148</ele>
        <time>2017-02-28T15:15:13Z</time>
      </trkpt>
      <trkpt lat="49.39615" lon="1.21078">
        <ele>148</ele>
        <time>2017-02-28T15:15:29Z</time>
      </trkpt>
      <trkpt lat="49.39614" lon="1.21072">
        <ele>148</ele>
        <time>2017-02-28T15:15:29Z</time>
      </trkpt>
      <trkpt lat="49.39613" lon="1.21063">
        <ele>148</ele>
        <time>2017-02-28T15:15:29Z</time>
      </trkpt>
      <trkpt lat="49.3961" lon="1.21055">
        <ele>148</ele>
        <time>2017-02-28T15:15:29Z</time>
      </trkpt>
      <trkpt lat="49.39608" lon="1.21048">
        <ele>148</ele>
        <time>2017-02-28T15:15:45Z</time>
      </trkpt>
      <trkpt lat="49.39606" lon="1.2104">
        <ele>150</ele>
        <time>2017-02-28T15:15:45Z</time>
      </trkpt>
      <trkpt lat="49.39604" lon="1.21034">
        <ele>150</ele>
        <time>2017-02-28T15:15:45Z</time>
      </trkpt>
      <trkpt lat="49.39604" lon="1.21024">
        <ele>150</ele>
        <time>2017-02-28T15:15:45Z</time>
      </trkpt>
      <trkpt lat="49.39602" lon="1.21019">
        <ele>150</ele>
        <time>2017-02-28T15:16:01Z</time>
      </trkpt>
      <trkpt lat="49.39601" lon="1.21011">
        <ele>150</ele>
        <time>2017-02-28T15:16:01Z</time>
      </trkpt>
      <trkpt lat="49.396" lon="1.21002">
        <ele>150</ele>
        <time>2017-02-28T15:16:01Z</time>
      </trkpt>
      <trkpt lat="49.39599" lon="1.20994">
        <ele>150</ele>
        <time>2017-02-28T15:16:01Z</time>
      </trkpt>
      <trkpt lat="49.39597" lon="1.20987">
        <ele>150</ele>
        <time>2017-02-28T15:16:18Z</time>
      </trkpt>
      <trkpt lat="49.39595" lon="1.20982">
        <ele>150</ele>
        <time>2017-02-28T15:16:18Z</time>
      </trkpt>
      <trkpt lat="49.39594" lon="1.20974">
        <ele>150</ele>
        <time>2017-02-28T15:16:18Z</time>
      </trkpt>
      <trkpt lat="49.39593" lon="1.20966">
        <ele>150</ele>
        <time>2017-02-28T15:16:18Z</time>
      </trkpt>
      <trkpt lat="49.39592" lon="1.20958">
        <ele>156</ele>
        <time>2017-02-28T15:16:33Z</time>
      </trkpt>
      <trkpt lat="49.39591" lon="1.20952">
        <ele>156</ele>
        <time>2017-02-28T15:16:33Z</time>
      </trkpt>
      <trkpt lat="49.3959" lon="1.20941">
        <ele>156</ele>
        <time>2017-02-28T15:16:33Z</time>
      </trkpt>
      <trkpt lat="49.3959" lon="1.20935">
        <ele>156</ele>
        <time>2017-02-28T15:16:33Z</time>
      </trkpt>
      <trkpt lat="49.39589" lon="1.20925">
        <ele>156</ele>
        <time>2017-02-28T15:16:49Z</time>
      </trkpt>
      <trkpt lat="49.39589" lon="1.2092">
        <ele>156</ele>
        <time>2017-02-28T15:16:49Z</time>
      </trkpt>
      <trkpt lat="49.39589" lon="1.20913">
        <ele>156</ele>
        <time>2017-02-28T15:16:49Z</time>
      </trkpt>
      <trkpt lat="49.39588" lon="1.20905">
        <ele>156</ele>
        <time>2017-02-28T15:16:49Z</time>
      </trkpt>
      <trkpt lat="49.39587" lon="1.20897">
        <ele>156</ele>
        <time>2017-02-28T15:17:06Z</time>
      </trkpt>
      <trkpt lat="49.39586" lon="1.20893">
        <ele>156</ele>
        <time>2017-02-28T15:17:06Z</time>
      </trkpt>
      <trkpt lat="49.39584" lon="1.20884">
        <ele>156</ele>
        <time>2017-02-28T15:17:06Z</time>
      </trkpt>
      <trkpt lat="49.39583" lon="1.20877">
        <ele>156</ele>
        <time>2017-02-28T15:17:06Z</time>
      </trkpt>
      <trkpt lat="49.39589" lon="1.20867">
        <ele>157</ele>
        <time>2017-02-28T15:19:49Z</time>
      </trkpt>
      <trkpt lat="49.39589" lon="1.20867">
        <ele>157</ele>
        <time>2017-02-28T15:19:49Z</time>
      </trkpt>
      <trkpt lat="49.39589" lon="1.20867">
        <ele>157</ele>
        <time>2017-02-28T15:19:49Z</time>
      </trkpt>
      <trkpt lat="49.3959" lon="1.20867">
        <ele>157</ele>
        <time>2017-02-28T15:19:49Z</time>
      </trkpt>
      <trkpt lat="49.3959" lon="1.20867">
        <ele>157</ele>
        <time>2017-02-28T15:19:49Z</time>
      </trkpt>
      <trkpt lat="49.3959" lon="1.20868">
        <ele>157</ele>
        <time>2017-02-28T15:21:45Z</time>
      </trkpt>
      <trkpt lat="49.3959" lon="1.20868">
        <ele>157</ele>
        <time>2017-02-28T15:21:46Z</time>
      </trkpt>
      <trkpt lat="49.3959" lon="1.20868">
        <ele>157</ele>
        <time>2017-02-28T15:21:46Z</time>
      </trkpt>
      <trkpt lat="49.39596" lon="1.20868">
        <ele>157</ele>
        <time>2017-02-28T15:21:46Z</time>
      </trkpt>
      <trkpt lat="49.396" lon="1.20867">
        <ele>157</ele>
        <time>2017-02-28T15:21:46Z</time>
      </trkpt>
      <trkpt lat="49.39598" lon="1.20868">
        <ele>157</ele>
        <time>2017-02-28T15:22:01Z</time>
      </trkpt>
      <trkpt lat="49.39601" lon="1.20865">
        <ele>157</ele>
        <time>2017-02-28T15:22:01Z</time>
      </trkpt>
      <trkpt lat="49.39604" lon="1.20863">
        <ele>157</ele>
        <time>2017-02-28T15:22:01Z</time>
      </trkpt>
      <trkpt lat="49.39607" lon="1.20865">
        <ele>157</ele>
        <time>2017-02-28T15:22:01Z</time>
      </trkpt>
      <trkpt lat="49.39606" lon="1.20863">
        <ele>157</ele>
        <time>2017-02-28T15:22:17Z</time>
      </trkpt>
      <trkpt lat="49.39606" lon="1.20862">
        <ele>157</ele>
        <time>2017-02-28T15:22:17Z</time>
      </trkpt>
      <trkpt lat="49.39612" lon="1.20865">
        <ele>157</ele>
        <time>2017-02-28T15:22:17Z</time>
      </trkpt>
      <trkpt lat="49.39619" lon="1.20867">
        <ele>157</ele>
        <time>2017-02-28T15:22:17Z</time>
      </trkpt>
      <trkpt lat="49.39628" lon="1.20869">
        <ele>151</ele>
        <time>2017-02-28T15:22:34Z</time>
      </trkpt>
      <trkpt lat="49.39632" lon="1.20869">
        <ele>151</ele>
        <time>2017-02-28T15:22:34Z</time>
      </trkpt>
      <trkpt lat="49.39637" lon="1.20874">
        <ele>151</ele>
        <time>2017-02-28T15:22:34Z</time>
      </trkpt>
      <trkpt lat="49.3964" lon="1.20874">
        <ele>151</ele>
        <time>2017-02-28T15:22:34Z</time>
      </trkpt>
      <trkpt lat="49.39644" lon="1.20875">
        <ele>151</ele>
        <time>2017-02-28T15:22:49Z</time>
      </trkpt>
      <trkpt lat="49.39651" lon="1.20877">
        <ele>150</ele>
        <time>2017-02-28T15:22:49Z</time>
      </trkpt>
      <trkpt lat="49.39654" lon="1.20877">
        <ele>150</ele>
        <time>2017-02-28T15:22:49Z</time>
      </trkpt>
      <trkpt lat="49.39657" lon="1.20878">
        <ele>150</ele>
        <time>2017-02-28T15:22:49Z</time>
      </trkpt>
      <trkpt lat="49.3966" lon="1.2088">
        <ele>150</ele>
        <time>2017-02-28T15:23:05Z</time>
      </trkpt>
      <trkpt lat="49.39664" lon="1.20882">
        <ele>150</ele>
        <time>2017-02-28T15:23:05Z</time>
      </trkpt>
      <trkpt lat="49.39668" lon="1.20884">
        <ele>150</ele>
        <time>2017-02-28T15:23:05Z</time>
      </trkpt>
      <trkpt lat="49.39673" lon="1.20885">
        <ele>150</ele>
        <time>2017-02-28T15:23:05Z</time>
      </trkpt>
      <trkpt lat="49.39676" lon="1.20887">
        <ele>150</ele>
        <time>2017-02-28T15:23:21Z</time>
      </trkpt>
      <trkpt lat="49.39682" lon="1.20891">
        <ele>150</ele>
        <time>2017-02-28T15:23:21Z</time>
      </trkpt>
      <trkpt lat="49.39688" lon="1.20893">
        <ele>150</ele>
        <time>2017-02-28T15:23:21Z</time>
      </trkpt>
      <trkpt lat="49.3969" lon="1.20893">
        <ele>150</ele>
        <time>2017-02-28T15:23:21Z</time>
      </trkpt>
      <trkpt lat="49.39694" lon="1.20895">
        <ele>150</ele>
        <time>2017-02-28T15:23:37Z</time>
      </trkpt>
      <trkpt lat="49.39699" lon="1.20898">
        <ele>150</ele>
        <time>2017-02-28T15:23:37Z</time>
      </trkpt>
      <trkpt lat="49.39706" lon="1.20899">
        <ele>150</ele>
        <time>2017-02-28T15:23:37Z</time>
      </trkpt>
      <trkpt lat="49.3971" lon="1.20901">
        <ele>146</ele>
        <time>2017-02-28T15:23:37Z</time>
      </trkpt>
      <trkpt lat="49.39713" lon="1.20903">
        <ele>146</ele>
        <time>2017-02-28T15:23:53Z</time>
      </trkpt>
      <trkpt lat="49.39713" lon="1.20905">
        <ele>146</ele>
        <time>2017-02-28T15:23:53Z</time>
      </trkpt>
      <trkpt lat="49.39719" lon="1.20909">
        <ele>146</ele>
        <time>2017-02-28T15:23:53Z</time>
      </trkpt>
      <trkpt lat="49.39725" lon="1.20913">
        <ele>146</ele>
        <time>2017-02-28T15:23:53Z</time>
      </trkpt>
      <trkpt lat="49.3974" lon="1.20916">
        <ele>146</ele>
        <time>2017-02-28T15:24:25Z</time>
      </trkpt>
      <trkpt lat="49.3974" lon="1.20915">
        <ele>146</ele>
        <time>2017-02-28T15:24:25Z</time>
      </trkpt>
      <trkpt lat="49.39741" lon="1.20915">
        <ele>146</ele>
        <time>2017-02-28T15:24:25Z</time>
      </trkpt>
      <trkpt lat="49.39741" lon="1.20914">
        <ele>146</ele>
        <time>2017-02-28T15:24:25Z</time>
      </trkpt>
      <trkpt lat="49.39743" lon="1.20917">
        <ele>146</ele>
        <time>2017-02-28T15:24:25Z</time>
      </trkpt>
      <trkpt lat="49.39746" lon="1.20924">
        <ele>146</ele>
        <time>2017-02-28T15:24:50Z</time>
      </trkpt>
      <trkpt lat="49.39746" lon="1.20927">
        <ele>146</ele>
        <time>2017-02-28T15:24:50Z</time>
      </trkpt>
      <trkpt lat="49.39747" lon="1.20927">
        <ele>146</ele>
        <time>2017-02-28T15:24:50Z</time>
      </trkpt>
      <trkpt lat="49.39747" lon="1.20934">
        <ele>146</ele>
        <time>2017-02-28T15:24:50Z</time>
      </trkpt>
      <trkpt lat="49.39746" lon="1.20937">
        <ele>146</ele>
        <time>2017-02-28T15:24:50Z</time>
      </trkpt>
      <trkpt lat="49.39741" lon="1.20943">
        <ele>146</ele>
        <time>2017-02-28T15:25:17Z</time>
      </trkpt>
      <trkpt lat="49.3974" lon="1.20941">
        <ele>146</ele>
        <time>2017-02-28T15:25:17Z</time>
      </trkpt>
      <trkpt lat="49.3974" lon="1.20941">
        <ele>146</ele>
        <time>2017-02-28T15:25:17Z</time>
      </trkpt>
      <trkpt lat="49.39741" lon="1.20943">
        <ele>146</ele>
        <time>2017-02-28T15:25:17Z</time>
      </trkpt>
      <trkpt lat="49.3974" lon="1.2095">
        <ele>146</ele>
        <time>2017-02-28T15:25:17Z</time>
      </trkpt>
      <trkpt lat="49.3974" lon="1.20958">
        <ele>146</ele>
        <time>2017-02-28T15:25:34Z</time>
      </trkpt>
      <trkpt lat="49.39741" lon="1.20963">
        <ele>145</ele>
        <time>2017-02-28T15:25:34Z</time>
      </trkpt>
      <trkpt lat="49.39743" lon="1.20966">
        <ele>145</ele>
        <time>2017-02-28T15:25:34Z</time>
      </trkpt>
      <trkpt lat="49.39744" lon="1.20971">
        <ele>145</ele>
        <time>2017-02-28T15:25:34Z</time>
      </trkpt>
      <trkpt lat="49.39748" lon="1.20972">
        <ele>145</ele>
        <time>2017-02-28T15:25:50Z</time>
      </trkpt>
      <trkpt lat="49.3975" lon="1.20977">
        <ele>145</ele>
        <time>2017-02-28T15:25:50Z</time>
      </trkpt>
      <trkpt lat="49.39755" lon="1.20981">
        <ele>145</ele>
        <time>2017-02-28T15:25:50Z</time>
      </trkpt>
      <trkpt lat="49.39758" lon="1.20984">
        <ele>145</ele>
        <time>2017-02-28T15:25:50Z</time>
      </trkpt>
      <trkpt lat="49.39761" lon="1.20989">
        <ele>145</ele>
        <time>2017-02-28T15:26:05Z</time>
      </trkpt>
      <trkpt lat="49.39764" lon="1.2099">
        <ele>145</ele>
        <time>2017-02-28T15:26:05Z</time>
      </trkpt>
      <trkpt lat="49.39767" lon="1.20992">
        <ele>145</ele>
        <time>2017-02-28T15:26:05Z</time>
      </trkpt>
      <trkpt lat="49.39772" lon="1.20995">
        <ele>145</ele>
        <time>2017-02-28T15:26:05Z</time>
      </trkpt>
      <trkpt lat="49.39777" lon="1.20999">
        <ele>145</ele>
        <time>2017-02-28T15:26:21Z</time>
      </trkpt>
      <trkpt lat="49.39781" lon="1.21005">
        <ele>145</ele>
        <time>2017-02-28T15:26:21Z</time>
      </trkpt>
      <trkpt lat="49.39785" lon="1.21008">
        <ele>145</ele>
        <time>2017-02-28T15:26:21Z</time>
      </trkpt>
      <trkpt lat="49.39787" lon="1.21009">
        <ele>145</ele>
        <time>2017-02-28T15:26:21Z</time>
      </trkpt>
      <trkpt lat="49.39791" lon="1.21014">
        <ele>145</ele>
        <time>2017-02-28T15:26:37Z</time>
      </trkpt>
      <trkpt lat="49.39797" lon="1.21021">
        <ele>142</ele>
        <time>2017-02-28T15:26:37Z</time>
      </trkpt>
      <trkpt lat="49.398" lon="1.21023">
        <ele>142</ele>
        <time>2017-02-28T15:26:37Z</time>
      </trkpt>
      <trkpt lat="49.39805" lon="1.21028">
        <ele>142</ele>
        <time>2017-02-28T15:26:37Z</time>
      </trkpt>
      <trkpt lat="49.39809" lon="1.21033">
        <ele>142</ele>
        <time>2017-02-28T15:26:53Z</time>
      </trkpt>
      <trkpt lat="49.39812" lon="1.21035">
        <ele>142</ele>
        <time>2017-02-28T15:26:53Z</time>
      </trkpt>
      <trkpt lat="49.39815" lon="1.21038">
        <ele>142</ele>
        <time>2017-02-28T15:26:53Z</time>
      </trkpt>
      <trkpt lat="49.39821" lon="1.21041">
        <ele>142</ele>
        <time>2017-02-28T15:26:53Z</time>
      </trkpt>
      <trkpt lat="49.39824" lon="1.21044">
        <ele>142</ele>
        <time>2017-02-28T15:27:09Z</time>
      </trkpt>
      <trkpt lat="49.39827" lon="1.21047">
        <ele>142</ele>
        <time>2017-02-28T15:27:09Z</time>
      </trkpt>
      <trkpt lat="49.39832" lon="1.21049">
        <ele>142</ele>
        <time>2017-02-28T15:27:09Z</time>
      </trkpt>
      <trkpt lat="49.39836" lon="1.21052">
        <ele>142</ele>
        <time>2017-02-28T15:27:09Z</time>
      </trkpt>
      <trkpt lat="49.39841" lon="1.21056">
        <ele>142</ele>
        <time>2017-02-28T15:27:30Z</time>
      </trkpt>
      <trkpt lat="49.39843" lon="1.21056">
        <ele>142</ele>
        <time>2017-02-28T15:27:30Z</time>
      </trkpt>
      <trkpt lat="49.39845" lon="1.21057">
        <ele>142</ele>
        <time>2017-02-28T15:27:30Z</time>
      </trkpt>
      <trkpt lat="49.39848" lon="1.2106">
        <ele>142</ele>
        <time>2017-02-28T15:27:30Z</time>
      </trkpt>
      <trkpt lat="49.39852" lon="1.21061">
        <ele>142</ele>
        <time>2017-02-28T15:27:30Z</time>
      </trkpt>
      <trkpt lat="49.39854" lon="1.21063">
        <ele>142</ele>
        <time>2017-02-28T15:27:46Z</time>
      </trkpt>
      <trkpt lat="49.39858" lon="1.21067">
        <ele>142</ele>
        <time>2017-02-28T15:27:46Z</time>
      </trkpt>
      <trkpt lat="49.39868" lon="1.21072">
        <ele>142</ele>
        <time>2017-02-28T15:27:46Z</time>
      </trkpt>
      <trkpt lat="49.39871" lon="1.21073">
        <ele>142</ele>
        <time>2017-02-28T15:27:46Z</time>
      </trkpt>
      <trkpt lat="49.39873" lon="1.21075">
        <ele>142</ele>
        <time>2017-02-28T15:28:01Z</time>
      </trkpt>
      <trkpt lat="49.3988" lon="1.21079">
        <ele>141</ele>
        <time>2017-02-28T15:28:01Z</time>
      </trkpt>
      <trkpt lat="49.39881" lon="1.21079">
        <ele>141</ele>
        <time>2017-02-28T15:28:01Z</time>
      </trkpt>
      <trkpt lat="49.39882" lon="1.21081">
        <ele>141</ele>
        <time>2017-02-28T15:28:01Z</time>
      </trkpt>
      <trkpt lat="49.39884" lon="1.21086">
        <ele>141</ele>
        <time>2017-02-28T15:28:17Z</time>
      </trkpt>
      <trkpt lat="49.39893" lon="1.21087">
        <ele>141</ele>
        <time>2017-02-28T15:28:17Z</time>
      </trkpt>
      <trkpt lat="49.39894" lon="1.21086">
        <ele>141</ele>
        <time>2017-02-28T15:28:17Z</time>
      </trkpt>
      <trkpt lat="49.39896" lon="1.21088">
        <ele>141</ele>
        <time>2017-02-28T15:28:17Z</time>
      </trkpt>
      <trkpt lat="49.39907" lon="1.21097">
        <ele>141</ele>
        <time>2017-02-28T15:28:53Z</time>
      </trkpt>
      <trkpt lat="49.39909" lon="1.21096">
        <ele>141</ele>
        <time>2017-02-28T15:28:53Z</time>
      </trkpt>
      <trkpt lat="49.39915" lon="1.21095">
        <ele>141</ele>
        <time>2017-02-28T15:28:53Z</time>
      </trkpt>
      <trkpt lat="49.3992" lon="1.21093">
        <ele>141</ele>
        <time>2017-02-28T15:28:53Z</time>
      </trkpt>
      <trkpt lat="49.39925" lon="1.21092">
        <ele>141</ele>
        <time>2017-02-28T15:28:53Z</time>
      </trkpt>
      <trkpt lat="49.39931" lon="1.21093">
        <ele>141</ele>
        <time>2017-02-28T15:29:14Z</time>
      </trkpt>
      <trkpt lat="49.39934" lon="1.21094">
        <ele>141</ele>
        <time>2017-02-28T15:29:14Z</time>
      </trkpt>
      <trkpt lat="49.39936" lon="1.21094">
        <ele>141</ele>
        <time>2017-02-28T15:29:14Z</time>
      </trkpt>
      <trkpt lat="49.39939" lon="1.21094">
        <ele>141</ele>
        <time>2017-02-28T15:29:14Z</time>
      </trkpt>
      <trkpt lat="49.39941" lon="1.2109">
        <ele>141</ele>
        <time>2017-02-28T15:29:14Z</time>
      </trkpt>
      <trkpt lat="49.39946" lon="1.21093">
        <ele>141</ele>
        <time>2017-02-28T15:29:30Z</time>
      </trkpt>
      <trkpt lat="49.39953" lon="1.21097">
        <ele>141</ele>
        <time>2017-02-28T15:29:30Z</time>
      </trkpt>
      <trkpt lat="49.39956" lon="1.21102">
        <ele>141</ele>
        <time>2017-02-28T15:29:30Z</time>
      </trkpt>
      <trkpt lat="49.39966" lon="1.21106">
        <ele>143</ele>
        <time>2017-02-28T15:29:30Z</time>
      </trkpt>
      <trkpt lat="49.39973" lon="1.21106">
        <ele>143</ele>
        <time>2017-02-28T15:29:45Z</time>
      </trkpt>
      <trkpt lat="49.39985" lon="1.21107">
        <ele>143</ele>
        <time>2017-02-28T15:29:45Z</time>
      </trkpt>
      <trkpt lat="49.39992" lon="1.21109">
        <ele>143</ele>
        <time>2017-02-28T15:29:45Z</time>
      </trkpt>
      <trkpt lat="49.39996" lon="1.21109">
        <ele>143</ele>
        <time>2017-02-28T15:29:45Z</time>
      </trkpt>
      <trkpt lat="49.39997" lon="1.21112">
        <ele>143</ele>
        <time>2017-02-28T15:30:01Z</time>
      </trkpt>
      <trkpt lat="49.4" lon="1.21116">
        <ele>143</ele>
        <time>2017-02-28T15:30:01Z</time>
      </trkpt>
      <trkpt lat="49.40003" lon="1.21121">
        <ele>143</ele>
        <time>2017-02-28T15:30:01Z</time>
      </trkpt>
      <trkpt lat="49.40008" lon="1.21125">
        <ele>146</ele>
        <time>2017-02-28T15:30:01Z</time>
      </trkpt>
      <trkpt lat="49.40011" lon="1.21129">
        <ele>146</ele>
        <time>2017-02-28T15:30:17Z</time>
      </trkpt>
      <trkpt lat="49.40017" lon="1.21131">
        <ele>146</ele>
        <time>2017-02-28T15:30:17Z</time>
      </trkpt>
      <trkpt lat="49.40021" lon="1.21131">
        <ele>146</ele>
        <time>2017-02-28T15:30:17Z</time>
      </trkpt>
      <trkpt lat="49.40024" lon="1.21133">
        <ele>146</ele>
        <time>2017-02-28T15:30:17Z</time>
      </trkpt>
      <trkpt lat="49.40028" lon="1.21133">
        <ele>146</ele>
        <time>2017-02-28T15:30:33Z</time>
      </trkpt>
      <trkpt lat="49.40035" lon="1.21135">
        <ele>146</ele>
        <time>2017-02-28T15:30:33Z</time>
      </trkpt>
      <trkpt lat="49.40038" lon="1.21136">
        <ele>146</ele>
        <time>2017-02-28T15:30:33Z</time>
      </trkpt>
      <trkpt lat="49.40043" lon="1.21136">
        <ele>145</ele>
        <time>2017-02-28T15:30:33Z</time>
      </trkpt>
      <trkpt lat="49.40048" lon="1.21138">
        <ele>145</ele>
        <time>2017-02-28T15:30:49Z</time>
      </trkpt>
      <trkpt lat="49.40054" lon="1.21139">
        <ele>145</ele>
        <time>2017-02-28T15:30:49Z</time>
      </trkpt>
      <trkpt lat="49.40058" lon="1.21141">
        <ele>145</ele>
        <time>2017-02-28T15:30:49Z</time>
      </trkpt>
      <trkpt lat="49.40063" lon="1.21143">
        <ele>145</ele>
        <time>2017-02-28T15:30:49Z</time>
      </trkpt>
      <trkpt lat="49.40067" lon="1.21144">
        <ele>145</ele>
        <time>2017-02-28T15:31:05Z</time>
      </trkpt>
      <trkpt lat="49.40071" lon="1.21145">
        <ele>145</ele>
        <time>2017-02-28T15:31:05Z</time>
      </trkpt>
      <trkpt lat="49.40078" lon="1.21147">
        <ele>145</ele>
        <time>2017-02-28T15:31:05Z</time>
      </trkpt>
      <trkpt lat="49.40082" lon="1.21148">
        <ele>145</ele>
        <time>2017-02-28T15:31:05Z</time>
      </trkpt>
      <trkpt lat="49.40087" lon="1.21149">
        <ele>145</ele>
        <time>2017-02-28T15:31:21Z</time>
      </trkpt>
      <trkpt lat="49.40094" lon="1.21151">
        <ele>145</ele>
        <time>2017-02-28T15:31:21Z</time>
      </trkpt>
      <trkpt lat="49.40099" lon="1.21152">
        <ele>145</ele>
        <time>2017-02-28T15:31:21Z</time>
      </trkpt>
      <trkpt lat="49.40104" lon="1.21152">
        <ele>145</ele>
        <time>2017-02-28T15:31:21Z</time>
      </trkpt>
      <trkpt lat="49.40108" lon="1.21154">
        <ele>145</ele>
        <time>2017-02-28T15:31:37Z</time>
      </trkpt>
      <trkpt lat="49.40113" lon="1.21154">
        <ele>145</ele>
        <time>2017-02-28T15:31:37Z</time>
      </trkpt>
      <trkpt lat="49.40119" lon="1.21154">
        <ele>145</ele>
        <time>2017-02-28T15:31:37Z</time>
      </trkpt>
      <trkpt lat="49.40122" lon="1.21155">
        <ele>145</ele>
        <time>2017-02-28T15:31:37Z</time>
      </trkpt>
      <trkpt lat="49.40126" lon="1.21156">
        <ele>146</ele>
        <time>2017-02-28T15:31:53Z</time>
      </trkpt>
      <trkpt lat="49.40131" lon="1.21156">
        <ele>146</ele>
        <time>2017-02-28T15:31:53Z</time>
      </trkpt>
      <trkpt lat="49.40135" lon="1.21157">
        <ele>146</ele>
        <time>2017-02-28T15:31:53Z</time>
      </trkpt>
      <trkpt lat="49.40139" lon="1.21159">
        <ele>146</ele>
        <time>2017-02-28T15:31:53Z</time>
      </trkpt>
      <trkpt lat="49.40143" lon="1.21159">
        <ele>146</ele>
        <time>2017-02-28T15:32:09Z</time>
      </trkpt>
      <trkpt lat="49.40149" lon="1.21159">
        <ele>146</ele>
        <time>2017-02-28T15:32:09Z</time>
      </trkpt>
      <trkpt lat="49.40152" lon="1.21159">
        <ele>146</ele>
        <time>2017-02-28T15:32:09Z</time>
      </trkpt>
      <trkpt lat="49.40158" lon="1.21159">
        <ele>146</ele>
        <time>2017-02-28T15:32:09Z</time>
      </trkpt>
      <trkpt lat="49.40162" lon="1.21159">
        <ele>146</ele>
        <time>2017-02-28T15:32:25Z</time>
      </trkpt>
      <trkpt lat="49.40168" lon="1.2116">
        <ele>146</ele>
        <time>2017-02-28T15:32:25Z</time>
      </trkpt>
      <trkpt lat="49.4017" lon="1.21159">
        <ele>146</ele>
        <time>2017-02-28T15:32:25Z</time>
      </trkpt>
      <trkpt lat="49.40172" lon="1.2116">
        <ele>146</ele>
        <time>2017-02-28T15:32:25Z</time>
      </trkpt>
      <trkpt lat="49.40172" lon="1.21161">
        <ele>146</ele>
        <time>2017-02-28T15:32:45Z</time>
      </trkpt>
      <trkpt lat="49.40174" lon="1.21161">
        <ele>146</ele>
        <time>2017-02-28T15:32:45Z</time>
      </trkpt>
      <trkpt lat="49.40177" lon="1.21161">
        <ele>146</ele>
        <time>2017-02-28T15:32:45Z</time>
      </trkpt>
      <trkpt lat="49.4018" lon="1.21162">
        <ele>146</ele>
        <time>2017-02-28T15:32:45Z</time>
      </trkpt>
      <trkpt lat="49.40185" lon="1.21163">
        <ele>146</ele>
        <time>2017-02-28T15:32:45Z</time>
      </trkpt>
      <trkpt lat="49.40195" lon="1.21166">
        <ele>146</ele>
        <time>2017-02-28T15:33:01Z</time>
      </trkpt>
      <trkpt lat="49.40201" lon="1.21168">
        <ele>146</ele>
        <time>2017-02-28T15:33:01Z</time>
      </trkpt>
      <trkpt lat="49.40205" lon="1.2117">
        <ele>146</ele>
        <time>2017-02-28T15:33:01Z</time>
      </trkpt>
      <trkpt lat="49.40209" lon="1.21172">
        <ele>147</ele>
        <time>2017-02-28T15:33:01Z</time>
      </trkpt>
      <trkpt lat="49.40213" lon="1.21174">
        <ele>147</ele>
        <time>2017-02-28T15:33:17Z</time>
      </trkpt>
      <trkpt lat="49.40216" lon="1.21174">
        <ele>147</ele>
        <time>2017-02-28T15:33:17Z</time>
      </trkpt>
      <trkpt lat="49.40219" lon="1.21176">
        <ele>147</ele>
        <time>2017-02-28T15:33:17Z</time>
      </trkpt>
      <trkpt lat="49.40225" lon="1.2118">
        <ele>147</ele>
        <time>2017-02-28T15:33:17Z</time>
      </trkpt>
      <trkpt lat="49.40229" lon="1.21181">
        <ele>147</ele>
        <time>2017-02-28T15:33:33Z</time>
      </trkpt>
      <trkpt lat="49.40233" lon="1.21183">
        <ele>147</ele>
        <time>2017-02-28T15:33:33Z</time>
      </trkpt>
      <trkpt lat="49.40236" lon="1.21184">
        <ele>147</ele>
        <time>2017-02-28T15:33:33Z</time>
      </trkpt>
      <trkpt lat="49.4024" lon="1.21186">
        <ele>147</ele>
        <time>2017-02-28T15:33:33Z</time>
      </trkpt>
      <trkpt lat="49.40247" lon="1.21191">
        <ele>147</ele>
        <time>2017-02-28T15:33:49Z</time>
      </trkpt>
      <trkpt lat="49.40249" lon="1.21192">
        <ele>147</ele>
        <time>2017-02-28T15:33:49Z</time>
      </trkpt>
      <trkpt lat="49.40255" lon="1.21196">
        <ele>147</ele>
        <time>2017-02-28T15:33:49Z</time>
      </trkpt>
      <trkpt lat="49.40263" lon="1.212">
        <ele>147</ele>
        <time>2017-02-28T15:33:49Z</time>
      </trkpt>
      <trkpt lat="49.40268" lon="1.21203">
        <ele>147</ele>
        <time>2017-02-28T15:34:05Z</time>
      </trkpt>
      <trkpt lat="49.40274" lon="1.21208">
        <ele>147</ele>
        <time>2017-02-28T15:34:05Z</time>
      </trkpt>
      <trkpt lat="49.40281" lon="1.21213">
        <ele>149</ele>
        <time>2017-02-28T15:34:05Z</time>
      </trkpt>
      <trkpt lat="49.40285" lon="1.21215">
        <ele>149</ele>
        <time>2017-02-28T15:34:05Z</time>
      </trkpt>
      <trkpt lat="49.40291" lon="1.21218">
        <ele>149</ele>
        <time>2017-02-28T15:34:21Z</time>
      </trkpt>
      <trkpt lat="49.40294" lon="1.2122">
        <ele>148</ele>
        <time>2017-02-28T15:34:21Z</time>
      </trkpt>
      <trkpt lat="49.40299" lon="1.21224">
        <ele>148</ele>
        <time>2017-02-28T15:34:21Z</time>
      </trkpt>
      <trkpt lat="49.40302" lon="1.21228">
        <ele>148</ele>
        <time>2017-02-28T15:34:21Z</time>
      </trkpt>
      <trkpt lat="49.40306" lon="1.21228">
        <ele>148</ele>
        <time>2017-02-28T15:34:38Z</time>
      </trkpt>
      <trkpt lat="49.40309" lon="1.21233">
        <ele>148</ele>
        <time>2017-02-28T15:34:38Z</time>
      </trkpt>
      <trkpt lat="49.40312" lon="1.21234">
        <ele>148</ele>
        <time>2017-02-28T15:34:38Z</time>
      </trkpt>
      <trkpt lat="49.40316" lon="1.21236">
        <ele>148</ele>
        <time>2017-02-28T15:34:38Z</time>
      </trkpt>
      <trkpt lat="49.40321" lon="1.2124">
        <ele>148</ele>
        <time>2017-02-28T15:34:53Z</time>
      </trkpt>
      <trkpt lat="49.40327" lon="1.21243">
        <ele>148</ele>
        <time>2017-02-28T15:34:53Z</time>
      </trkpt>
      <trkpt lat="49.4033" lon="1.21244">
        <ele>148</ele>
        <time>2017-02-28T15:34:53Z</time>
      </trkpt>
      <trkpt lat="49.40335" lon="1.21247">
        <ele>148</ele>
        <time>2017-02-28T15:34:53Z</time>
      </trkpt>
      <trkpt lat="49.40337" lon="1.21246">
        <ele>148</ele>
        <time>2017-02-28T15:35:09Z</time>
      </trkpt>
      <trkpt lat="49.40341" lon="1.21247">
        <ele>148</ele>
        <time>2017-02-28T15:35:09Z</time>
      </trkpt>
      <trkpt lat="49.40344" lon="1.21249">
        <ele>148</ele>
        <time>2017-02-28T15:35:09Z</time>
      </trkpt>
      <trkpt lat="49.40349" lon="1.21251">
        <ele>148</ele>
        <time>2017-02-28T15:35:09Z</time>
      </trkpt>
      <trkpt lat="49.40354" lon="1.21252">
        <ele>148</ele>
        <time>2017-02-28T15:35:26Z</time>
      </trkpt>
      <trkpt lat="49.40357" lon="1.21253">
        <ele>148</ele>
        <time>2017-02-28T15:35:26Z</time>
      </trkpt>
      <trkpt lat="49.40364" lon="1.21258">
        <ele>148</ele>
        <time>2017-02-28T15:35:26Z</time>
      </trkpt>
      <trkpt lat="49.40367" lon="1.21259">
        <ele>148</ele>
        <time>2017-02-28T15:35:26Z</time>
      </trkpt>
      <trkpt lat="49.4037" lon="1.21262">
        <ele>148</ele>
        <time>2017-02-28T15:35:45Z</time>
      </trkpt>
      <trkpt lat="49.40372" lon="1.21263">
        <ele>148</ele>
        <time>2017-02-28T15:35:45Z</time>
      </trkpt>
      <trkpt lat="49.40402" lon="1.21267">
        <ele>148</ele>
        <time>2017-02-28T15:35:45Z</time>
      </trkpt>
      <trkpt lat="49.40403" lon="1.21268">
        <ele>148</ele>
        <time>2017-02-28T15:35:45Z</time>
      </trkpt>
      <trkpt lat="49.40413" lon="1.21276">
        <ele>148</ele>
        <time>2017-02-28T15:36:01Z</time>
      </trkpt>
      <trkpt lat="49.40419" lon="1.21279">
        <ele>148</ele>
        <time>2017-02-28T15:36:01Z</time>
      </trkpt>
      <trkpt lat="49.40422" lon="1.21283">
        <ele>148</ele>
        <time>2017-02-28T15:36:01Z</time>
      </trkpt>
      <trkpt lat="49.40426" lon="1.21289">
        <ele>148</ele>
        <time>2017-02-28T15:36:01Z</time>
      </trkpt>
      <trkpt lat="49.4043" lon="1.2129">
        <ele>148</ele>
        <time>2017-02-28T15:36:17Z</time>
      </trkpt>
      <trkpt lat="49.40435" lon="1.21294">
        <ele>150</ele>
        <time>2017-02-28T15:36:17Z</time>
      </trkpt>
      <trkpt lat="49.4044" lon="1.21298">
        <ele>150</ele>
        <time>2017-02-28T15:36:17Z</time>
      </trkpt>
      <trkpt lat="49.40444" lon="1.21301">
        <ele>150</ele>
        <time>2017-02-28T15:36:17Z</time>
      </trkpt>
      <trkpt lat="49.40447" lon="1.21303">
        <ele>150</ele>
        <time>2017-02-28T15:36:33Z</time>
      </trkpt>
      <trkpt lat="49.40452" lon="1.21307">
        <ele>150</ele>
        <time>2017-02-28T15:36:33Z</time>
      </trkpt>
      <trkpt lat="49.40453" lon="1.21307">
        <ele>150</ele>
        <time>2017-02-28T15:36:33Z</time>
      </trkpt>
      <trkpt lat="49.40458" lon="1.21312">
        <ele>150</ele>
        <time>2017-02-28T15:36:33Z</time>
      </trkpt>
      <trkpt lat="49.40464" lon="1.21316">
        <ele>148</ele>
        <time>2017-02-28T15:36:50Z</time>
      </trkpt>
      <trkpt lat="49.40468" lon="1.21318">
        <ele>148</ele>
        <time>2017-02-28T15:36:50Z</time>
      </trkpt>
      <trkpt lat="49.40474" lon="1.21323">
        <ele>148</ele>
        <time>2017-02-28T15:36:50Z</time>
      </trkpt>
      <trkpt lat="49.40477" lon="1.21326">
        <ele>148</ele>
        <time>2017-02-28T15:36:50Z</time>
      </trkpt>
      <trkpt lat="49.40479" lon="1.21328">
        <ele>148</ele>
        <time>2017-02-28T15:37:05Z</time>
      </trkpt>
      <trkpt lat="49.40483" lon="1.21331">
        <ele>148</ele>
        <time>2017-02-28T15:37:05Z</time>
      </trkpt>
      <trkpt lat="49.40487" lon="1.21335">
        <ele>148</ele>
        <time>2017-02-28T15:37:05Z</time>
      </trkpt>
      <trkpt lat="49.40492" lon="1.21338">
        <ele>148</ele>
        <time>2017-02-28T15:37:05Z</time>
      </trkpt>
      <trkpt lat="49.40497" lon="1.21342">
        <ele>148</ele>
        <time>2017-02-28T15:37:21Z</time>
      </trkpt>
      <trkpt lat="49.40501" lon="1.21345">
        <ele>148</ele>
        <time>2017-02-28T15:37:21Z</time>
      </trkpt>
      <trkpt lat="49.40505" lon="1.21347">
        <ele>148</ele>
        <time>2017-02-28T15:37:21Z</time>
      </trkpt>
      <trkpt lat="49.40509" lon="1.21348">
        <ele>148</ele>
        <time>2017-02-28T15:37:21Z</time>
      </trkpt>
      <trkpt lat="49.40512" lon="1.21352">
        <ele>148</ele>
        <time>2017-02-28T15:37:37Z</time>
      </trkpt>
      <trkpt lat="49.40515" lon="1.21353">
        <ele>148</ele>
        <time>2017-02-28T15:37:37Z</time>
      </trkpt>
      <trkpt lat="49.4052" lon="1.21357">
        <ele>148</ele>
        <time>2017-02-28T15:37:37Z</time>
      </trkpt>
      <trkpt lat="49.40522" lon="1.21361">
        <ele>148</ele>
        <time>2017-02-28T15:37:37Z</time>
      </trkpt>
      <trkpt lat="49.40529" lon="1.21365">
        <ele>148</ele>
        <time>2017-02-28T15:37:54Z</time>
      </trkpt>
      <trkpt lat="49.40533" lon="1.21367">
        <ele>148</ele>
        <time>2017-02-28T15:37:54Z</time>
      </trkpt>
      <trkpt lat="49.40539" lon="1.2137">
        <ele>148</ele>
        <time>2017-02-28T15:37:54Z</time>
      </trkpt>
      <trkpt lat="49.40544" lon="1.21372">
        <ele>145</ele>
        <time>2017-02-28T15:37:54Z</time>
      </trkpt>
      <trkpt lat="49.4055" lon="1.21376">
        <ele>151</ele>
        <time>2017-02-28T15:38:09Z</time>
      </trkpt>
      <trkpt lat="49.40555" lon="1.2138">
        <ele>151</ele>
        <time>2017-02-28T15:38:09Z</time>
      </trkpt>
      <trkpt lat="49.4056" lon="1.21384">
        <ele>151</ele>
        <time>2017-02-28T15:38:09Z</time>
      </trkpt>
      <trkpt lat="49.40565" lon="1.21387">
        <ele>151</ele>
        <time>2017-02-28T15:38:09Z</time>
      </trkpt>
      <trkpt lat="49.40568" lon="1.21388">
        <ele>151</ele>
        <time>2017-02-28T15:38:30Z</time>
      </trkpt>
      <trkpt lat="49.40569" lon="1.21388">
        <ele>151</ele>
        <time>2017-02-28T15:38:30Z</time>
      </trkpt>
      <trkpt lat="49.40571" lon="1.21389">
        <ele>151</ele>
        <time>2017-02-28T15:38:30Z</time>
      </trkpt>
      <trkpt lat="49.40575" lon="1.21395">
        <ele>151</ele>
        <time>2017-02-28T15:38:30Z</time>
      </trkpt>
      <trkpt lat="49.40577" lon="1.214">
        <ele>151</ele>
        <time>2017-02-28T15:38:30Z</time>
      </trkpt>
      <trkpt lat="49.40579" lon="1.21416">
        <ele>151</ele>
        <time>2017-02-28T15:39:01Z</time>
      </trkpt>
      <trkpt lat="49.40578" lon="1.21417">
        <ele>151</ele>
        <time>2017-02-28T15:39:01Z</time>
      </trkpt>
      <trkpt lat="49.40578" lon="1.21419">
        <ele>151</ele>
        <time>2017-02-28T15:39:01Z</time>
      </trkpt>
      <trkpt lat="49.40581" lon="1.21419">
        <ele>151</ele>
        <time>2017-02-28T15:39:01Z</time>
      </trkpt>
      <trkpt lat="49.40584" lon="1.21419">
        <ele>151</ele>
        <time>2017-02-28T15:39:01Z</time>
      </trkpt>
      <trkpt lat="49.40589" lon="1.21424">
        <ele>151</ele>
        <time>2017-02-28T15:39:22Z</time>
      </trkpt>
      <trkpt lat="49.40589" lon="1.21427">
        <ele>151</ele>
        <time>2017-02-28T15:39:22Z</time>
      </trkpt>
      <trkpt lat="49.40587" lon="1.21431">
        <ele>151</ele>
        <time>2017-02-28T15:39:22Z</time>
      </trkpt>
      <trkpt lat="49.40585" lon="1.21435">
        <ele>151</ele>
        <time>2017-02-28T15:39:22Z</time>
      </trkpt>
      <trkpt lat="49.40583" lon="1.21438">
        <ele>151</ele>
        <time>2017-02-28T15:39:22Z</time>
      </trkpt>
      <trkpt lat="49.4058" lon="1.21441">
        <ele>151</ele>
        <time>2017-02-28T15:39:42Z</time>
      </trkpt>
      <trkpt lat="49.40578" lon="1.21443">
        <ele>151</ele>
        <time>2017-02-28T15:39:42Z</time>
      </trkpt>
      <trkpt lat="49.40577" lon="1.21445">
        <ele>151</ele>
        <time>2017-02-28T15:39:42Z</time>
      </trkpt>
      <trkpt lat="49.40575" lon="1.21447">
        <ele>151</ele>
        <time>2017-02-28T15:39:42Z</time>
      </trkpt>
      <trkpt lat="49.40573" lon="1.21449">
        <ele>151</ele>
        <time>2017-02-28T15:39:42Z</time>
      </trkpt>
      <trkpt lat="49.40572" lon="1.21448">
        <ele>151</ele>
        <time>2017-02-28T15:39:57Z</time>
      </trkpt>
      <trkpt lat="49.40577" lon="1.2144">
        <ele>151</ele>
        <time>2017-02-28T15:39:57Z</time>
      </trkpt>
      <trkpt lat="49.40581" lon="1.21431">
        <ele>151</ele>
        <time>2017-02-28T15:39:57Z</time>
      </trkpt>
      <trkpt lat="49.40582" lon="1.21424">
        <ele>151</ele>
        <time>2017-02-28T15:39:57Z</time>
      </trkpt>
      <trkpt lat="49.40583" lon="1.21421">
        <ele>151</ele>
        <time>2017-02-28T15:40:13Z</time>
      </trkpt>
      <trkpt lat="49.40587" lon="1.21416">
        <ele>151</ele>
        <time>2017-02-28T15:40:13Z</time>
      </trkpt>
      <trkpt lat="49.40592" lon="1.21412">
        <ele>151</ele>
        <time>2017-02-28T15:40:13Z</time>
      </trkpt>
      <trkpt lat="49.40596" lon="1.2141">
        <ele>151</ele>
        <time>2017-02-28T15:40:13Z</time>
      </trkpt>
      <trkpt lat="49.406" lon="1.21407">
        <ele>151</ele>
        <time>2017-02-28T15:40:34Z</time>
      </trkpt>
      <trkpt lat="49.40602" lon="1.21406">
        <ele>151</ele>
        <time>2017-02-28T15:40:34Z</time>
      </trkpt>
      <trkpt lat="49.40604" lon="1.21412">
        <ele>151</ele>
        <time>2017-02-28T15:40:34Z</time>
      </trkpt>
      <trkpt lat="49.40605" lon="1.21412">
        <ele>151</ele>
        <time>2017-02-28T15:40:34Z</time>
      </trkpt>
      <trkpt lat="49.4061" lon="1.2141">
        <ele>151</ele>
        <time>2017-02-28T15:40:34Z</time>
      </trkpt>
      <trkpt lat="49.40612" lon="1.21408">
        <ele>151</ele>
        <time>2017-02-28T15:40:58Z</time>
      </trkpt>
      <trkpt lat="49.40614" lon="1.21406">
        <ele>151</ele>
        <time>2017-02-28T15:40:58Z</time>
      </trkpt>
      <trkpt lat="49.40615" lon="1.21407">
        <ele>151</ele>
        <time>2017-02-28T15:40:58Z</time>
      </trkpt>
      <trkpt lat="49.40616" lon="1.21407">
        <ele>151</ele>
        <time>2017-02-28T15:40:58Z</time>
      </trkpt>
      <trkpt lat="49.40623" lon="1.21407">
        <ele>151</ele>
        <time>2017-02-28T15:40:58Z</time>
      </trkpt>
      <trkpt lat="49.40628" lon="1.21408">
        <ele>149</ele>
        <time>2017-02-28T15:42:02Z</time>
      </trkpt>
      <trkpt lat="49.40629" lon="1.21409">
        <ele>149</ele>
        <time>2017-02-28T15:42:02Z</time>
      </trkpt>
      <trkpt lat="49.40631" lon="1.21412">
        <ele>149</ele>
        <time>2017-02-28T15:42:02Z</time>
      </trkpt>
      <trkpt lat="49.40632" lon="1.21413">
        <ele>149</ele>
        <time>2017-02-28T15:42:02Z</time>
      </trkpt>
      <trkpt lat="49.4066" lon="1.21404">
        <ele>149</ele>
        <time>2017-02-28T15:42:02Z</time>
      </trkpt>
      <trkpt lat="49.40744" lon="1.21431">
        <ele>143</ele>
        <time>2017-02-28T15:47:13Z</time>
      </trkpt>
      <trkpt lat="49.40746" lon="1.21432">
        <ele>143</ele>
        <time>2017-02-28T15:47:13Z</time>
      </trkpt>
      <trkpt lat="49.40747" lon="1.21431">
        <ele>143</ele>
        <time>2017-02-28T15:47:13Z</time>
      </trkpt>
      <trkpt lat="49.40747" lon="1.21431">
        <ele>143</ele>
        <time>2017-02-28T15:47:13Z</time>
      </trkpt>
      <trkpt lat="49.40753" lon="1.21439">
        <ele>143</ele>
        <time>2017-02-28T15:47:13Z</time>
      </trkpt>
      <trkpt lat="49.40764" lon="1.21433">
        <ele>143</ele>
        <time>2017-02-28T15:50:21Z</time>
      </trkpt>
      <trkpt lat="49.40764" lon="1.21433">
        <ele>143</ele>
        <time>2017-02-28T15:50:21Z</time>
      </trkpt>
      <trkpt lat="49.40779" lon="1.21427">
        <ele>143</ele>
        <time>2017-02-28T15:50:21Z</time>
      </trkpt>
      <trkpt lat="49.41098" lon="1.21403">
        <ele>128</ele>
        <time>2017-02-28T15:50:21Z</time>
      </trkpt>
      <trkpt lat="49.41115" lon="1.21401">
        <ele>128</ele>
        <time>2017-02-28T15:50:37Z</time>
      </trkpt>
      <trkpt lat="49.41129" lon="1.21399">
        <ele>119</ele>
        <time>2017-02-28T15:50:37Z</time>
      </trkpt>
      <trkpt lat="49.41142" lon="1.21399">
        <ele>119</ele>
        <time>2017-02-28T15:50:37Z</time>
      </trkpt>
      <trkpt lat="49.41154" lon="1.214">
        <ele>119</ele>
        <time>2017-02-28T15:50:37Z</time>
      </trkpt>
      <trkpt lat="49.41168" lon="1.214">
        <ele>119</ele>
        <time>2017-02-28T15:50:53Z</time>
      </trkpt>
      <trkpt lat="49.41179" lon="1.21401">
        <ele>119</ele>
        <time>2017-02-28T15:50:53Z</time>
      </trkpt>
      <trkpt lat="49.41192" lon="1.21403">
        <ele>119</ele>
        <time>2017-02-28T15:50:53Z</time>
      </trkpt>
      <trkpt lat="49.41205" lon="1.21404">
        <ele>119</ele>
        <time>2017-02-28T15:50:53Z</time>
      </trkpt>
      <trkpt lat="49.41217" lon="1.21406">
        <ele>106</ele>
        <time>2017-02-28T15:51:09Z</time>
      </trkpt>
      <trkpt lat="49.41229" lon="1.21408">
        <ele>106</ele>
        <time>2017-02-28T15:51:09Z</time>
      </trkpt>
      <trkpt lat="49.4124" lon="1.2141">
        <ele>106</ele>
        <time>2017-02-28T15:51:09Z</time>
      </trkpt>
      <trkpt lat="49.41251" lon="1.21412">
        <ele>106</ele>
        <time>2017-02-28T15:51:09Z</time>
      </trkpt>
      <trkpt lat="49.41258" lon="1.21413">
        <ele>106</ele>
        <time>2017-02-28T15:51:25Z</time>
      </trkpt>
      <trkpt lat="49.41264" lon="1.21417">
        <ele>106</ele>
        <time>2017-02-28T15:51:25Z</time>
      </trkpt>
      <trkpt lat="49.41271" lon="1.21419">
        <ele>106</ele>
        <time>2017-02-28T15:51:25Z</time>
      </trkpt>
      <trkpt lat="49.41278" lon="1.21424">
        <ele>106</ele>
        <time>2017-02-28T15:51:25Z</time>
      </trkpt>
      <trkpt lat="49.41283" lon="1.21429">
        <ele>106</ele>
        <time>2017-02-28T15:51:41Z</time>
      </trkpt>
      <trkpt lat="49.41291" lon="1.21435">
        <ele>106</ele>
        <time>2017-02-28T15:51:41Z</time>
      </trkpt>
      <trkpt lat="49.41294" lon="1.21439">
        <ele>93</ele>
        <time>2017-02-28T15:51:41Z</time>
      </trkpt>
      <trkpt lat="49.41298" lon="1.21444">
        <ele>93</ele>
        <time>2017-02-28T15:51:41Z</time>
      </trkpt>
      <trkpt lat="49.41302" lon="1.21449">
        <ele>93</ele>
        <time>2017-02-28T15:51:57Z</time>
      </trkpt>
      <trkpt lat="49.41307" lon="1.21456">
        <ele>93</ele>
        <time>2017-02-28T15:51:57Z</time>
      </trkpt>
      <trkpt lat="49.41311" lon="1.21459">
        <ele>95</ele>
        <time>2017-02-28T15:51:57Z</time>
      </trkpt>
      <trkpt lat="49.41315" lon="1.21463">
        <ele>95</ele>
        <time>2017-02-28T15:51:57Z</time>
      </trkpt>
      <trkpt lat="49.41319" lon="1.21468">
        <ele>95</ele>
        <time>2017-02-28T15:52:13Z</time>
      </trkpt>
      <trkpt lat="49.41323" lon="1.21471">
        <ele>95</ele>
        <time>2017-02-28T15:52:13Z</time>
      </trkpt>
      <trkpt lat="49.41327" lon="1.21475">
        <ele>95</ele>
        <time>2017-02-28T15:52:13Z</time>
      </trkpt>
      <trkpt lat="49.4133" lon="1.21478">
        <ele>95</ele>
        <time>2017-02-28T15:52:13Z</time>
      </trkpt>
      <trkpt lat="49.41332" lon="1.21478">
        <ele>95</ele>
        <time>2017-02-28T15:52:29Z</time>
      </trkpt>
      <trkpt lat="49.41335" lon="1.21475">
        <ele>95</ele>
        <time>2017-02-28T15:52:29Z</time>
      </trkpt>
      <trkpt lat="49.41339" lon="1.21473">
        <ele>95</ele>
        <time>2017-02-28T15:52:29Z</time>
      </trkpt>
      <trkpt lat="49.41342" lon="1.21473">
        <ele>95</ele>
        <time>2017-02-28T15:52:29Z</time>
      </trkpt>
      <trkpt lat="49.41347" lon="1.21471">
        <ele>95</ele>
        <time>2017-02-28T15:52:45Z</time>
      </trkpt>
      <trkpt lat="49.41351" lon="1.21468">
        <ele>95</ele>
        <time>2017-02-28T15:52:45Z</time>
      </trkpt>
      <trkpt lat="49.41356" lon="1.21465">
        <ele>95</ele>
        <time>2017-02-28T15:52:45Z</time>
      </trkpt>
      <trkpt lat="49.41356" lon="1.21461">
        <ele>95</ele>
        <time>2017-02-28T15:52:45Z</time>
      </trkpt>
      <trkpt lat="49.41356" lon="1.21458">
        <ele>93</ele>
        <time>2017-02-28T15:53:02Z</time>
      </trkpt>
      <trkpt lat="49.41356" lon="1.21454">
        <ele>93</ele>
        <time>2017-02-28T15:53:02Z</time>
      </trkpt>
      <trkpt lat="49.41356" lon="1.21449">
        <ele>93</ele>
        <time>2017-02-28T15:53:02Z</time>
      </trkpt>
      <trkpt lat="49.41358" lon="1.21442">
        <ele>93</ele>
        <time>2017-02-28T15:53:02Z</time>
      </trkpt>
      <trkpt lat="49.41359" lon="1.21433">
        <ele>93</ele>
        <time>2017-02-28T15:53:26Z</time>
      </trkpt>
      <trkpt lat="49.41359" lon="1.21429">
        <ele>93</ele>
        <time>2017-02-28T15:53:26Z</time>
      </trkpt>
      <trkpt lat="49.41359" lon="1.21427">
        <ele>93</ele>
        <time>2017-02-28T15:53:26Z</time>
      </trkpt>
      <trkpt lat="49.41359" lon="1.21423">
        <ele>93</ele>
        <time>2017-02-28T15:53:26Z</time>
      </trkpt>
      <trkpt lat="49.41359" lon="1.21418">
        <ele>93</ele>
        <time>2017-02-28T15:53:26Z</time>
      </trkpt>
      <trkpt lat="49.41359" lon="1.21413">
        <ele>93</ele>
        <time>2017-02-28T15:53:45Z</time>
      </trkpt>
      <trkpt lat="49.41359" lon="1.21409">
        <ele>93</ele>
        <time>2017-02-28T15:53:45Z</time>
      </trkpt>
      <trkpt lat="49.41358" lon="1.21406">
        <ele>93</ele>
        <time>2017-02-28T15:53:45Z</time>
      </trkpt>
      <trkpt lat="49.41358" lon="1.21402">
        <ele>93</ele>
        <time>2017-02-28T15:53:45Z</time>
      </trkpt>
      <trkpt lat="49.41358" lon="1.21397">
        <ele>93</ele>
        <time>2017-02-28T15:53:45Z</time>
      </trkpt>
      <trkpt lat="49.41364" lon="1.21388">
        <ele>93</ele>
        <time>2017-02-28T15:54:13Z</time>
      </trkpt>
      <trkpt lat="49.41364" lon="1.21386">
        <ele>93</ele>
        <time>2017-02-28T15:54:13Z</time>
      </trkpt>
      <trkpt lat="49.41364" lon="1.21383">
        <ele>93</ele>
        <time>2017-02-28T15:54:14Z</time>
      </trkpt>
      <trkpt lat="49.41364" lon="1.21379">
        <ele>93</ele>
        <time>2017-02-28T15:54:14Z</time>
      </trkpt>
      <trkpt lat="49.41364" lon="1.21376">
        <ele>93</ele>
        <time>2017-02-28T15:54:14Z</time>
      </trkpt>
      <trkpt lat="49.41363" lon="1.21369">
        <ele>90</ele>
        <time>2017-02-28T15:54:37Z</time>
      </trkpt>
      <trkpt lat="49.41363" lon="1.21367">
        <ele>90</ele>
        <time>2017-02-28T15:54:37Z</time>
      </trkpt>
      <trkpt lat="49.41362" lon="1.21364">
        <ele>90</ele>
        <time>2017-02-28T15:54:37Z</time>
      </trkpt>
      <trkpt lat="49.41362" lon="1.21362">
        <ele>90</ele>
        <time>2017-02-28T15:54:37Z</time>
      </trkpt>
      <trkpt lat="49.41361" lon="1.21359">
        <ele>90</ele>
        <time>2017-02-28T15:54:37Z</time>
      </trkpt>
      <trkpt lat="49.4136" lon="1.21355">
        <ele>90</ele>
        <time>2017-02-28T15:55:01Z</time>
      </trkpt>
      <trkpt lat="49.41359" lon="1.21353">
        <ele>90</ele>
        <time>2017-02-28T15:55:01Z</time>
      </trkpt>
      <trkpt lat="49.41359" lon="1.21349">
        <ele>90</ele>
        <time>2017-02-28T15:55:01Z</time>
      </trkpt>
      <trkpt lat="49.41358" lon="1.21345">
        <ele>90</ele>
        <time>2017-02-28T15:55:01Z</time>
      </trkpt>
      <trkpt lat="49.41357" lon="1.21343">
        <ele>90</ele>
        <time>2017-02-28T15:55:01Z</time>
      </trkpt>
      <trkpt lat="49.41356" lon="1.21332">
        <ele>90</ele>
        <time>2017-02-28T15:55:57Z</time>
      </trkpt>
      <trkpt lat="49.41357" lon="1.21332">
        <ele>90</ele>
        <time>2017-02-28T15:55:57Z</time>
      </trkpt>
      <trkpt lat="49.4136" lon="1.2133">
        <ele>90</ele>
        <time>2017-02-28T15:55:57Z</time>
      </trkpt>
      <trkpt lat="49.41362" lon="1.21316">
        <ele>90</ele>
        <time>2017-02-28T15:55:57Z</time>
      </trkpt>
      <trkpt lat="49.41366" lon="1.21313">
        <ele>90</ele>
        <time>2017-02-28T15:55:57Z</time>
      </trkpt>
      <trkpt lat="49.41368" lon="1.21311">
        <ele>90</ele>
        <time>2017-02-28T15:56:15Z</time>
      </trkpt>
      <trkpt lat="49.41369" lon="1.21307">
        <ele>90</ele>
        <time>2017-02-28T15:56:15Z</time>
      </trkpt>
      <trkpt lat="49.41372" lon="1.213">
        <ele>90</ele>
        <time>2017-02-28T15:56:15Z</time>
      </trkpt>
      <trkpt lat="49.41374" lon="1.21297">
        <ele>90</ele>
        <time>2017-02-28T15:56:15Z</time>
      </trkpt>
      <trkpt lat="49.41376" lon="1.21292">
        <ele>74</ele>
        <time>2017-02-28T15:56:29Z</time>
      </trkpt>
      <trkpt lat="49.41378" lon="1.21288">
        <ele>75</ele>
        <time>2017-02-28T15:56:29Z</time>
      </trkpt>
      <trkpt lat="49.4138" lon="1.2128">
        <ele>75</ele>
        <time>2017-02-28T15:56:29Z</time>
      </trkpt>
      <trkpt lat="49.41379" lon="1.21276">
        <ele>75</ele>
        <time>2017-02-28T15:56:29Z</time>
      </trkpt>
      <trkpt lat="49.41378" lon="1.21266">
        <ele>75</ele>
        <time>2017-02-28T15:56:57Z</time>
      </trkpt>
      <trkpt lat="49.41377" lon="1.21266">
        <ele>75</ele>
        <time>2017-02-28T15:56:57Z</time>
      </trkpt>
      <trkpt lat="49.41376" lon="1.21265">
        <ele>75</ele>
        <time>2017-02-28T15:56:57Z</time>
      </trkpt>
      <trkpt lat="49.41374" lon="1.21262">
        <ele>87</ele>
        <time>2017-02-28T15:56:57Z</time>
      </trkpt>
      <trkpt lat="49.41373" lon="1.21261">
        <ele>87</ele>
        <time>2017-02-28T15:56:57Z</time>
      </trkpt>
      <trkpt lat="49.41372" lon="1.2126">
        <ele>87</ele>
        <time>2017-02-28T15:57:29Z</time>
      </trkpt>
      <trkpt lat="49.4137" lon="1.21259">
        <ele>87</ele>
        <time>2017-02-28T15:57:29Z</time>
      </trkpt>
      <trkpt lat="49.41369" lon="1.21258">
        <ele>87</ele>
        <time>2017-02-28T15:57:29Z</time>
      </trkpt>
      <trkpt lat="49.41365" lon="1.2125">
        <ele>87</ele>
        <time>2017-02-28T15:57:29Z</time>
      </trkpt>
      <trkpt lat="49.41363" lon="1.21247">
        <ele>87</ele>
        <time>2017-02-28T15:57:53Z</time>
      </trkpt>
      <trkpt lat="49.41362" lon="1.21246">
        <ele>87</ele>
        <time>2017-02-28T15:57:53Z</time>
      </trkpt>
      <trkpt lat="49.41359" lon="1.21243">
        <ele>87</ele>
        <time>2017-02-28T15:57:53Z</time>
      </trkpt>
      <trkpt lat="49.41358" lon="1.21241">
        <ele>87</ele>
        <time>2017-02-28T15:57:54Z</time>
      </trkpt>
      <trkpt lat="49.41356" lon="1.21239">
        <ele>87</ele>
        <time>2017-02-28T15:57:54Z</time>
      </trkpt>
      <trkpt lat="49.41354" lon="1.21237">
        <ele>87</ele>
        <time>2017-02-28T15:59:05Z</time>
      </trkpt>
      <trkpt lat="49.41353" lon="1.21214">
        <ele>87</ele>
        <time>2017-02-28T15:59:05Z</time>
      </trkpt>
      <trkpt lat="49.41353" lon="1.21213">
        <ele>87</ele>
        <time>2017-02-28T15:59:05Z</time>
      </trkpt>
      <trkpt lat="49.41362" lon="1.21163">
        <ele>82</ele>
        <time>2017-02-28T15:59:05Z</time>
      </trkpt>
      <trkpt lat="49.41365" lon="1.21144">
        <ele>82</ele>
        <time>2017-02-28T15:59:22Z</time>
      </trkpt>
      <trkpt lat="49.41376" lon="1.21093">
        <ele>68</ele>
        <time>2017-02-28T15:59:22Z</time>
      </trkpt>
      <trkpt lat="49.41378" lon="1.21079">
        <ele>68</ele>
        <time>2017-02-28T15:59:22Z</time>
      </trkpt>
      <trkpt lat="49.41382" lon="1.21064">
        <ele>68</ele>
        <time>2017-02-28T15:59:22Z</time>
      </trkpt>
      <trkpt lat="49.41386" lon="1.21043">
        <ele>68</ele>
        <time>2017-02-28T15:59:38Z</time>
      </trkpt>
      <trkpt lat="49.4139" lon="1.21021">
        <ele>65</ele>
        <time>2017-02-28T15:59:38Z</time>
      </trkpt>
      <trkpt lat="49.41393" lon="1.21007">
        <ele>65</ele>
        <time>2017-02-28T15:59:38Z</time>
      </trkpt>
      <trkpt lat="49.41396" lon="1.20993">
        <ele>65</ele>
        <time>2017-02-28T15:59:38Z</time>
      </trkpt>
      <trkpt lat="49.41396" lon="1.20988">
        <ele>65</ele>
        <time>2017-02-28T15:59:54Z</time>
      </trkpt>
      <trkpt lat="49.41399" lon="1.2098">
        <ele>65</ele>
        <time>2017-02-28T15:59:54Z</time>
      </trkpt>
      <trkpt lat="49.414" lon="1.20972">
        <ele>65</ele>
        <time>2017-02-28T15:59:54Z</time>
      </trkpt>
      <trkpt lat="49.41402" lon="1.20964">
        <ele>65</ele>
        <time>2017-02-28T15:59:54Z</time>
      </trkpt>
      <trkpt lat="49.41406" lon="1.20953">
        <ele>65</ele>
        <time>2017-02-28T16:00:10Z</time>
      </trkpt>
      <trkpt lat="49.41409" lon="1.20945">
        <ele>65</ele>
        <time>2017-02-28T16:00:10Z</time>
      </trkpt>
      <trkpt lat="49.41409" lon="1.2094">
        <ele>65</ele>
        <time>2017-02-28T16:00:10Z</time>
      </trkpt>
      <trkpt lat="49.41408" lon="1.2093">
        <ele>65</ele>
        <time>2017-02-28T16:00:10Z</time>
      </trkpt>
      <trkpt lat="49.41407" lon="1.20924">
        <ele>65</ele>
        <time>2017-02-28T16:00:26Z</time>
      </trkpt>
      <trkpt lat="49.41404" lon="1.20917">
        <ele>65</ele>
        <time>2017-02-28T16:00:26Z</time>
      </trkpt>
      <trkpt lat="49.41402" lon="1.20911">
        <ele>65</ele>
        <time>2017-02-28T16:00:26Z</time>
      </trkpt>
      <trkpt lat="49.414" lon="1.20904">
        <ele>65</ele>
        <time>2017-02-28T16:00:26Z</time>
      </trkpt>
      <trkpt lat="49.41397" lon="1.20899">
        <ele>65</ele>
        <time>2017-02-28T16:00:42Z</time>
      </trkpt>
      <trkpt lat="49.41395" lon="1.20896">
        <ele>65</ele>
        <time>2017-02-28T16:00:42Z</time>
      </trkpt>
      <trkpt lat="49.41392" lon="1.20891">
        <ele>65</ele>
        <time>2017-02-28T16:00:43Z</time>
      </trkpt>
      <trkpt lat="49.41388" lon="1.20886">
        <ele>65</ele>
        <time>2017-02-28T16:00:43Z</time>
      </trkpt>
      <trkpt lat="49.41385" lon="1.20883">
        <ele>65</ele>
        <time>2017-02-28T16:00:57Z</time>
      </trkpt>
      <trkpt lat="49.41383" lon="1.20881">
        <ele>65</ele>
        <time>2017-02-28T16:00:57Z</time>
      </trkpt>
      <trkpt lat="49.41377" lon="1.20877">
        <ele>65</ele>
        <time>2017-02-28T16:00:57Z</time>
      </trkpt>
      <trkpt lat="49.41375" lon="1.20875">
        <ele>73</ele>
        <time>2017-02-28T16:00:57Z</time>
      </trkpt>
      <trkpt lat="49.41371" lon="1.20872">
        <ele>73</ele>
        <time>2017-02-28T16:01:13Z</time>
      </trkpt>
      <trkpt lat="49.41369" lon="1.2087">
        <ele>73</ele>
        <time>2017-02-28T16:01:13Z</time>
      </trkpt>
      <trkpt lat="49.41366" lon="1.20867">
        <ele>73</ele>
        <time>2017-02-28T16:01:13Z</time>
      </trkpt>
      <trkpt lat="49.41362" lon="1.20865">
        <ele>73</ele>
        <time>2017-02-28T16:01:13Z</time>
      </trkpt>
      <trkpt lat="49.41358" lon="1.20863">
        <ele>73</ele>
        <time>2017-02-28T16:01:30Z</time>
      </trkpt>
      <trkpt lat="49.41355" lon="1.2086">
        <ele>73</ele>
        <time>2017-02-28T16:01:30Z</time>
      </trkpt>
      <trkpt lat="49.41352" lon="1.20859">
        <ele>73</ele>
        <time>2017-02-28T16:01:30Z</time>
      </trkpt>
      <trkpt lat="49.41348" lon="1.20857">
        <ele>73</ele>
        <time>2017-02-28T16:01:30Z</time>
      </trkpt>
      <trkpt lat="49.41345" lon="1.20856">
        <ele>73</ele>
        <time>2017-02-28T16:01:45Z</time>
      </trkpt>
      <trkpt lat="49.41341" lon="1.20853">
        <ele>73</ele>
        <time>2017-02-28T16:01:45Z</time>
      </trkpt>
      <trkpt lat="49.41337" lon="1.2085">
        <ele>73</ele>
        <time>2017-02-28T16:01:45Z</time>
      </trkpt>
      <trkpt lat="49.41334" lon="1.20848">
        <ele>73</ele>
        <time>2017-02-28T16:01:45Z</time>
      </trkpt>
      <trkpt lat="49.4133" lon="1.20845">
        <ele>73</ele>
        <time>2017-02-28T16:02:02Z</time>
      </trkpt>
      <trkpt lat="49.41327" lon="1.20843">
        <ele>73</ele>
        <time>2017-02-28T16:02:02Z</time>
      </trkpt>
      <trkpt lat="49.41321" lon="1.20838">
        <ele>73</ele>
        <time>2017-02-28T16:02:02Z</time>
      </trkpt>
      <trkpt lat="49.41318" lon="1.20836">
        <ele>73</ele>
        <time>2017-02-28T16:02:02Z</time>
      </trkpt>
      <trkpt lat="49.41315" lon="1.20833">
        <ele>73</ele>
        <time>2017-02-28T16:02:18Z</time>
      </trkpt>
      <trkpt lat="49.41312" lon="1.20831">
        <ele>73</ele>
        <time>2017-02-28T16:02:18Z</time>
      </trkpt>
      <trkpt lat="49.41309" lon="1.20828">
        <ele>73</ele>
        <time>2017-02-28T16:02:18Z</time>
      </trkpt>
      <trkpt lat="49.41304" lon="1.20825">
        <ele>73</ele>
        <time>2017-02-28T16:02:18Z</time>
      </trkpt>
      <trkpt lat="49.413" lon="1.20822">
        <ele>73</ele>
        <time>2017-02-28T16:02:34Z</time>
      </trkpt>
      <trkpt lat="49.41298" lon="1.2082">
        <ele>73</ele>
        <time>2017-02-28T16:02:34Z</time>
      </trkpt>
      <trkpt lat="49.41293" lon="1.20816">
        <ele>73</ele>
        <time>2017-02-28T16:02:34Z</time>
      </trkpt>
      <trkpt lat="49.41289" lon="1.20812">
        <ele>76</ele>
        <time>2017-02-28T16:02:34Z</time>
      </trkpt>
      <trkpt lat="49.41286" lon="1.2081">
        <ele>76</ele>
        <time>2017-02-28T16:02:49Z</time>
      </trkpt>
      <trkpt lat="49.41283" lon="1.20807">
        <ele>76</ele>
        <time>2017-02-28T16:02:49Z</time>
      </trkpt>
      <trkpt lat="49.41279" lon="1.20803">
        <ele>76</ele>
        <time>2017-02-28T16:02:49Z</time>
      </trkpt>
      <trkpt lat="49.41275" lon="1.20801">
        <ele>76</ele>
        <time>2017-02-28T16:02:49Z</time>
      </trkpt>
      <trkpt lat="49.41271" lon="1.20798">
        <ele>76</ele>
        <time>2017-02-28T16:03:06Z</time>
      </trkpt>
      <trkpt lat="49.41267" lon="1.20794">
        <ele>76</ele>
        <time>2017-02-28T16:03:06Z</time>
      </trkpt>
      <trkpt lat="49.41263" lon="1.20791">
        <ele>78</ele>
        <time>2017-02-28T16:03:06Z</time>
      </trkpt>
      <trkpt lat="49.41261" lon="1.20789">
        <ele>78</ele>
        <time>2017-02-28T16:03:06Z</time>
      </trkpt>
      <trkpt lat="49.41256" lon="1.20784">
        <ele>78</ele>
        <time>2017-02-28T16:03:22Z</time>
      </trkpt>
      <trkpt lat="49.41254" lon="1.20782">
        <ele>78</ele>
        <time>2017-02-28T16:03:22Z</time>
      </trkpt>
      <trkpt lat="49.4125" lon="1.20779">
        <ele>78</ele>
        <time>2017-02-28T16:03:22Z</time>
      </trkpt>
      <trkpt lat="49.41247" lon="1.20775">
        <ele>78</ele>
        <time>2017-02-28T16:03:22Z</time>
      </trkpt>
      <trkpt lat="49.41242" lon="1.2077">
        <ele>78</ele>
        <time>2017-02-28T16:03:39Z</time>
      </trkpt>
      <trkpt lat="49.41239" lon="1.20768">
        <ele>78</ele>
        <time>2017-02-28T16:03:39Z</time>
      </trkpt>
      <trkpt lat="49.41234" lon="1.20765">
        <ele>78</ele>
        <time>2017-02-28T16:03:39Z</time>
      </trkpt>
      <trkpt lat="49.41231" lon="1.20761">
        <ele>78</ele>
        <time>2017-02-28T16:03:39Z</time>
      </trkpt>
      <trkpt lat="49.41224" lon="1.20752">
        <ele>78</ele>
        <time>2017-02-28T16:04:05Z</time>
      </trkpt>
      <trkpt lat="49.41224" lon="1.20751">
        <ele>78</ele>
        <time>2017-02-28T16:04:05Z</time>
      </trkpt>
      <trkpt lat="49.41223" lon="1.2075">
        <ele>78</ele>
        <time>2017-02-28T16:04:05Z</time>
      </trkpt>
      <trkpt lat="49.41222" lon="1.20746">
        <ele>78</ele>
        <time>2017-02-28T16:04:05Z</time>
      </trkpt>
      <trkpt lat="49.41217" lon="1.20735">
        <ele>78</ele>
        <time>2017-02-28T16:04:05Z</time>
      </trkpt>
      <trkpt lat="49.41213" lon="1.20727">
        <ele>78</ele>
        <time>2017-02-28T16:04:21Z</time>
      </trkpt>
      <trkpt lat="49.4121" lon="1.20722">
        <ele>78</ele>
        <time>2017-02-28T16:04:21Z</time>
      </trkpt>
      <trkpt lat="49.41207" lon="1.20714">
        <ele>83</ele>
        <time>2017-02-28T16:04:21Z</time>
      </trkpt>
      <trkpt lat="49.41205" lon="1.20708">
        <ele>92</ele>
        <time>2017-02-28T16:04:21Z</time>
      </trkpt>
      <trkpt lat="49.41203" lon="1.20702">
        <ele>92</ele>
        <time>2017-02-28T16:04:37Z</time>
      </trkpt>
      <trkpt lat="49.41201" lon="1.20698">
        <ele>92</ele>
        <time>2017-02-28T16:04:37Z</time>
      </trkpt>
      <trkpt lat="49.412" lon="1.20692">
        <ele>92</ele>
        <time>2017-02-28T16:04:37Z</time>
      </trkpt>
      <trkpt lat="49.41199" lon="1.20688">
        <ele>92</ele>
        <time>2017-02-28T16:04:37Z</time>
      </trkpt>
      <trkpt lat="49.412" lon="1.20685">
        <ele>92</ele>
        <time>2017-02-28T16:04:57Z</time>
      </trkpt>
      <trkpt lat="49.41198" lon="1.2068">
        <ele>92</ele>
        <time>2017-02-28T16:04:57Z</time>
      </trkpt>
      <trkpt lat="49.41198" lon="1.20676">
        <ele>92</ele>
        <time>2017-02-28T16:04:58Z</time>
      </trkpt>
      <trkpt lat="49.41198" lon="1.20673">
        <ele>92</ele>
        <time>2017-02-28T16:04:58Z</time>
      </trkpt>
      <trkpt lat="49.412" lon="1.20666">
        <ele>92</ele>
        <time>2017-02-28T16:04:58Z</time>
      </trkpt>
      <trkpt lat="49.412" lon="1.20663">
        <ele>92</ele>
        <time>2017-02-28T16:05:13Z</time>
      </trkpt>
      <trkpt lat="49.412" lon="1.20659">
        <ele>92</ele>
        <time>2017-02-28T16:05:13Z</time>
      </trkpt>
      <trkpt lat="49.41202" lon="1.20656">
        <ele>92</ele>
        <time>2017-02-28T16:05:13Z</time>
      </trkpt>
      <trkpt lat="49.41206" lon="1.20646">
        <ele>92</ele>
        <time>2017-02-28T16:05:13Z</time>
      </trkpt>
      <trkpt lat="49.41205" lon="1.20639">
        <ele>92</ele>
        <time>2017-02-28T16:05:37Z</time>
      </trkpt>
      <trkpt lat="49.41204" lon="1.20635">
        <ele>92</ele>
        <time>2017-02-28T16:05:37Z</time>
      </trkpt>
      <trkpt lat="49.41203" lon="1.20635">
        <ele>92</ele>
        <time>2017-02-28T16:05:37Z</time>
      </trkpt>
      <trkpt lat="49.41202" lon="1.20631">
        <ele>92</ele>
        <time>2017-02-28T16:05:37Z</time>
      </trkpt>
      <trkpt lat="49.41201" lon="1.20628">
        <ele>92</ele>
        <time>2017-02-28T16:05:37Z</time>
      </trkpt>
      <trkpt lat="49.41199" lon="1.20627">
        <ele>92</ele>
        <time>2017-02-28T16:05:53Z</time>
      </trkpt>
      <trkpt lat="49.41197" lon="1.20623">
        <ele>105</ele>
        <time>2017-02-28T16:05:53Z</time>
      </trkpt>
      <trkpt lat="49.41198" lon="1.20613">
        <ele>105</ele>
        <time>2017-02-28T16:05:53Z</time>
      </trkpt>
      <trkpt lat="49.41198" lon="1.20604">
        <ele>105</ele>
        <time>2017-02-28T16:05:53Z</time>
      </trkpt>
      <trkpt lat="49.41197" lon="1.20595">
        <ele>105</ele>
        <time>2017-02-28T16:06:17Z</time>
      </trkpt>
      <trkpt lat="49.41196" lon="1.2059">
        <ele>105</ele>
        <time>2017-02-28T16:06:17Z</time>
      </trkpt>
      <trkpt lat="49.41195" lon="1.20589">
        <ele>105</ele>
        <time>2017-02-28T16:06:17Z</time>
      </trkpt>
      <trkpt lat="49.41194" lon="1.20588">
        <ele>105</ele>
        <time>2017-02-28T16:06:17Z</time>
      </trkpt>
      <trkpt lat="49.41193" lon="1.20586">
        <ele>105</ele>
        <time>2017-02-28T16:06:17Z</time>
      </trkpt>
      <trkpt lat="49.41191" lon="1.20583">
        <ele>105</ele>
        <time>2017-02-28T16:06:41Z</time>
      </trkpt>
      <trkpt lat="49.41189" lon="1.2058">
        <ele>105</ele>
        <time>2017-02-28T16:06:41Z</time>
      </trkpt>
      <trkpt lat="49.41189" lon="1.20577">
        <ele>105</ele>
        <time>2017-02-28T16:06:41Z</time>
      </trkpt>
      <trkpt lat="49.41187" lon="1.20573">
        <ele>105</ele>
        <time>2017-02-28T16:06:41Z</time>
      </trkpt>
      <trkpt lat="49.41187" lon="1.2057">
        <ele>105</ele>
        <time>2017-02-28T16:06:41Z</time>
      </trkpt>
      <trkpt lat="49.41187" lon="1.20565">
        <ele>105</ele>
        <time>2017-02-28T16:06:57Z</time>
      </trkpt>
      <trkpt lat="49.41188" lon="1.2056">
        <ele>105</ele>
        <time>2017-02-28T16:06:57Z</time>
      </trkpt>
      <trkpt lat="49.41187" lon="1.20555">
        <ele>105</ele>
        <time>2017-02-28T16:06:57Z</time>
      </trkpt>
      <trkpt lat="49.41184" lon="1.20552">
        <ele>105</ele>
        <time>2017-02-28T16:06:57Z</time>
      </trkpt>
      <trkpt lat="49.41183" lon="1.20551">
        <ele>105</ele>
        <time>2017-02-28T16:07:13Z</time>
      </trkpt>
      <trkpt lat="49.41181" lon="1.20549">
        <ele>105</ele>
        <time>2017-02-28T16:07:13Z</time>
      </trkpt>
      <trkpt lat="49.41179" lon="1.20541">
        <ele>115</ele>
        <time>2017-02-28T16:07:13Z</time>
      </trkpt>
      <trkpt lat="49.41178" lon="1.20538">
        <ele>115</ele>
        <time>2017-02-28T16:07:13Z</time>
      </trkpt>
      <trkpt lat="49.41179" lon="1.20532">
        <ele>115</ele>
        <time>2017-02-28T16:07:33Z</time>
      </trkpt>
      <trkpt lat="49.4118" lon="1.20527">
        <ele>115</ele>
        <time>2017-02-28T16:07:33Z</time>
      </trkpt>
      <trkpt lat="49.41178" lon="1.20522">
        <ele>115</ele>
        <time>2017-02-28T16:07:33Z</time>
      </trkpt>
      <trkpt lat="49.41176" lon="1.2052">
        <ele>115</ele>
        <time>2017-02-28T16:07:33Z</time>
      </trkpt>
      <trkpt lat="49.41173" lon="1.20517">
        <ele>115</ele>
        <time>2017-02-28T16:07:33Z</time>
      </trkpt>
      <trkpt lat="49.41172" lon="1.20514">
        <ele>115</ele>
        <time>2017-02-28T16:07:53Z</time>
      </trkpt>
      <trkpt lat="49.4117" lon="1.2051">
        <ele>115</ele>
        <time>2017-02-28T16:07:53Z</time>
      </trkpt>
      <trkpt lat="49.41168" lon="1.20508">
        <ele>115</ele>
        <time>2017-02-28T16:07:53Z</time>
      </trkpt>
      <trkpt lat="49.41165" lon="1.20506">
        <ele>115</ele>
        <time>2017-02-28T16:07:53Z</time>
      </trkpt>
      <trkpt lat="49.41164" lon="1.20506">
        <ele>115</ele>
        <time>2017-02-28T16:07:53Z</time>
      </trkpt>
      <trkpt lat="49.41162" lon="1.20504">
        <ele>115</ele>
        <time>2017-02-28T16:08:13Z</time>
      </trkpt>
      <trkpt lat="49.4116" lon="1.20501">
        <ele>115</ele>
        <time>2017-02-28T16:08:13Z</time>
      </trkpt>
      <trkpt lat="49.41158" lon="1.20498">
        <ele>115</ele>
        <time>2017-02-28T16:08:13Z</time>
      </trkpt>
      <trkpt lat="49.41156" lon="1.20496">
        <ele>115</ele>
        <time>2017-02-28T16:08:13Z</time>
      </trkpt>
      <trkpt lat="49.41153" lon="1.20493">
        <ele>115</ele>
        <time>2017-02-28T16:08:13Z</time>
      </trkpt>
      <trkpt lat="49.41152" lon="1.2049">
        <ele>115</ele>
        <time>2017-02-28T16:08:33Z</time>
      </trkpt>
      <trkpt lat="49.41151" lon="1.20486">
        <ele>115</ele>
        <time>2017-02-28T16:08:33Z</time>
      </trkpt>
      <trkpt lat="49.41149" lon="1.20483">
        <ele>115</ele>
        <time>2017-02-28T16:08:33Z</time>
      </trkpt>
      <trkpt lat="49.41149" lon="1.20478">
        <ele>115</ele>
        <time>2017-02-28T16:08:33Z</time>
      </trkpt>
      <trkpt lat="49.41149" lon="1.20473">
        <ele>115</ele>
        <time>2017-02-28T16:08:33Z</time>
      </trkpt>
      <trkpt lat="49.41147" lon="1.20468">
        <ele>115</ele>
        <time>2017-02-28T16:08:53Z</time>
      </trkpt>
      <trkpt lat="49.41147" lon="1.20465">
        <ele>115</ele>
        <time>2017-02-28T16:08:53Z</time>
      </trkpt>
      <trkpt lat="49.41145" lon="1.20461">
        <ele>115</ele>
        <time>2017-02-28T16:08:53Z</time>
      </trkpt>
      <trkpt lat="49.41144" lon="1.20459">
        <ele>115</ele>
        <time>2017-02-28T16:08:53Z</time>
      </trkpt>
      <trkpt lat="49.41142" lon="1.20456">
        <ele>120</ele>
        <time>2017-02-28T16:08:53Z</time>
      </trkpt>
      <trkpt lat="49.41141" lon="1.20451">
        <ele>120</ele>
        <time>2017-02-28T16:09:09Z</time>
      </trkpt>
      <trkpt lat="49.4114" lon="1.20448">
        <ele>120</ele>
        <time>2017-02-28T16:09:09Z</time>
      </trkpt>
      <trkpt lat="49.41139" lon="1.20443">
        <ele>120</ele>
        <time>2017-02-28T16:09:09Z</time>
      </trkpt>
      <trkpt lat="49.41139" lon="1.20437">
        <ele>120</ele>
        <time>2017-02-28T16:09:09Z</time>
      </trkpt>
      <trkpt lat="49.41138" lon="1.20433">
        <ele>120</ele>
        <time>2017-02-28T16:09:25Z</time>
      </trkpt>
      <trkpt lat="49.41137" lon="1.20428">
        <ele>120</ele>
        <time>2017-02-28T16:09:25Z</time>
      </trkpt>
      <trkpt lat="49.41136" lon="1.20423">
        <ele>120</ele>
        <time>2017-02-28T16:09:25Z</time>
      </trkpt>
      <trkpt lat="49.41135" lon="1.20419">
        <ele>120</ele>
        <time>2017-02-28T16:09:25Z</time>
      </trkpt>
      <trkpt lat="49.41136" lon="1.20404">
        <ele>120</ele>
        <time>2017-02-28T16:20:21Z</time>
      </trkpt>
      <trkpt lat="49.41135" lon="1.20403">
        <ele>120</ele>
        <time>2017-02-28T16:20:21Z</time>
      </trkpt>
      <trkpt lat="49.41136" lon="1.20403">
        <ele>120</ele>
        <time>2017-02-28T16:20:21Z</time>
      </trkpt>
      <trkpt lat="49.41136" lon="1.20403">
        <ele>120</ele>
        <time>2017-02-28T16:20:21Z</time>
      </trkpt>
      <trkpt lat="49.41134" lon="1.204">
        <ele>120</ele>
        <time>2017-02-28T16:20:21Z</time>
      </trkpt>
      <trkpt lat="49.41134" lon="1.20399">
        <ele>120</ele>
        <time>2017-02-28T16:20:45Z</time>
      </trkpt>
      <trkpt lat="49.41134" lon="1.20396">
        <ele>120</ele>
        <time>2017-02-28T16:20:45Z</time>
      </trkpt>
      <trkpt lat="49.41133" lon="1.20392">
        <ele>120</ele>
        <time>2017-02-28T16:20:45Z</time>
      </trkpt>
      <trkpt lat="49.41131" lon="1.20389">
        <ele>120</ele>
        <time>2017-02-28T16:20:45Z</time>
      </trkpt>
      <trkpt lat="49.41129" lon="1.20386">
        <ele>120</ele>
        <time>2017-02-28T16:20:45Z</time>
      </trkpt>
      <trkpt lat="49.41127" lon="1.20384">
        <ele>120</ele>
        <time>2017-02-28T16:21:06Z</time>
      </trkpt>
      <trkpt lat="49.41125" lon="1.20381">
        <ele>120</ele>
        <time>2017-02-28T16:21:06Z</time>
      </trkpt>
      <trkpt lat="49.41123" lon="1.20379">
        <ele>123</ele>
        <time>2017-02-28T16:21:06Z</time>
      </trkpt>
      <trkpt lat="49.4112" lon="1.20377">
        <ele>123</ele>
        <time>2017-02-28T16:21:06Z</time>
      </trkpt>
      <trkpt lat="49.41116" lon="1.20376">
        <ele>123</ele>
        <time>2017-02-28T16:21:06Z</time>
      </trkpt>
      <trkpt lat="49.41114" lon="1.20375">
        <ele>123</ele>
        <time>2017-02-28T16:21:21Z</time>
      </trkpt>
      <trkpt lat="49.41111" lon="1.20374">
        <ele>123</ele>
        <time>2017-02-28T16:21:21Z</time>
      </trkpt>
      <trkpt lat="49.41107" lon="1.20373">
        <ele>123</ele>
        <time>2017-02-28T16:21:21Z</time>
      </trkpt>
      <trkpt lat="49.41103" lon="1.20373">
        <ele>123</ele>
        <time>2017-02-28T16:21:21Z</time>
      </trkpt>
      <trkpt lat="49.41097" lon="1.20372">
        <ele>123</ele>
        <time>2017-02-28T16:21:37Z</time>
      </trkpt>
      <trkpt lat="49.41096" lon="1.20372">
        <ele>123</ele>
        <time>2017-02-28T16:21:37Z</time>
      </trkpt>
      <trkpt lat="49.41092" lon="1.20371">
        <ele>123</ele>
        <time>2017-02-28T16:21:37Z</time>
      </trkpt>
      <trkpt lat="49.41088" lon="1.20372">
        <ele>123</ele>
        <time>2017-02-28T16:21:37Z</time>
      </trkpt>
      <trkpt lat="49.41084" lon="1.20371">
        <ele>123</ele>
        <time>2017-02-28T16:21:53Z</time>
      </trkpt>
      <trkpt lat="49.4108" lon="1.2037">
        <ele>123</ele>
        <time>2017-02-28T16:21:53Z</time>
      </trkpt>
      <trkpt lat="49.41075" lon="1.20368">
        <ele>123</ele>
        <time>2017-02-28T16:21:53Z</time>
      </trkpt>
      <trkpt lat="49.41073" lon="1.20366">
        <ele>123</ele>
        <time>2017-02-28T16:21:53Z</time>
      </trkpt>
      <trkpt lat="49.41068" lon="1.20363">
        <ele>123</ele>
        <time>2017-02-28T16:22:09Z</time>
      </trkpt>
      <trkpt lat="49.41064" lon="1.2036">
        <ele>123</ele>
        <time>2017-02-28T16:22:09Z</time>
      </trkpt>
      <trkpt lat="49.41061" lon="1.20357">
        <ele>123</ele>
        <time>2017-02-28T16:22:09Z</time>
      </trkpt>
      <trkpt lat="49.41056" lon="1.20352">
        <ele>123</ele>
        <time>2017-02-28T16:22:09Z</time>
      </trkpt>
      <trkpt lat="49.41053" lon="1.20348">
        <ele>123</ele>
        <time>2017-02-28T16:22:25Z</time>
      </trkpt>
      <trkpt lat="49.4105" lon="1.20344">
        <ele>123</ele>
        <time>2017-02-28T16:22:25Z</time>
      </trkpt>
      <trkpt lat="49.41045" lon="1.20338">
        <ele>123</ele>
        <time>2017-02-28T16:22:25Z</time>
      </trkpt>
      <trkpt lat="49.41042" lon="1.20334">
        <ele>123</ele>
        <time>2017-02-28T16:22:25Z</time>
      </trkpt>
      <trkpt lat="49.41037" lon="1.20326">
        <ele>129</ele>
        <time>2017-02-28T16:22:41Z</time>
      </trkpt>
      <trkpt lat="49.41034" lon="1.20321">
        <ele>129</ele>
        <time>2017-02-28T16:22:41Z</time>
      </trkpt>
      <trkpt lat="49.4103" lon="1.20313">
        <ele>129</ele>
        <time>2017-02-28T16:22:41Z</time>
      </trkpt>
      <trkpt lat="49.41027" lon="1.20306">
        <ele>129</ele>
        <time>2017-02-28T16:22:41Z</time>
      </trkpt>
      <trkpt lat="49.41024" lon="1.203">
        <ele>129</ele>
        <time>2017-02-28T16:22:57Z</time>
      </trkpt>
      <trkpt lat="49.41021" lon="1.20296">
        <ele>129</ele>
        <time>2017-02-28T16:22:57Z</time>
      </trkpt>
      <trkpt lat="49.41018" lon="1.20292">
        <ele>129</ele>
        <time>2017-02-28T16:22:57Z</time>
      </trkpt>
      <trkpt lat="49.41014" lon="1.20286">
        <ele>130</ele>
        <time>2017-02-28T16:22:57Z</time>
      </trkpt>
      <trkpt lat="49.41012" lon="1.20281">
        <ele>130</ele>
        <time>2017-02-28T16:23:13Z</time>
      </trkpt>
      <trkpt lat="49.4101" lon="1.20276">
        <ele>130</ele>
        <time>2017-02-28T16:23:13Z</time>
      </trkpt>
      <trkpt lat="49.41007" lon="1.20271">
        <ele>130</ele>
        <time>2017-02-28T16:23:13Z</time>
      </trkpt>
      <trkpt lat="49.41003" lon="1.20265">
        <ele>130</ele>
        <time>2017-02-28T16:23:13Z</time>
      </trkpt>
      <trkpt lat="49.41001" lon="1.20261">
        <ele>130</ele>
        <time>2017-02-28T16:23:29Z</time>
      </trkpt>
      <trkpt lat="49.41" lon="1.20259">
        <ele>130</ele>
        <time>2017-02-28T16:23:29Z</time>
      </trkpt>
      <trkpt lat="49.40991" lon="1.20234">
        <ele>130</ele>
        <time>2017-02-28T16:23:29Z</time>
      </trkpt>
      <trkpt lat="49.4099" lon="1.20233">
        <ele>130</ele>
        <time>2017-02-28T16:23:29Z</time>
      </trkpt>
      <trkpt lat="49.40986" lon="1.20222">
        <ele>130</ele>
        <time>2017-02-28T16:23:45Z</time>
      </trkpt>
      <trkpt lat="49.40983" lon="1.20216">
        <ele>130</ele>
        <time>2017-02-28T16:23:45Z</time>
      </trkpt>
      <trkpt lat="49.40981" lon="1.2021">
        <ele>130</ele>
        <time>2017-02-28T16:23:45Z</time>
      </trkpt>
      <trkpt lat="49.40978" lon="1.20206">
        <ele>131</ele>
        <time>2017-02-28T16:23:45Z</time>
      </trkpt>
      <trkpt lat="49.40976" lon="1.20201">
        <ele>131</ele>
        <time>2017-02-28T16:24:02Z</time>
      </trkpt>
      <trkpt lat="49.40973" lon="1.20193">
        <ele>131</ele>
        <time>2017-02-28T16:24:02Z</time>
      </trkpt>
      <trkpt lat="49.40969" lon="1.20187">
        <ele>131</ele>
        <time>2017-02-28T16:24:02Z</time>
      </trkpt>
      <trkpt lat="49.40966" lon="1.2018">
        <ele>131</ele>
        <time>2017-02-28T16:24:02Z</time>
      </trkpt>
      <trkpt lat="49.40962" lon="1.20174">
        <ele>131</ele>
        <time>2017-02-28T16:24:17Z</time>
      </trkpt>
      <trkpt lat="49.40959" lon="1.20169">
        <ele>131</ele>
        <time>2017-02-28T16:24:17Z</time>
      </trkpt>
      <trkpt lat="49.40956" lon="1.20163">
        <ele>134</ele>
        <time>2017-02-28T16:24:17Z</time>
      </trkpt>
      <trkpt lat="49.40952" lon="1.20157">
        <ele>134</ele>
        <time>2017-02-28T16:24:17Z</time>
      </trkpt>
      <trkpt lat="49.4095" lon="1.20152">
        <ele>134</ele>
        <time>2017-02-28T16:24:33Z</time>
      </trkpt>
      <trkpt lat="49.40948" lon="1.20148">
        <ele>134</ele>
        <time>2017-02-28T16:24:33Z</time>
      </trkpt>
      <trkpt lat="49.40945" lon="1.20144">
        <ele>134</ele>
        <time>2017-02-28T16:24:33Z</time>
      </trkpt>
      <trkpt lat="49.40944" lon="1.20139">
        <ele>134</ele>
        <time>2017-02-28T16:24:33Z</time>
      </trkpt>
      <trkpt lat="49.40945" lon="1.20134">
        <ele>134</ele>
        <time>2017-02-28T16:24:50Z</time>
      </trkpt>
      <trkpt lat="49.40945" lon="1.20125">
        <ele>135</ele>
        <time>2017-02-28T16:24:50Z</time>
      </trkpt>
      <trkpt lat="49.40946" lon="1.20118">
        <ele>135</ele>
        <time>2017-02-28T16:24:50Z</time>
      </trkpt>
      <trkpt lat="49.40948" lon="1.20114">
        <ele>135</ele>
        <time>2017-02-28T16:24:50Z</time>
      </trkpt>
      <trkpt lat="49.40949" lon="1.20113">
        <ele>135</ele>
        <time>2017-02-28T16:25:05Z</time>
      </trkpt>
      <trkpt lat="49.4095" lon="1.20109">
        <ele>135</ele>
        <time>2017-02-28T16:25:05Z</time>
      </trkpt>
      <trkpt lat="49.4095" lon="1.20105">
        <ele>135</ele>
        <time>2017-02-28T16:25:05Z</time>
      </trkpt>
      <trkpt lat="49.40954" lon="1.20098">
        <ele>135</ele>
        <time>2017-02-28T16:25:05Z</time>
      </trkpt>
      <trkpt lat="49.40956" lon="1.20093">
        <ele>135</ele>
        <time>2017-02-28T16:25:21Z</time>
      </trkpt>
      <trkpt lat="49.4096" lon="1.2009">
        <ele>132</ele>
        <time>2017-02-28T16:25:21Z</time>
      </trkpt>
      <trkpt lat="49.40964" lon="1.20078">
        <ele>132</ele>
        <time>2017-02-28T16:25:21Z</time>
      </trkpt>
      <trkpt lat="49.40965" lon="1.20072">
        <ele>132</ele>
        <time>2017-02-28T16:25:21Z</time>
      </trkpt>
      <trkpt lat="49.40966" lon="1.20064">
        <ele>132</ele>
        <time>2017-02-28T16:25:38Z</time>
      </trkpt>
      <trkpt lat="49.40967" lon="1.20059">
        <ele>132</ele>
        <time>2017-02-28T16:25:38Z</time>
      </trkpt>
      <trkpt lat="49.4097" lon="1.20053">
        <ele>132</ele>
        <time>2017-02-28T16:25:38Z</time>
      </trkpt>
      <trkpt lat="49.40971" lon="1.20047">
        <ele>132</ele>
        <time>2017-02-28T16:25:38Z</time>
      </trkpt>
      <trkpt lat="49.40974" lon="1.20039">
        <ele>132</ele>
        <time>2017-02-28T16:25:55Z</time>
      </trkpt>
      <trkpt lat="49.40977" lon="1.20031">
        <ele>132</ele>
        <time>2017-02-28T16:25:55Z</time>
      </trkpt>
      <trkpt lat="49.40979" lon="1.20026">
        <ele>132</ele>
        <time>2017-02-28T16:25:55Z</time>
      </trkpt>
      <trkpt lat="49.40982" lon="1.20019">
        <ele>132</ele>
        <time>2017-02-28T16:25:55Z</time>
      </trkpt>
      <trkpt lat="49.40984" lon="1.20011">
        <ele>132</ele>
        <time>2017-02-28T16:26:10Z</time>
      </trkpt>
      <trkpt lat="49.40986" lon="1.20006">
        <ele>132</ele>
        <time>2017-02-28T16:26:10Z</time>
      </trkpt>
      <trkpt lat="49.40989" lon="1.19996">
        <ele>132</ele>
        <time>2017-02-28T16:26:10Z</time>
      </trkpt>
      <trkpt lat="49.4099" lon="1.19988">
        <ele>132</ele>
        <time>2017-02-28T16:26:10Z</time>
      </trkpt>
      <trkpt lat="49.40992" lon="1.19983">
        <ele>132</ele>
        <time>2017-02-28T16:26:26Z</time>
      </trkpt>
      <trkpt lat="49.40995" lon="1.19975">
        <ele>132</ele>
        <time>2017-02-28T16:26:26Z</time>
      </trkpt>
      <trkpt lat="49.40998" lon="1.19968">
        <ele>132</ele>
        <time>2017-02-28T16:26:26Z</time>
      </trkpt>
      <trkpt lat="49.41" lon="1.19962">
        <ele>132</ele>
        <time>2017-02-28T16:26:26Z</time>
      </trkpt>
      <trkpt lat="49.41001" lon="1.19957">
        <ele>132</ele>
        <time>2017-02-28T16:26:41Z</time>
      </trkpt>
      <trkpt lat="49.41002" lon="1.1995">
        <ele>132</ele>
        <time>2017-02-28T16:26:41Z</time>
      </trkpt>
      <trkpt lat="49.41002" lon="1.19942">
        <ele>132</ele>
        <time>2017-02-28T16:26:41Z</time>
      </trkpt>
      <trkpt lat="49.41003" lon="1.19935">
        <ele>132</ele>
        <time>2017-02-28T16:26:41Z</time>
      </trkpt>
      <trkpt lat="49.41004" lon="1.19925">
        <ele>132</ele>
        <time>2017-02-28T16:26:58Z</time>
      </trkpt>
      <trkpt lat="49.41005" lon="1.19917">
        <ele>132</ele>
        <time>2017-02-28T16:26:58Z</time>
      </trkpt>
      <trkpt lat="49.41005" lon="1.19911">
        <ele>132</ele>
        <time>2017-02-28T16:26:58Z</time>
      </trkpt>
      <trkpt lat="49.41006" lon="1.19902">
        <ele>132</ele>
        <time>2017-02-28T16:26:58Z</time>
      </trkpt>
      <trkpt lat="49.41006" lon="1.19893">
        <ele>132</ele>
        <time>2017-02-28T16:27:13Z</time>
      </trkpt>
      <trkpt lat="49.41006" lon="1.19884">
        <ele>132</ele>
        <time>2017-02-28T16:27:13Z</time>
      </trkpt>
      <trkpt lat="49.41007" lon="1.19878">
        <ele>132</ele>
        <time>2017-02-28T16:27:13Z</time>
      </trkpt>
      <trkpt lat="49.41007" lon="1.19872">
        <ele>132</ele>
        <time>2017-02-28T16:27:13Z</time>
      </trkpt>
      <trkpt lat="49.41008" lon="1.19865">
        <ele>132</ele>
        <time>2017-02-28T16:27:29Z</time>
      </trkpt>
      <trkpt lat="49.41009" lon="1.19857">
        <ele>132</ele>
        <time>2017-02-28T16:27:29Z</time>
      </trkpt>
      <trkpt lat="49.41009" lon="1.19848">
        <ele>132</ele>
        <time>2017-02-28T16:27:29Z</time>
      </trkpt>
      <trkpt lat="49.41009" lon="1.1984">
        <ele>132</ele>
        <time>2017-02-28T16:27:29Z</time>
      </trkpt>
      <trkpt lat="49.41009" lon="1.19833">
        <ele>132</ele>
        <time>2017-02-28T16:27:45Z</time>
      </trkpt>
      <trkpt lat="49.4101" lon="1.19826">
        <ele>132</ele>
        <time>2017-02-28T16:27:45Z</time>
      </trkpt>
      <trkpt lat="49.4101" lon="1.19819">
        <ele>132</ele>
        <time>2017-02-28T16:27:45Z</time>
      </trkpt>
      <trkpt lat="49.4101" lon="1.19813">
        <ele>132</ele>
        <time>2017-02-28T16:27:45Z</time>
      </trkpt>
      <trkpt lat="49.4101" lon="1.19805">
        <ele>132</ele>
        <time>2017-02-28T16:28:01Z</time>
      </trkpt>
      <trkpt lat="49.4101" lon="1.19797">
        <ele>132</ele>
        <time>2017-02-28T16:28:01Z</time>
      </trkpt>
      <trkpt lat="49.4101" lon="1.19789">
        <ele>131</ele>
        <time>2017-02-28T16:28:01Z</time>
      </trkpt>
      <trkpt lat="49.41009" lon="1.19781">
        <ele>131</ele>
        <time>2017-02-28T16:28:01Z</time>
      </trkpt>
      <trkpt lat="49.41009" lon="1.19774">
        <ele>131</ele>
        <time>2017-02-28T16:28:17Z</time>
      </trkpt>
      <trkpt lat="49.41009" lon="1.19766">
        <ele>131</ele>
        <time>2017-02-28T16:28:17Z</time>
      </trkpt>
      <trkpt lat="49.41009" lon="1.1976">
        <ele>131</ele>
        <time>2017-02-28T16:28:17Z</time>
      </trkpt>
      <trkpt lat="49.41008" lon="1.19752">
        <ele>131</ele>
        <time>2017-02-28T16:28:17Z</time>
      </trkpt>
      <trkpt lat="49.41008" lon="1.19744">
        <ele>131</ele>
        <time>2017-02-28T16:28:33Z</time>
      </trkpt>
      <trkpt lat="49.41007" lon="1.19739">
        <ele>131</ele>
        <time>2017-02-28T16:28:33Z</time>
      </trkpt>
      <trkpt lat="49.41007" lon="1.19732">
        <ele>131</ele>
        <time>2017-02-28T16:28:33Z</time>
      </trkpt>
      <trkpt lat="49.41006" lon="1.19726">
        <ele>131</ele>
        <time>2017-02-28T16:28:33Z</time>
      </trkpt>
      <trkpt lat="49.41005" lon="1.19718">
        <ele>131</ele>
        <time>2017-02-28T16:28:49Z</time>
      </trkpt>
      <trkpt lat="49.41003" lon="1.19711">
        <ele>131</ele>
        <time>2017-02-28T16:28:49Z</time>
      </trkpt>
      <trkpt lat="49.41002" lon="1.19704">
        <ele>131</ele>
        <time>2017-02-28T16:28:49Z</time>
      </trkpt>
      <trkpt lat="49.41" lon="1.19698">
        <ele>131</ele>
        <time>2017-02-28T16:28:49Z</time>
      </trkpt>
      <trkpt lat="49.40999" lon="1.19692">
        <ele>131</ele>
        <time>2017-02-28T16:29:05Z</time>
      </trkpt>
      <trkpt lat="49.40997" lon="1.19685">
        <ele>131</ele>
        <time>2017-02-28T16:29:05Z</time>
      </trkpt>
      <trkpt lat="49.40996" lon="1.19678">
        <ele>131</ele>
        <time>2017-02-28T16:29:05Z</time>
      </trkpt>
      <trkpt lat="49.40994" lon="1.19673">
        <ele>131</ele>
        <time>2017-02-28T16:29:05Z</time>
      </trkpt>
      <trkpt lat="49.40993" lon="1.19668">
        <ele>131</ele>
        <time>2017-02-28T16:29:21Z</time>
      </trkpt>
      <trkpt lat="49.4099" lon="1.19662">
        <ele>131</ele>
        <time>2017-02-28T16:29:21Z</time>
      </trkpt>
      <trkpt lat="49.40987" lon="1.19656">
        <ele>131</ele>
        <time>2017-02-28T16:29:21Z</time>
      </trkpt>
      <trkpt lat="49.40986" lon="1.19648">
        <ele>131</ele>
        <time>2017-02-28T16:29:21Z</time>
      </trkpt>
      <trkpt lat="49.40984" lon="1.19641">
        <ele>131</ele>
        <time>2017-02-28T16:29:37Z</time>
      </trkpt>
      <trkpt lat="49.40983" lon="1.19634">
        <ele>131</ele>
        <time>2017-02-28T16:29:37Z</time>
      </trkpt>
      <trkpt lat="49.40982" lon="1.19628">
        <ele>131</ele>
        <time>2017-02-28T16:29:37Z</time>
      </trkpt>
      <trkpt lat="49.40979" lon="1.19621">
        <ele>132</ele>
        <time>2017-02-28T16:29:37Z</time>
      </trkpt>
      <trkpt lat="49.40977" lon="1.19613">
        <ele>132</ele>
        <time>2017-02-28T16:29:53Z</time>
      </trkpt>
      <trkpt lat="49.40975" lon="1.19605">
        <ele>132</ele>
        <time>2017-02-28T16:29:53Z</time>
      </trkpt>
      <trkpt lat="49.40974" lon="1.19597">
        <ele>132</ele>
        <time>2017-02-28T16:29:53Z</time>
      </trkpt>
      <trkpt lat="49.40973" lon="1.19591">
        <ele>132</ele>
        <time>2017-02-28T16:29:53Z</time>
      </trkpt>
      <trkpt lat="49.40971" lon="1.19584">
        <ele>132</ele>
        <time>2017-02-28T16:30:09Z</time>
      </trkpt>
      <trkpt lat="49.40969" lon="1.19578">
        <ele>132</ele>
        <time>2017-02-28T16:30:09Z</time>
      </trkpt>
      <trkpt lat="49.40967" lon="1.19572">
        <ele>132</ele>
        <time>2017-02-28T16:30:09Z</time>
      </trkpt>
      <trkpt lat="49.40965" lon="1.19564">
        <ele>132</ele>
        <time>2017-02-28T16:30:09Z</time>
      </trkpt>
      <trkpt lat="49.40963" lon="1.19558">
        <ele>132</ele>
        <time>2017-02-28T16:30:25Z</time>
      </trkpt>
      <trkpt lat="49.40961" lon="1.19549">
        <ele>132</ele>
        <time>2017-02-28T16:30:25Z</time>
      </trkpt>
      <trkpt lat="49.40959" lon="1.19543">
        <ele>132</ele>
        <time>2017-02-28T16:30:25Z</time>
      </trkpt>
      <trkpt lat="49.40957" lon="1.19536">
        <ele>135</ele>
        <time>2017-02-28T16:30:25Z</time>
      </trkpt>
      <trkpt lat="49.40955" lon="1.19529">
        <ele>135</ele>
        <time>2017-02-28T16:30:41Z</time>
      </trkpt>
      <trkpt lat="49.40953" lon="1.19522">
        <ele>135</ele>
        <time>2017-02-28T16:30:41Z</time>
      </trkpt>
      <trkpt lat="49.40952" lon="1.19516">
        <ele>135</ele>
        <time>2017-02-28T16:30:41Z</time>
      </trkpt>
      <trkpt lat="49.4095" lon="1.1951">
        <ele>135</ele>
        <time>2017-02-28T16:30:41Z</time>
      </trkpt>
      <trkpt lat="49.40948" lon="1.19504">
        <ele>135</ele>
        <time>2017-02-28T16:30:57Z</time>
      </trkpt>
      <trkpt lat="49.40945" lon="1.19499">
        <ele>135</ele>
        <time>2017-02-28T16:30:57Z</time>
      </trkpt>
      <trkpt lat="49.40943" lon="1.19493">
        <ele>135</ele>
        <time>2017-02-28T16:30:57Z</time>
      </trkpt>
      <trkpt lat="49.4094" lon="1.19487">
        <ele>135</ele>
        <time>2017-02-28T16:30:57Z</time>
      </trkpt>
      <trkpt lat="49.40937" lon="1.1948">
        <ele>135</ele>
        <time>2017-02-28T16:31:13Z</time>
      </trkpt>
      <trkpt lat="49.40934" lon="1.19474">
        <ele>135</ele>
        <time>2017-02-28T16:31:13Z</time>
      </trkpt>
      <trkpt lat="49.40931" lon="1.19467">
        <ele>135</ele>
        <time>2017-02-28T16:31:13Z</time>
      </trkpt>
      <trkpt lat="49.40929" lon="1.19461">
        <ele>135</ele>
        <time>2017-02-28T16:31:13Z</time>
      </trkpt>
      <trkpt lat="49.40925" lon="1.19458">
        <ele>136</ele>
        <time>2017-02-28T16:31:30Z</time>
      </trkpt>
      <trkpt lat="49.40924" lon="1.19452">
        <ele>136</ele>
        <time>2017-02-28T16:31:30Z</time>
      </trkpt>
      <trkpt lat="49.40921" lon="1.19446">
        <ele>136</ele>
        <time>2017-02-28T16:31:30Z</time>
      </trkpt>
      <trkpt lat="49.40918" lon="1.19441">
        <ele>136</ele>
        <time>2017-02-28T16:31:30Z</time>
      </trkpt>
      <trkpt lat="49.40915" lon="1.19434">
        <ele>136</ele>
        <time>2017-02-28T16:31:46Z</time>
      </trkpt>
      <trkpt lat="49.40913" lon="1.19429">
        <ele>136</ele>
        <time>2017-02-28T16:31:46Z</time>
      </trkpt>
      <trkpt lat="49.4091" lon="1.19423">
        <ele>136</ele>
        <time>2017-02-28T16:31:46Z</time>
      </trkpt>
      <trkpt lat="49.40906" lon="1.19415">
        <ele>136</ele>
        <time>2017-02-28T16:31:46Z</time>
      </trkpt>
      <trkpt lat="49.40903" lon="1.19409">
        <ele>136</ele>
        <time>2017-02-28T16:32:02Z</time>
      </trkpt>
      <trkpt lat="49.40901" lon="1.19404">
        <ele>136</ele>
        <time>2017-02-28T16:32:02Z</time>
      </trkpt>
      <trkpt lat="49.40899" lon="1.19399">
        <ele>136</ele>
        <time>2017-02-28T16:32:02Z</time>
      </trkpt>
      <trkpt lat="49.40896" lon="1.19394">
        <ele>136</ele>
        <time>2017-02-28T16:32:02Z</time>
      </trkpt>
      <trkpt lat="49.40894" lon="1.19389">
        <ele>136</ele>
        <time>2017-02-28T16:32:17Z</time>
      </trkpt>
      <trkpt lat="49.40891" lon="1.19383">
        <ele>136</ele>
        <time>2017-02-28T16:32:17Z</time>
      </trkpt>
      <trkpt lat="49.40886" lon="1.19375">
        <ele>136</ele>
        <time>2017-02-28T16:32:17Z</time>
      </trkpt>
      <trkpt lat="49.40885" lon="1.19373">
        <ele>136</ele>
        <time>2017-02-28T16:32:17Z</time>
      </trkpt>
      <trkpt lat="49.40883" lon="1.19366">
        <ele>136</ele>
        <time>2017-02-28T16:32:34Z</time>
      </trkpt>
      <trkpt lat="49.4088" lon="1.19358">
        <ele>136</ele>
        <time>2017-02-28T16:32:34Z</time>
      </trkpt>
      <trkpt lat="49.40878" lon="1.19352">
        <ele>136</ele>
        <time>2017-02-28T16:32:34Z</time>
      </trkpt>
      <trkpt lat="49.40876" lon="1.19348">
        <ele>136</ele>
        <time>2017-02-28T16:32:34Z</time>
      </trkpt>
      <trkpt lat="49.40873" lon="1.19339">
        <ele>140</ele>
        <time>2017-02-28T16:32:50Z</time>
      </trkpt>
      <trkpt lat="49.40871" lon="1.19332">
        <ele>140</ele>
        <time>2017-02-28T16:32:50Z</time>
      </trkpt>
      <trkpt lat="49.40869" lon="1.19327">
        <ele>140</ele>
        <time>2017-02-28T16:32:50Z</time>
      </trkpt>
      <trkpt lat="49.40865" lon="1.19319">
        <ele>140</ele>
        <time>2017-02-28T16:32:50Z</time>
      </trkpt>
      <trkpt lat="49.40863" lon="1.19311">
        <ele>140</ele>
        <time>2017-02-28T16:33:05Z</time>
      </trkpt>
      <trkpt lat="49.40861" lon="1.19305">
        <ele>140</ele>
        <time>2017-02-28T16:33:05Z</time>
      </trkpt>
      <trkpt lat="49.40858" lon="1.19297">
        <ele>140</ele>
        <time>2017-02-28T16:33:05Z</time>
      </trkpt>
      <trkpt lat="49.40857" lon="1.19294">
        <ele>140</ele>
        <time>2017-02-28T16:33:05Z</time>
      </trkpt>
      <trkpt lat="49.40854" lon="1.19288">
        <ele>140</ele>
        <time>2017-02-28T16:33:21Z</time>
      </trkpt>
      <trkpt lat="49.40852" lon="1.19284">
        <ele>140</ele>
        <time>2017-02-28T16:33:21Z</time>
      </trkpt>
      <trkpt lat="49.4085" lon="1.19278">
        <ele>140</ele>
        <time>2017-02-28T16:33:21Z</time>
      </trkpt>
      <trkpt lat="49.40847" lon="1.19271">
        <ele>140</ele>
        <time>2017-02-28T16:33:21Z</time>
      </trkpt>
      <trkpt lat="49.40844" lon="1.19265">
        <ele>140</ele>
        <time>2017-02-28T16:33:37Z</time>
      </trkpt>
      <trkpt lat="49.40842" lon="1.19257">
        <ele>140</ele>
        <time>2017-02-28T16:33:37Z</time>
      </trkpt>
      <trkpt lat="49.40839" lon="1.19252">
        <ele>140</ele>
        <time>2017-02-28T16:33:37Z</time>
      </trkpt>
      <trkpt lat="49.40835" lon="1.19244">
        <ele>140</ele>
        <time>2017-02-28T16:33:37Z</time>
      </trkpt>
      <trkpt lat="49.40834" lon="1.19238">
        <ele>140</ele>
        <time>2017-02-28T16:33:54Z</time>
      </trkpt>
      <trkpt lat="49.4083" lon="1.19231">
        <ele>140</ele>
        <time>2017-02-28T16:33:54Z</time>
      </trkpt>
      <trkpt lat="49.40828" lon="1.19227">
        <ele>140</ele>
        <time>2017-02-28T16:33:54Z</time>
      </trkpt>
      <trkpt lat="49.40826" lon="1.19222">
        <ele>140</ele>
        <time>2017-02-28T16:33:54Z</time>
      </trkpt>
      <trkpt lat="49.40823" lon="1.19215">
        <ele>140</ele>
        <time>2017-02-28T16:34:10Z</time>
      </trkpt>
      <trkpt lat="49.40821" lon="1.19211">
        <ele>140</ele>
        <time>2017-02-28T16:34:10Z</time>
      </trkpt>
      <trkpt lat="49.40817" lon="1.19204">
        <ele>142</ele>
        <time>2017-02-28T16:34:10Z</time>
      </trkpt>
      <trkpt lat="49.40816" lon="1.19199">
        <ele>142</ele>
        <time>2017-02-28T16:34:10Z</time>
      </trkpt>
      <trkpt lat="49.40813" lon="1.1919">
        <ele>142</ele>
        <time>2017-02-28T16:34:26Z</time>
      </trkpt>
      <trkpt lat="49.4081" lon="1.19183">
        <ele>142</ele>
        <time>2017-02-28T16:34:26Z</time>
      </trkpt>
      <trkpt lat="49.40807" lon="1.19177">
        <ele>142</ele>
        <time>2017-02-28T16:34:26Z</time>
      </trkpt>
      <trkpt lat="49.40805" lon="1.19171">
        <ele>142</ele>
        <time>2017-02-28T16:34:26Z</time>
      </trkpt>
      <trkpt lat="49.40803" lon="1.19165">
        <ele>142</ele>
        <time>2017-02-28T16:34:41Z</time>
      </trkpt>
      <trkpt lat="49.40801" lon="1.19162">
        <ele>142</ele>
        <time>2017-02-28T16:34:41Z</time>
      </trkpt>
      <trkpt lat="49.40798" lon="1.19154">
        <ele>142</ele>
        <time>2017-02-28T16:34:41Z</time>
      </trkpt>
      <trkpt lat="49.40796" lon="1.19149">
        <ele>142</ele>
        <time>2017-02-28T16:34:41Z</time>
      </trkpt>
      <trkpt lat="49.40794" lon="1.19145">
        <ele>142</ele>
        <time>2017-02-28T16:34:57Z</time>
      </trkpt>
      <trkpt lat="49.4079" lon="1.19137">
        <ele>146</ele>
        <time>2017-02-28T16:34:58Z</time>
      </trkpt>
      <trkpt lat="49.40788" lon="1.1913">
        <ele>146</ele>
        <time>2017-02-28T16:34:58Z</time>
      </trkpt>
      <trkpt lat="49.40786" lon="1.19126">
        <ele>146</ele>
        <time>2017-02-28T16:34:58Z</time>
      </trkpt>
      <trkpt lat="49.40783" lon="1.1912">
        <ele>147</ele>
        <time>2017-02-28T16:35:14Z</time>
      </trkpt>
      <trkpt lat="49.40781" lon="1.19112">
        <ele>147</ele>
        <time>2017-02-28T16:35:14Z</time>
      </trkpt>
      <trkpt lat="49.4078" lon="1.19108">
        <ele>147</ele>
        <time>2017-02-28T16:35:14Z</time>
      </trkpt>
      <trkpt lat="49.40778" lon="1.19098">
        <ele>147</ele>
        <time>2017-02-28T16:35:14Z</time>
      </trkpt>
      <trkpt lat="49.40776" lon="1.19093">
        <ele>147</ele>
        <time>2017-02-28T16:35:29Z</time>
      </trkpt>
      <trkpt lat="49.40773" lon="1.19086">
        <ele>147</ele>
        <time>2017-02-28T16:35:29Z</time>
      </trkpt>
      <trkpt lat="49.40771" lon="1.19081">
        <ele>147</ele>
        <time>2017-02-28T16:35:29Z</time>
      </trkpt>
      <trkpt lat="49.40768" lon="1.19074">
        <ele>147</ele>
        <time>2017-02-28T16:35:29Z</time>
      </trkpt>
      <trkpt lat="49.40767" lon="1.19067">
        <ele>147</ele>
        <time>2017-02-28T16:35:46Z</time>
      </trkpt>
      <trkpt lat="49.40765" lon="1.19061">
        <ele>147</ele>
        <time>2017-02-28T16:35:46Z</time>
      </trkpt>
      <trkpt lat="49.40762" lon="1.19056">
        <ele>147</ele>
        <time>2017-02-28T16:35:46Z</time>
      </trkpt>
      <trkpt lat="49.4076" lon="1.19048">
        <ele>147</ele>
        <time>2017-02-28T16:35:46Z</time>
      </trkpt>
      <trkpt lat="49.40758" lon="1.19043">
        <ele>147</ele>
        <time>2017-02-28T16:36:02Z</time>
      </trkpt>
      <trkpt lat="49.40756" lon="1.19033">
        <ele>148</ele>
        <time>2017-02-28T16:36:02Z</time>
      </trkpt>
      <trkpt lat="49.40755" lon="1.1903">
        <ele>148</ele>
        <time>2017-02-28T16:36:02Z</time>
      </trkpt>
      <trkpt lat="49.40753" lon="1.19022">
        <ele>148</ele>
        <time>2017-02-28T16:36:02Z</time>
      </trkpt>
      <trkpt lat="49.40751" lon="1.19017">
        <ele>148</ele>
        <time>2017-02-28T16:36:18Z</time>
      </trkpt>
      <trkpt lat="49.40748" lon="1.1901">
        <ele>148</ele>
        <time>2017-02-28T16:36:18Z</time>
      </trkpt>
      <trkpt lat="49.40746" lon="1.19006">
        <ele>148</ele>
        <time>2017-02-28T16:36:18Z</time>
      </trkpt>
      <trkpt lat="49.40743" lon="1.18998">
        <ele>148</ele>
        <time>2017-02-28T16:36:18Z</time>
      </trkpt>
      <trkpt lat="49.40742" lon="1.18989">
        <ele>148</ele>
        <time>2017-02-28T16:36:34Z</time>
      </trkpt>
      <trkpt lat="49.4074" lon="1.18981">
        <ele>148</ele>
        <time>2017-02-28T16:36:34Z</time>
      </trkpt>
      <trkpt lat="49.40738" lon="1.18976">
        <ele>148</ele>
        <time>2017-02-28T16:36:34Z</time>
      </trkpt>
      <trkpt lat="49.40734" lon="1.18968">
        <ele>148</ele>
        <time>2017-02-28T16:36:34Z</time>
      </trkpt>
      <trkpt lat="49.40732" lon="1.18964">
        <ele>148</ele>
        <time>2017-02-28T16:36:49Z</time>
      </trkpt>
      <trkpt lat="49.40729" lon="1.18955">
        <ele>149</ele>
        <time>2017-02-28T16:36:49Z</time>
      </trkpt>
      <trkpt lat="49.40726" lon="1.18952">
        <ele>149</ele>
        <time>2017-02-28T16:36:49Z</time>
      </trkpt>
      <trkpt lat="49.40723" lon="1.18946">
        <ele>149</ele>
        <time>2017-02-28T16:36:49Z</time>
      </trkpt>
      <trkpt lat="49.4072" lon="1.18938">
        <ele>149</ele>
        <time>2017-02-28T16:37:05Z</time>
      </trkpt>
      <trkpt lat="49.40718" lon="1.18934">
        <ele>149</ele>
        <time>2017-02-28T16:37:05Z</time>
      </trkpt>
      <trkpt lat="49.40716" lon="1.18926">
        <ele>149</ele>
        <time>2017-02-28T16:37:05Z</time>
      </trkpt>
      <trkpt lat="49.40714" lon="1.18921">
        <ele>149</ele>
        <time>2017-02-28T16:37:05Z</time>
      </trkpt>
      <trkpt lat="49.40711" lon="1.18914">
        <ele>149</ele>
        <time>2017-02-28T16:37:23Z</time>
      </trkpt>
      <trkpt lat="49.40708" lon="1.18907">
        <ele>151</ele>
        <time>2017-02-28T16:37:23Z</time>
      </trkpt>
      <trkpt lat="49.40705" lon="1.18901">
        <ele>151</ele>
        <time>2017-02-28T16:37:23Z</time>
      </trkpt>
      <trkpt lat="49.40703" lon="1.18895">
        <ele>151</ele>
        <time>2017-02-28T16:37:23Z</time>
      </trkpt>
      <trkpt lat="49.407" lon="1.18899">
        <ele>151</ele>
        <time>2017-02-28T16:37:38Z</time>
      </trkpt>
      <trkpt lat="49.40699" lon="1.18898">
        <ele>151</ele>
        <time>2017-02-28T16:37:38Z</time>
      </trkpt>
      <trkpt lat="49.40698" lon="1.18891">
        <ele>151</ele>
        <time>2017-02-28T16:37:38Z</time>
      </trkpt>
      <trkpt lat="49.40696" lon="1.18884">
        <ele>151</ele>
        <time>2017-02-28T16:37:38Z</time>
      </trkpt>
      <trkpt lat="49.40693" lon="1.18879">
        <ele>151</ele>
        <time>2017-02-28T16:37:53Z</time>
      </trkpt>
      <trkpt lat="49.40691" lon="1.18875">
        <ele>151</ele>
        <time>2017-02-28T16:37:53Z</time>
      </trkpt>
      <trkpt lat="49.40689" lon="1.18869">
        <ele>151</ele>
        <time>2017-02-28T16:37:53Z</time>
      </trkpt>
      <trkpt lat="49.40688" lon="1.18863">
        <ele>151</ele>
        <time>2017-02-28T16:37:53Z</time>
      </trkpt>
      <trkpt lat="49.40685" lon="1.18858">
        <ele>151</ele>
        <time>2017-02-28T16:38:10Z</time>
      </trkpt>
      <trkpt lat="49.40682" lon="1.18851">
        <ele>151</ele>
        <time>2017-02-28T16:38:10Z</time>
      </trkpt>
      <trkpt lat="49.4068" lon="1.18845">
        <ele>151</ele>
        <time>2017-02-28T16:38:10Z</time>
      </trkpt>
      <trkpt lat="49.40677" lon="1.1884">
        <ele>151</ele>
        <time>2017-02-28T16:38:10Z</time>
      </trkpt>
      <trkpt lat="49.40675" lon="1.18835">
        <ele>151</ele>
        <time>2017-02-28T16:38:26Z</time>
      </trkpt>
      <trkpt lat="49.40673" lon="1.1883">
        <ele>151</ele>
        <time>2017-02-28T16:38:26Z</time>
      </trkpt>
      <trkpt lat="49.4067" lon="1.18824">
        <ele>151</ele>
        <time>2017-02-28T16:38:26Z</time>
      </trkpt>
      <trkpt lat="49.40668" lon="1.18818">
        <ele>151</ele>
        <time>2017-02-28T16:38:26Z</time>
      </trkpt>
      <trkpt lat="49.40664" lon="1.18811">
        <ele>151</ele>
        <time>2017-02-28T16:38:43Z</time>
      </trkpt>
      <trkpt lat="49.40661" lon="1.18806">
        <ele>151</ele>
        <time>2017-02-28T16:38:43Z</time>
      </trkpt>
      <trkpt lat="49.40658" lon="1.18802">
        <ele>151</ele>
        <time>2017-02-28T16:38:43Z</time>
      </trkpt>
      <trkpt lat="49.40654" lon="1.18795">
        <ele>151</ele>
        <time>2017-02-28T16:38:43Z</time>
      </trkpt>
      <trkpt lat="49.40652" lon="1.18788">
        <ele>152</ele>
        <time>2017-02-28T16:38:57Z</time>
      </trkpt>
      <trkpt lat="49.40649" lon="1.18782">
        <ele>152</ele>
        <time>2017-02-28T16:38:57Z</time>
      </trkpt>
      <trkpt lat="49.40646" lon="1.18777">
        <ele>152</ele>
        <time>2017-02-28T16:38:57Z</time>
      </trkpt>
      <trkpt lat="49.40644" lon="1.18773">
        <ele>152</ele>
        <time>2017-02-28T16:38:57Z</time>
      </trkpt>
      <trkpt lat="49.40642" lon="1.18767">
        <ele>152</ele>
        <time>2017-02-28T16:39:15Z</time>
      </trkpt>
      <trkpt lat="49.40639" lon="1.18762">
        <ele>152</ele>
        <time>2017-02-28T16:39:15Z</time>
      </trkpt>
      <trkpt lat="49.40636" lon="1.18757">
        <ele>152</ele>
        <time>2017-02-28T16:39:15Z</time>
      </trkpt>
      <trkpt lat="49.40634" lon="1.18751">
        <ele>152</ele>
        <time>2017-02-28T16:39:15Z</time>
      </trkpt>
      <trkpt lat="49.40631" lon="1.18744">
        <ele>152</ele>
        <time>2017-02-28T16:39:30Z</time>
      </trkpt>
      <trkpt lat="49.40628" lon="1.18738">
        <ele>152</ele>
        <time>2017-02-28T16:39:30Z</time>
      </trkpt>
      <trkpt lat="49.40625" lon="1.18733">
        <ele>155</ele>
        <time>2017-02-28T16:39:30Z</time>
      </trkpt>
      <trkpt lat="49.40622" lon="1.18727">
        <ele>155</ele>
        <time>2017-02-28T16:39:30Z</time>
      </trkpt>
      <trkpt lat="49.4062" lon="1.18721">
        <ele>155</ele>
        <time>2017-02-28T16:39:46Z</time>
      </trkpt>
      <trkpt lat="49.40618" lon="1.18716">
        <ele>155</ele>
        <time>2017-02-28T16:39:46Z</time>
      </trkpt>
      <trkpt lat="49.40614" lon="1.18709">
        <ele>155</ele>
        <time>2017-02-28T16:39:46Z</time>
      </trkpt>
      <trkpt lat="49.40612" lon="1.18706">
        <ele>155</ele>
        <time>2017-02-28T16:39:46Z</time>
      </trkpt>
      <trkpt lat="49.40609" lon="1.187">
        <ele>155</ele>
        <time>2017-02-28T16:40:01Z</time>
      </trkpt>
      <trkpt lat="49.40607" lon="1.18696">
        <ele>155</ele>
        <time>2017-02-28T16:40:01Z</time>
      </trkpt>
      <trkpt lat="49.40604" lon="1.18689">
        <ele>155</ele>
        <time>2017-02-28T16:40:01Z</time>
      </trkpt>
      <trkpt lat="49.40602" lon="1.18685">
        <ele>155</ele>
        <time>2017-02-28T16:40:01Z</time>
      </trkpt>
      <trkpt lat="49.406" lon="1.18681">
        <ele>155</ele>
        <time>2017-02-28T16:40:18Z</time>
      </trkpt>
      <trkpt lat="49.40598" lon="1.18675">
        <ele>155</ele>
        <time>2017-02-28T16:40:18Z</time>
      </trkpt>
      <trkpt lat="49.40595" lon="1.18669">
        <ele>155</ele>
        <time>2017-02-28T16:40:18Z</time>
      </trkpt>
      <trkpt lat="49.40591" lon="1.18664">
        <ele>155</ele>
        <time>2017-02-28T16:40:18Z</time>
      </trkpt>
      <trkpt lat="49.40588" lon="1.18657">
        <ele>155</ele>
        <time>2017-02-28T16:40:34Z</time>
      </trkpt>
      <trkpt lat="49.40585" lon="1.18653">
        <ele>155</ele>
        <time>2017-02-28T16:40:34Z</time>
      </trkpt>
      <trkpt lat="49.40583" lon="1.18646">
        <ele>155</ele>
        <time>2017-02-28T16:40:34Z</time>
      </trkpt>
      <trkpt lat="49.4058" lon="1.18638">
        <ele>155</ele>
        <time>2017-02-28T16:40:34Z</time>
      </trkpt>
      <trkpt lat="49.40577" lon="1.18632">
        <ele>155</ele>
        <time>2017-02-28T16:40:50Z</time>
      </trkpt>
      <trkpt lat="49.40576" lon="1.18628">
        <ele>155</ele>
        <time>2017-02-28T16:40:50Z</time>
      </trkpt>
      <trkpt lat="49.40573" lon="1.18624">
        <ele>157</ele>
        <time>2017-02-28T16:40:50Z</time>
      </trkpt>
      <trkpt lat="49.4057" lon="1.18618">
        <ele>157</ele>
        <time>2017-02-28T16:40:50Z</time>
      </trkpt>
      <trkpt lat="49.40567" lon="1.18611">
        <ele>157</ele>
        <time>2017-02-28T16:41:05Z</time>
      </trkpt>
      <trkpt lat="49.40565" lon="1.18607">
        <ele>157</ele>
        <time>2017-02-28T16:41:05Z</time>
      </trkpt>
      <trkpt lat="49.40562" lon="1.18599">
        <ele>157</ele>
        <time>2017-02-28T16:41:05Z</time>
      </trkpt>
      <trkpt lat="49.40561" lon="1.18595">
        <ele>157</ele>
        <time>2017-02-28T16:41:05Z</time>
      </trkpt>
      <trkpt lat="49.40559" lon="1.18589">
        <ele>157</ele>
        <time>2017-02-28T16:41:21Z</time>
      </trkpt>
      <trkpt lat="49.40556" lon="1.18582">
        <ele>157</ele>
        <time>2017-02-28T16:41:22Z</time>
      </trkpt>
      <trkpt lat="49.40554" lon="1.18578">
        <ele>157</ele>
        <time>2017-02-28T16:41:22Z</time>
      </trkpt>
      <trkpt lat="49.40551" lon="1.18573">
        <ele>157</ele>
        <time>2017-02-28T16:41:22Z</time>
      </trkpt>
      <trkpt lat="49.40548" lon="1.18565">
        <ele>157</ele>
        <time>2017-02-28T16:41:38Z</time>
      </trkpt>
      <trkpt lat="49.40546" lon="1.18561">
        <ele>157</ele>
        <time>2017-02-28T16:41:38Z</time>
      </trkpt>
      <trkpt lat="49.40544" lon="1.18553">
        <ele>157</ele>
        <time>2017-02-28T16:41:38Z</time>
      </trkpt>
      <trkpt lat="49.40542" lon="1.18546">
        <ele>158</ele>
        <time>2017-02-28T16:41:38Z</time>
      </trkpt>
      <trkpt lat="49.40539" lon="1.18542">
        <ele>158</ele>
        <time>2017-02-28T16:41:54Z</time>
      </trkpt>
      <trkpt lat="49.40536" lon="1.18535">
        <ele>157</ele>
        <time>2017-02-28T16:41:54Z</time>
      </trkpt>
      <trkpt lat="49.40535" lon="1.18531">
        <ele>157</ele>
        <time>2017-02-28T16:41:54Z</time>
      </trkpt>
      <trkpt lat="49.40532" lon="1.18525">
        <ele>157</ele>
        <time>2017-02-28T16:41:54Z</time>
      </trkpt>
      <trkpt lat="49.4053" lon="1.18519">
        <ele>157</ele>
        <time>2017-02-28T16:42:10Z</time>
      </trkpt>
      <trkpt lat="49.40527" lon="1.18512">
        <ele>157</ele>
        <time>2017-02-28T16:42:10Z</time>
      </trkpt>
      <trkpt lat="49.40525" lon="1.18507">
        <ele>157</ele>
        <time>2017-02-28T16:42:10Z</time>
      </trkpt>
      <trkpt lat="49.40522" lon="1.18499">
        <ele>157</ele>
        <time>2017-02-28T16:42:10Z</time>
      </trkpt>
      <trkpt lat="49.40519" lon="1.18493">
        <ele>157</ele>
        <time>2017-02-28T16:42:25Z</time>
      </trkpt>
      <trkpt lat="49.40518" lon="1.1849">
        <ele>157</ele>
        <time>2017-02-28T16:42:25Z</time>
      </trkpt>
      <trkpt lat="49.40515" lon="1.18483">
        <ele>157</ele>
        <time>2017-02-28T16:42:25Z</time>
      </trkpt>
      <trkpt lat="49.40513" lon="1.18478">
        <ele>157</ele>
        <time>2017-02-28T16:42:25Z</time>
      </trkpt>
      <trkpt lat="49.40511" lon="1.18471">
        <ele>157</ele>
        <time>2017-02-28T16:42:42Z</time>
      </trkpt>
      <trkpt lat="49.40508" lon="1.18465">
        <ele>157</ele>
        <time>2017-02-28T16:42:42Z</time>
      </trkpt>
      <trkpt lat="49.40505" lon="1.18459">
        <ele>157</ele>
        <time>2017-02-28T16:42:42Z</time>
      </trkpt>
      <trkpt lat="49.40503" lon="1.18454">
        <ele>158</ele>
        <time>2017-02-28T16:42:42Z</time>
      </trkpt>
      <trkpt lat="49.40499" lon="1.18447">
        <ele>158</ele>
        <time>2017-02-28T16:42:58Z</time>
      </trkpt>
      <trkpt lat="49.40497" lon="1.18442">
        <ele>158</ele>
        <time>2017-02-28T16:42:58Z</time>
      </trkpt>
      <trkpt lat="49.40493" lon="1.18437">
        <ele>158</ele>
        <time>2017-02-28T16:42:58Z</time>
      </trkpt>
      <trkpt lat="49.40489" lon="1.1843">
        <ele>158</ele>
        <time>2017-02-28T16:42:58Z</time>
      </trkpt>
      <trkpt lat="49.40487" lon="1.18426">
        <ele>158</ele>
        <time>2017-02-28T16:43:14Z</time>
      </trkpt>
      <trkpt lat="49.40486" lon="1.18419">
        <ele>158</ele>
        <time>2017-02-28T16:43:14Z</time>
      </trkpt>
      <trkpt lat="49.40485" lon="1.18413">
        <ele>158</ele>
        <time>2017-02-28T16:43:14Z</time>
      </trkpt>
      <trkpt lat="49.40483" lon="1.18413">
        <ele>158</ele>
        <time>2017-02-28T16:43:14Z</time>
      </trkpt>
      <trkpt lat="49.40483" lon="1.18413">
        <ele>158</ele>
        <time>2017-02-28T16:47:38Z</time>
      </trkpt>
      <trkpt lat="49.40485" lon="1.18407">
        <ele>158</ele>
        <time>2017-02-28T16:47:38Z</time>
      </trkpt>
      <trkpt lat="49.40487" lon="1.18402">
        <ele>158</ele>
        <time>2017-02-28T16:47:38Z</time>
      </trkpt>
      <trkpt lat="49.4049" lon="1.18395">
        <ele>158</ele>
        <time>2017-02-28T16:47:38Z</time>
      </trkpt>
      <trkpt lat="49.40491" lon="1.18388">
        <ele>158</ele>
        <time>2017-02-28T16:47:38Z</time>
      </trkpt>
      <trkpt lat="49.40493" lon="1.18383">
        <ele>158</ele>
        <time>2017-02-28T16:47:54Z</time>
      </trkpt>
      <trkpt lat="49.40494" lon="1.18375">
        <ele>158</ele>
        <time>2017-02-28T16:47:55Z</time>
      </trkpt>
      <trkpt lat="49.40494" lon="1.1837">
        <ele>158</ele>
        <time>2017-02-28T16:47:55Z</time>
      </trkpt>
      <trkpt lat="49.40493" lon="1.18362">
        <ele>158</ele>
        <time>2017-02-28T16:47:55Z</time>
      </trkpt>
      <trkpt lat="49.40494" lon="1.18356">
        <ele>158</ele>
        <time>2017-02-28T16:48:09Z</time>
      </trkpt>
      <trkpt lat="49.40496" lon="1.18352">
        <ele>158</ele>
        <time>2017-02-28T16:48:09Z</time>
      </trkpt>
      <trkpt lat="49.40497" lon="1.18347">
        <ele>158</ele>
        <time>2017-02-28T16:48:09Z</time>
      </trkpt>
      <trkpt lat="49.40497" lon="1.1834">
        <ele>158</ele>
        <time>2017-02-28T16:48:09Z</time>
      </trkpt>
      <trkpt lat="49.40496" lon="1.18334">
        <ele>158</ele>
        <time>2017-02-28T16:48:25Z</time>
      </trkpt>
      <trkpt lat="49.40495" lon="1.18333">
        <ele>158</ele>
        <time>2017-02-28T16:48:25Z</time>
      </trkpt>
      <trkpt lat="49.40487" lon="1.18326">
        <ele>158</ele>
        <time>2017-02-28T16:48:25Z</time>
      </trkpt>
      <trkpt lat="49.40483" lon="1.18323">
        <ele>158</ele>
        <time>2017-02-28T16:48:25Z</time>
      </trkpt>
      <trkpt lat="49.40477" lon="1.18321">
        <ele>158</ele>
        <time>2017-02-28T16:48:41Z</time>
      </trkpt>
      <trkpt lat="49.40474" lon="1.18319">
        <ele>158</ele>
        <time>2017-02-28T16:48:41Z</time>
      </trkpt>
      <trkpt lat="49.40472" lon="1.18314">
        <ele>158</ele>
        <time>2017-02-28T16:48:41Z</time>
      </trkpt>
      <trkpt lat="49.40469" lon="1.18309">
        <ele>158</ele>
        <time>2017-02-28T16:48:41Z</time>
      </trkpt>
      <trkpt lat="49.40465" lon="1.18306">
        <ele>158</ele>
        <time>2017-02-28T16:48:57Z</time>
      </trkpt>
      <trkpt lat="49.4046" lon="1.18305">
        <ele>158</ele>
        <time>2017-02-28T16:48:57Z</time>
      </trkpt>
      <trkpt lat="49.40456" lon="1.18303">
        <ele>158</ele>
        <time>2017-02-28T16:48:57Z</time>
      </trkpt>
      <trkpt lat="49.40453" lon="1.18301">
        <ele>158</ele>
        <time>2017-02-28T16:48:57Z</time>
      </trkpt>
      <trkpt lat="49.40449" lon="1.18298">
        <ele>158</ele>
        <time>2017-02-28T16:49:14Z</time>
      </trkpt>
      <trkpt lat="49.40446" lon="1.18296">
        <ele>158</ele>
        <time>2017-02-28T16:49:14Z</time>
      </trkpt>
      <trkpt lat="49.40442" lon="1.18291">
        <ele>158</ele>
        <time>2017-02-28T16:49:14Z</time>
      </trkpt>
      <trkpt lat="49.40443" lon="1.18286">
        <ele>158</ele>
        <time>2017-02-28T16:49:14Z</time>
      </trkpt>
      <trkpt lat="49.40444" lon="1.18278">
        <ele>158</ele>
        <time>2017-02-28T16:49:29Z</time>
      </trkpt>
      <trkpt lat="49.40447" lon="1.18271">
        <ele>158</ele>
        <time>2017-02-28T16:49:29Z</time>
      </trkpt>
      <trkpt lat="49.40448" lon="1.18266">
        <ele>158</ele>
        <time>2017-02-28T16:49:29Z</time>
      </trkpt>
      <trkpt lat="49.40448" lon="1.1826">
        <ele>158</ele>
        <time>2017-02-28T16:49:29Z</time>
      </trkpt>
      <trkpt lat="49.40448" lon="1.1825">
        <ele>158</ele>
        <time>2017-02-28T16:49:46Z</time>
      </trkpt>
      <trkpt lat="49.4045" lon="1.18247">
        <ele>158</ele>
        <time>2017-02-28T16:49:46Z</time>
      </trkpt>
      <trkpt lat="49.4045" lon="1.1824">
        <ele>158</ele>
        <time>2017-02-28T16:49:46Z</time>
      </trkpt>
      <trkpt lat="49.4045" lon="1.18233">
        <ele>158</ele>
        <time>2017-02-28T16:49:46Z</time>
      </trkpt>
      <trkpt lat="49.40453" lon="1.18229">
        <ele>158</ele>
        <time>2017-02-28T16:50:02Z</time>
      </trkpt>
      <trkpt lat="49.40455" lon="1.18223">
        <ele>158</ele>
        <time>2017-02-28T16:50:02Z</time>
      </trkpt>
      <trkpt lat="49.40454" lon="1.18214">
        <ele>158</ele>
        <time>2017-02-28T16:50:02Z</time>
      </trkpt>
      <trkpt lat="49.40455" lon="1.18209">
        <ele>158</ele>
        <time>2017-02-28T16:50:02Z</time>
      </trkpt>
      <trkpt lat="49.40455" lon="1.18203">
        <ele>159</ele>
        <time>2017-02-28T16:50:18Z</time>
      </trkpt>
      <trkpt lat="49.40456" lon="1.18194">
        <ele>159</ele>
        <time>2017-02-28T16:50:18Z</time>
      </trkpt>
      <trkpt lat="49.40457" lon="1.18185">
        <ele>159</ele>
        <time>2017-02-28T16:50:18Z</time>
      </trkpt>
      <trkpt lat="49.40458" lon="1.1818">
        <ele>159</ele>
        <time>2017-02-28T16:50:18Z</time>
      </trkpt>
      <trkpt lat="49.40459" lon="1.18171">
        <ele>159</ele>
        <time>2017-02-28T16:50:35Z</time>
      </trkpt>
      <trkpt lat="49.40459" lon="1.18163">
        <ele>159</ele>
        <time>2017-02-28T16:50:35Z</time>
      </trkpt>
      <trkpt lat="49.40461" lon="1.18159">
        <ele>159</ele>
        <time>2017-02-28T16:50:35Z</time>
      </trkpt>
      <trkpt lat="49.40464" lon="1.18152">
        <ele>159</ele>
        <time>2017-02-28T16:50:35Z</time>
      </trkpt>
      <trkpt lat="49.40465" lon="1.18147">
        <ele>159</ele>
        <time>2017-02-28T16:50:51Z</time>
      </trkpt>
      <trkpt lat="49.40466" lon="1.18138">
        <ele>159</ele>
        <time>2017-02-28T16:50:51Z</time>
      </trkpt>
      <trkpt lat="49.40466" lon="1.18131">
        <ele>159</ele>
        <time>2017-02-28T16:50:51Z</time>
      </trkpt>
      <trkpt lat="49.40467" lon="1.18124">
        <ele>159</ele>
        <time>2017-02-28T16:50:51Z</time>
      </trkpt>
      <trkpt lat="49.40468" lon="1.18116">
        <ele>159</ele>
        <time>2017-02-28T16:51:06Z</time>
      </trkpt>
      <trkpt lat="49.40468" lon="1.18109">
        <ele>159</ele>
        <time>2017-02-28T16:51:06Z</time>
      </trkpt>
      <trkpt lat="49.4047" lon="1.18104">
        <ele>159</ele>
        <time>2017-02-28T16:51:06Z</time>
      </trkpt>
      <trkpt lat="49.40473" lon="1.18096">
        <ele>159</ele>
        <time>2017-02-28T16:51:06Z</time>
      </trkpt>
      <trkpt lat="49.40475" lon="1.1809">
        <ele>159</ele>
        <time>2017-02-28T16:51:22Z</time>
      </trkpt>
      <trkpt lat="49.40477" lon="1.18083">
        <ele>159</ele>
        <time>2017-02-28T16:51:22Z</time>
      </trkpt>
      <trkpt lat="49.40476" lon="1.18076">
        <ele>159</ele>
        <time>2017-02-28T16:51:22Z</time>
      </trkpt>
      <trkpt lat="49.40475" lon="1.18073">
        <ele>159</ele>
        <time>2017-02-28T16:51:22Z</time>
      </trkpt>
      <trkpt lat="49.40471" lon="1.18068">
        <ele>159</ele>
        <time>2017-02-28T16:51:38Z</time>
      </trkpt>
      <trkpt lat="49.40467" lon="1.18066">
        <ele>159</ele>
        <time>2017-02-28T16:51:38Z</time>
      </trkpt>
      <trkpt lat="49.40464" lon="1.18064">
        <ele>159</ele>
        <time>2017-02-28T16:51:38Z</time>
      </trkpt>
      <trkpt lat="49.40461" lon="1.18062">
        <ele>159</ele>
        <time>2017-02-28T16:51:38Z</time>
      </trkpt>
      <trkpt lat="49.40455" lon="1.18061">
        <ele>158</ele>
        <time>2017-02-28T16:51:54Z</time>
      </trkpt>
      <trkpt lat="49.4045" lon="1.18058">
        <ele>158</ele>
        <time>2017-02-28T16:51:54Z</time>
      </trkpt>
      <trkpt lat="49.40447" lon="1.18056">
        <ele>158</ele>
        <time>2017-02-28T16:51:54Z</time>
      </trkpt>
      <trkpt lat="49.40441" lon="1.18054">
        <ele>158</ele>
        <time>2017-02-28T16:51:54Z</time>
      </trkpt>
      <trkpt lat="49.40437" lon="1.1805">
        <ele>158</ele>
        <time>2017-02-28T16:52:11Z</time>
      </trkpt>
      <trkpt lat="49.40434" lon="1.18046">
        <ele>158</ele>
        <time>2017-02-28T16:52:11Z</time>
      </trkpt>
      <trkpt lat="49.40431" lon="1.18042">
        <ele>158</ele>
        <time>2017-02-28T16:52:11Z</time>
      </trkpt>
      <trkpt lat="49.40428" lon="1.18034">
        <ele>158</ele>
        <time>2017-02-28T16:52:11Z</time>
      </trkpt>
      <trkpt lat="49.40426" lon="1.1803">
        <ele>158</ele>
        <time>2017-02-28T16:52:26Z</time>
      </trkpt>
      <trkpt lat="49.40423" lon="1.18022">
        <ele>158</ele>
        <time>2017-02-28T16:52:26Z</time>
      </trkpt>
      <trkpt lat="49.40421" lon="1.18018">
        <ele>158</ele>
        <time>2017-02-28T16:52:26Z</time>
      </trkpt>
      <trkpt lat="49.40418" lon="1.18012">
        <ele>158</ele>
        <time>2017-02-28T16:52:26Z</time>
      </trkpt>
      <trkpt lat="49.40415" lon="1.18006">
        <ele>158</ele>
        <time>2017-02-28T16:52:42Z</time>
      </trkpt>
      <trkpt lat="49.40412" lon="1.18002">
        <ele>158</ele>
        <time>2017-02-28T16:52:42Z</time>
      </trkpt>
      <trkpt lat="49.40407" lon="1.17999">
        <ele>158</ele>
        <time>2017-02-28T16:52:42Z</time>
      </trkpt>
      <trkpt lat="49.40401" lon="1.17997">
        <ele>158</ele>
        <time>2017-02-28T16:52:42Z</time>
      </trkpt>
      <trkpt lat="49.40397" lon="1.17994">
        <ele>158</ele>
        <time>2017-02-28T16:52:58Z</time>
      </trkpt>
      <trkpt lat="49.40392" lon="1.17992">
        <ele>158</ele>
        <time>2017-02-28T16:52:58Z</time>
      </trkpt>
      <trkpt lat="49.40387" lon="1.17989">
        <ele>158</ele>
        <time>2017-02-28T16:52:58Z</time>
      </trkpt>
      <trkpt lat="49.40382" lon="1.17984">
        <ele>158</ele>
        <time>2017-02-28T16:52:58Z</time>
      </trkpt>
      <trkpt lat="49.40376" lon="1.17979">
        <ele>158</ele>
        <time>2017-02-28T16:53:13Z</time>
      </trkpt>
      <trkpt lat="49.40371" lon="1.17976">
        <ele>157</ele>
        <time>2017-02-28T16:53:13Z</time>
      </trkpt>
      <trkpt lat="49.40368" lon="1.17975">
        <ele>157</ele>
        <time>2017-02-28T16:53:13Z</time>
      </trkpt>
      <trkpt lat="49.40364" lon="1.17974">
        <ele>157</ele>
        <time>2017-02-28T16:53:13Z</time>
      </trkpt>
      <trkpt lat="49.40361" lon="1.17971">
        <ele>157</ele>
        <time>2017-02-28T16:53:30Z</time>
      </trkpt>
      <trkpt lat="49.40354" lon="1.17969">
        <ele>157</ele>
        <time>2017-02-28T16:53:30Z</time>
      </trkpt>
      <trkpt lat="49.40351" lon="1.17967">
        <ele>157</ele>
        <time>2017-02-28T16:53:30Z</time>
      </trkpt>
      <trkpt lat="49.40349" lon="1.1796">
        <ele>157</ele>
        <time>2017-02-28T16:53:30Z</time>
      </trkpt>
      <trkpt lat="49.40351" lon="1.17952">
        <ele>155</ele>
        <time>2017-02-28T16:53:46Z</time>
      </trkpt>
      <trkpt lat="49.4035" lon="1.17946">
        <ele>155</ele>
        <time>2017-02-28T16:53:46Z</time>
      </trkpt>
      <trkpt lat="49.40348" lon="1.17943">
        <ele>155</ele>
        <time>2017-02-28T16:53:46Z</time>
      </trkpt>
      <trkpt lat="49.40351" lon="1.17938">
        <ele>155</ele>
        <time>2017-02-28T16:53:46Z</time>
      </trkpt>
      <trkpt lat="49.40354" lon="1.17931">
        <ele>155</ele>
        <time>2017-02-28T16:54:02Z</time>
      </trkpt>
      <trkpt lat="49.40356" lon="1.17928">
        <ele>155</ele>
        <time>2017-02-28T16:54:02Z</time>
      </trkpt>
      <trkpt lat="49.40353" lon="1.17924">
        <ele>155</ele>
        <time>2017-02-28T16:54:02Z</time>
      </trkpt>
      <trkpt lat="49.40352" lon="1.17918">
        <ele>155</ele>
        <time>2017-02-28T16:54:02Z</time>
      </trkpt>
      <trkpt lat="49.4035" lon="1.17911">
        <ele>155</ele>
        <time>2017-02-28T16:54:18Z</time>
      </trkpt>
      <trkpt lat="49.4035" lon="1.17904">
        <ele>155</ele>
        <time>2017-02-28T16:54:18Z</time>
      </trkpt>
      <trkpt lat="49.40351" lon="1.17895">
        <ele>155</ele>
        <time>2017-02-28T16:54:18Z</time>
      </trkpt>
      <trkpt lat="49.40351" lon="1.17887">
        <ele>155</ele>
        <time>2017-02-28T16:54:18Z</time>
      </trkpt>
      <trkpt lat="49.40351" lon="1.17882">
        <ele>155</ele>
        <time>2017-02-28T16:54:33Z</time>
      </trkpt>
      <trkpt lat="49.40351" lon="1.17874">
        <ele>154</ele>
        <time>2017-02-28T16:54:33Z</time>
      </trkpt>
      <trkpt lat="49.40354" lon="1.17863">
        <ele>154</ele>
        <time>2017-02-28T16:54:33Z</time>
      </trkpt>
      <trkpt lat="49.40354" lon="1.17856">
        <ele>154</ele>
        <time>2017-02-28T16:54:33Z</time>
      </trkpt>
      <trkpt lat="49.40354" lon="1.17846">
        <ele>154</ele>
        <time>2017-02-28T16:54:49Z</time>
      </trkpt>
      <trkpt lat="49.40355" lon="1.17839">
        <ele>154</ele>
        <time>2017-02-28T16:54:49Z</time>
      </trkpt>
      <trkpt lat="49.40358" lon="1.17831">
        <ele>154</ele>
        <time>2017-02-28T16:54:49Z</time>
      </trkpt>
      <trkpt lat="49.40359" lon="1.17823">
        <ele>154</ele>
        <time>2017-02-28T16:54:49Z</time>
      </trkpt>
      <trkpt lat="49.4036" lon="1.17815">
        <ele>154</ele>
        <time>2017-02-28T16:55:05Z</time>
      </trkpt>
      <trkpt lat="49.40361" lon="1.17807">
        <ele>154</ele>
        <time>2017-02-28T16:55:05Z</time>
      </trkpt>
      <trkpt lat="49.40364" lon="1.17799">
        <ele>154</ele>
        <time>2017-02-28T16:55:05Z</time>
      </trkpt>
      <trkpt lat="49.40365" lon="1.17792">
        <ele>154</ele>
        <time>2017-02-28T16:55:05Z</time>
      </trkpt>
      <trkpt lat="49.40366" lon="1.17785">
        <ele>153</ele>
        <time>2017-02-28T16:55:21Z</time>
      </trkpt>
      <trkpt lat="49.40367" lon="1.17778">
        <ele>153</ele>
        <time>2017-02-28T16:55:21Z</time>
      </trkpt>
      <trkpt lat="49.40368" lon="1.17771">
        <ele>153</ele>
        <time>2017-02-28T16:55:21Z</time>
      </trkpt>
      <trkpt lat="49.40369" lon="1.17763">
        <ele>153</ele>
        <time>2017-02-28T16:55:21Z</time>
      </trkpt>
      <trkpt lat="49.4037" lon="1.17755">
        <ele>153</ele>
        <time>2017-02-28T16:55:38Z</time>
      </trkpt>
      <trkpt lat="49.40369" lon="1.17747">
        <ele>153</ele>
        <time>2017-02-28T16:55:38Z</time>
      </trkpt>
      <trkpt lat="49.40368" lon="1.17739">
        <ele>153</ele>
        <time>2017-02-28T16:55:38Z</time>
      </trkpt>
      <trkpt lat="49.40368" lon="1.17731">
        <ele>153</ele>
        <time>2017-02-28T16:55:38Z</time>
      </trkpt>
      <trkpt lat="49.40371" lon="1.17724">
        <ele>153</ele>
        <time>2017-02-28T16:55:54Z</time>
      </trkpt>
      <trkpt lat="49.40372" lon="1.17716">
        <ele>153</ele>
        <time>2017-02-28T16:55:54Z</time>
      </trkpt>
      <trkpt lat="49.40371" lon="1.17709">
        <ele>153</ele>
        <time>2017-02-28T16:55:54Z</time>
      </trkpt>
      <trkpt lat="49.40372" lon="1.17704">
        <ele>154</ele>
        <time>2017-02-28T16:55:54Z</time>
      </trkpt>
      <trkpt lat="49.40371" lon="1.17699">
        <ele>154</ele>
        <time>2017-02-28T16:56:10Z</time>
      </trkpt>
      <trkpt lat="49.4037" lon="1.17692">
        <ele>154</ele>
        <time>2017-02-28T16:56:10Z</time>
      </trkpt>
      <trkpt lat="49.40368" lon="1.17687">
        <ele>154</ele>
        <time>2017-02-28T16:56:10Z</time>
      </trkpt>
      <trkpt lat="49.40372" lon="1.17678">
        <ele>154</ele>
        <time>2017-02-28T16:56:10Z</time>
      </trkpt>
      <trkpt lat="49.40374" lon="1.17671">
        <ele>154</ele>
        <time>2017-02-28T16:56:26Z</time>
      </trkpt>
      <trkpt lat="49.40377" lon="1.17664">
        <ele>155</ele>
        <time>2017-02-28T16:56:26Z</time>
      </trkpt>
      <trkpt lat="49.40382" lon="1.17657">
        <ele>155</ele>
        <time>2017-02-28T16:56:26Z</time>
      </trkpt>
      <trkpt lat="49.40387" lon="1.17651">
        <ele>155</ele>
        <time>2017-02-28T16:56:26Z</time>
      </trkpt>
      <trkpt lat="49.4039" lon="1.17645">
        <ele>155</ele>
        <time>2017-02-28T16:56:43Z</time>
      </trkpt>
      <trkpt lat="49.40392" lon="1.17639">
        <ele>155</ele>
        <time>2017-02-28T16:56:43Z</time>
      </trkpt>
      <trkpt lat="49.40393" lon="1.17633">
        <ele>155</ele>
        <time>2017-02-28T16:56:43Z</time>
      </trkpt>
      <trkpt lat="49.40396" lon="1.17625">
        <ele>155</ele>
        <time>2017-02-28T16:56:43Z</time>
      </trkpt>
      <trkpt lat="49.40398" lon="1.1762">
        <ele>155</ele>
        <time>2017-02-28T16:56:58Z</time>
      </trkpt>
      <trkpt lat="49.40399" lon="1.17611">
        <ele>155</ele>
        <time>2017-02-28T16:56:58Z</time>
      </trkpt>
      <trkpt lat="49.404" lon="1.17605">
        <ele>155</ele>
        <time>2017-02-28T16:56:58Z</time>
      </trkpt>
      <trkpt lat="49.40401" lon="1.17595">
        <ele>155</ele>
        <time>2017-02-28T16:56:58Z</time>
      </trkpt>
      <trkpt lat="49.40401" lon="1.1759">
        <ele>155</ele>
        <time>2017-02-28T16:57:14Z</time>
      </trkpt>
      <trkpt lat="49.404" lon="1.17584">
        <ele>155</ele>
        <time>2017-02-28T16:57:14Z</time>
      </trkpt>
      <trkpt lat="49.40404" lon="1.17579">
        <ele>155</ele>
        <time>2017-02-28T16:57:14Z</time>
      </trkpt>
      <trkpt lat="49.40407" lon="1.17573">
        <ele>155</ele>
        <time>2017-02-28T16:57:14Z</time>
      </trkpt>
      <trkpt lat="49.40408" lon="1.17568">
        <ele>155</ele>
        <time>2017-02-28T16:57:30Z</time>
      </trkpt>
      <trkpt lat="49.4041" lon="1.17559">
        <ele>155</ele>
        <time>2017-02-28T16:57:30Z</time>
      </trkpt>
      <trkpt lat="49.40412" lon="1.17549">
        <ele>155</ele>
        <time>2017-02-28T16:57:30Z</time>
      </trkpt>
      <trkpt lat="49.40413" lon="1.17542">
        <ele>155</ele>
        <time>2017-02-28T16:57:30Z</time>
      </trkpt>
      <trkpt lat="49.40414" lon="1.17536">
        <ele>155</ele>
        <time>2017-02-28T16:57:45Z</time>
      </trkpt>
      <trkpt lat="49.40415" lon="1.17525">
        <ele>155</ele>
        <time>2017-02-28T16:57:45Z</time>
      </trkpt>
      <trkpt lat="49.40416" lon="1.17517">
        <ele>155</ele>
        <time>2017-02-28T16:57:45Z</time>
      </trkpt>
      <trkpt lat="49.40417" lon="1.17511">
        <ele>155</ele>
        <time>2017-02-28T16:57:45Z</time>
      </trkpt>
      <trkpt lat="49.40418" lon="1.17504">
        <ele>155</ele>
        <time>2017-02-28T16:58:02Z</time>
      </trkpt>
      <trkpt lat="49.40418" lon="1.17499">
        <ele>155</ele>
        <time>2017-02-28T16:58:02Z</time>
      </trkpt>
      <trkpt lat="49.4042" lon="1.17491">
        <ele>155</ele>
        <time>2017-02-28T16:58:02Z</time>
      </trkpt>
      <trkpt lat="49.40421" lon="1.17486">
        <ele>155</ele>
        <time>2017-02-28T16:58:02Z</time>
      </trkpt>
      <trkpt lat="49.40422" lon="1.17475">
        <ele>155</ele>
        <time>2017-02-28T16:58:18Z</time>
      </trkpt>
      <trkpt lat="49.40423" lon="1.1747">
        <ele>155</ele>
        <time>2017-02-28T16:58:18Z</time>
      </trkpt>
      <trkpt lat="49.40425" lon="1.17462">
        <ele>155</ele>
        <time>2017-02-28T16:58:18Z</time>
      </trkpt>
      <trkpt lat="49.40426" lon="1.17457">
        <ele>154</ele>
        <time>2017-02-28T16:58:18Z</time>
      </trkpt>
      <trkpt lat="49.40427" lon="1.1745">
        <ele>154</ele>
        <time>2017-02-28T16:58:33Z</time>
      </trkpt>
      <trkpt lat="49.40429" lon="1.17442">
        <ele>154</ele>
        <time>2017-02-28T16:58:33Z</time>
      </trkpt>
      <trkpt lat="49.40431" lon="1.17435">
        <ele>154</ele>
        <time>2017-02-28T16:58:33Z</time>
      </trkpt>
      <trkpt lat="49.40432" lon="1.17431">
        <ele>154</ele>
        <time>2017-02-28T16:58:33Z</time>
      </trkpt>
      <trkpt lat="49.40433" lon="1.17422">
        <ele>154</ele>
        <time>2017-02-28T16:58:50Z</time>
      </trkpt>
      <trkpt lat="49.40434" lon="1.17416">
        <ele>154</ele>
        <time>2017-02-28T16:58:50Z</time>
      </trkpt>
      <trkpt lat="49.40436" lon="1.17406">
        <ele>154</ele>
        <time>2017-02-28T16:58:50Z</time>
      </trkpt>
      <trkpt lat="49.40437" lon="1.17398">
        <ele>154</ele>
        <time>2017-02-28T16:58:50Z</time>
      </trkpt>
      <trkpt lat="49.40438" lon="1.17392">
        <ele>154</ele>
        <time>2017-02-28T16:59:06Z</time>
      </trkpt>
      <trkpt lat="49.4044" lon="1.17383">
        <ele>154</ele>
        <time>2017-02-28T16:59:07Z</time>
      </trkpt>
      <trkpt lat="49.40442" lon="1.17376">
        <ele>154</ele>
        <time>2017-02-28T16:59:07Z</time>
      </trkpt>
      <trkpt lat="49.40444" lon="1.17367">
        <ele>153</ele>
        <time>2017-02-28T16:59:07Z</time>
      </trkpt>
      <trkpt lat="49.40448" lon="1.17362">
        <ele>153</ele>
        <time>2017-02-28T16:59:21Z</time>
      </trkpt>
      <trkpt lat="49.4045" lon="1.17358">
        <ele>153</ele>
        <time>2017-02-28T16:59:21Z</time>
      </trkpt>
      <trkpt lat="49.40453" lon="1.17351">
        <ele>153</ele>
        <time>2017-02-28T16:59:22Z</time>
      </trkpt>
      <trkpt lat="49.40457" lon="1.17345">
        <ele>153</ele>
        <time>2017-02-28T16:59:22Z</time>
      </trkpt>
      <trkpt lat="49.4046" lon="1.17333">
        <ele>156</ele>
        <time>2017-02-28T16:59:45Z</time>
      </trkpt>
      <trkpt lat="49.40461" lon="1.17333">
        <ele>156</ele>
        <time>2017-02-28T16:59:45Z</time>
      </trkpt>
      <trkpt lat="49.40461" lon="1.17332">
        <ele>156</ele>
        <time>2017-02-28T16:59:45Z</time>
      </trkpt>
      <trkpt lat="49.4046" lon="1.17327">
        <ele>156</ele>
        <time>2017-02-28T16:59:45Z</time>
      </trkpt>
      <trkpt lat="49.40457" lon="1.17324">
        <ele>153</ele>
        <time>2017-02-28T16:59:45Z</time>
      </trkpt>
      <trkpt lat="49.40455" lon="1.17322">
        <ele>153</ele>
        <time>2017-02-28T17:00:01Z</time>
      </trkpt>
      <trkpt lat="49.40453" lon="1.1732">
        <ele>153</ele>
        <time>2017-02-28T17:00:01Z</time>
      </trkpt>
      <trkpt lat="49.40451" lon="1.17315">
        <ele>153</ele>
        <time>2017-02-28T17:00:01Z</time>
      </trkpt>
      <trkpt lat="49.40448" lon="1.1731">
        <ele>153</ele>
        <time>2017-02-28T17:00:01Z</time>
      </trkpt>
      <trkpt lat="49.40445" lon="1.17307">
        <ele>153</ele>
        <time>2017-02-28T17:00:18Z</time>
      </trkpt>
      <trkpt lat="49.40441" lon="1.17303">
        <ele>153</ele>
        <time>2017-02-28T17:00:18Z</time>
      </trkpt>
      <trkpt lat="49.40438" lon="1.17299">
        <ele>153</ele>
        <time>2017-02-28T17:00:18Z</time>
      </trkpt>
      <trkpt lat="49.40434" lon="1.17294">
        <ele>153</ele>
        <time>2017-02-28T17:00:18Z</time>
      </trkpt>
      <trkpt lat="49.4043" lon="1.1729">
        <ele>153</ele>
        <time>2017-02-28T17:00:34Z</time>
      </trkpt>
      <trkpt lat="49.40426" lon="1.17286">
        <ele>153</ele>
        <time>2017-02-28T17:00:34Z</time>
      </trkpt>
      <trkpt lat="49.4042" lon="1.17282">
        <ele>153</ele>
        <time>2017-02-28T17:00:34Z</time>
      </trkpt>
      <trkpt lat="49.40416" lon="1.17278">
        <ele>153</ele>
        <time>2017-02-28T17:00:34Z</time>
      </trkpt>
      <trkpt lat="49.40411" lon="1.17275">
        <ele>153</ele>
        <time>2017-02-28T17:00:49Z</time>
      </trkpt>
      <trkpt lat="49.40407" lon="1.17271">
        <ele>153</ele>
        <time>2017-02-28T17:00:49Z</time>
      </trkpt>
      <trkpt lat="49.40404" lon="1.17269">
        <ele>153</ele>
        <time>2017-02-28T17:00:49Z</time>
      </trkpt>
      <trkpt lat="49.40399" lon="1.17265">
        <ele>153</ele>
        <time>2017-02-28T17:00:49Z</time>
      </trkpt>
      <trkpt lat="49.40395" lon="1.17262">
        <ele>153</ele>
        <time>2017-02-28T17:01:05Z</time>
      </trkpt>
      <trkpt lat="49.4039" lon="1.17258">
        <ele>153</ele>
        <time>2017-02-28T17:01:05Z</time>
      </trkpt>
      <trkpt lat="49.40383" lon="1.17254">
        <ele>153</ele>
        <time>2017-02-28T17:01:05Z</time>
      </trkpt>
      <trkpt lat="49.4038" lon="1.17252">
        <ele>153</ele>
        <time>2017-02-28T17:01:05Z</time>
      </trkpt>
      <trkpt lat="49.40376" lon="1.1725">
        <ele>153</ele>
        <time>2017-02-28T17:01:22Z</time>
      </trkpt>
      <trkpt lat="49.40373" lon="1.17247">
        <ele>151</ele>
        <time>2017-02-28T17:01:22Z</time>
      </trkpt>
      <trkpt lat="49.40368" lon="1.17243">
        <ele>151</ele>
        <time>2017-02-28T17:01:22Z</time>
      </trkpt>
      <trkpt lat="49.40364" lon="1.1724">
        <ele>151</ele>
        <time>2017-02-28T17:01:22Z</time>
      </trkpt>
      <trkpt lat="49.40359" lon="1.17238">
        <ele>151</ele>
        <time>2017-02-28T17:01:38Z</time>
      </trkpt>
      <trkpt lat="49.40356" lon="1.17235">
        <ele>151</ele>
        <time>2017-02-28T17:01:38Z</time>
      </trkpt>
      <trkpt lat="49.40352" lon="1.17232">
        <ele>151</ele>
        <time>2017-02-28T17:01:38Z</time>
      </trkpt>
      <trkpt lat="49.40348" lon="1.17228">
        <ele>151</ele>
        <time>2017-02-28T17:01:38Z</time>
      </trkpt>
      <trkpt lat="49.40342" lon="1.17226">
        <ele>151</ele>
        <time>2017-02-28T17:01:54Z</time>
      </trkpt>
      <trkpt lat="49.40338" lon="1.17226">
        <ele>151</ele>
        <time>2017-02-28T17:01:54Z</time>
      </trkpt>
      <trkpt lat="49.40331" lon="1.17223">
        <ele>151</ele>
        <time>2017-02-28T17:01:54Z</time>
      </trkpt>
      <trkpt lat="49.40328" lon="1.1722">
        <ele>151</ele>
        <time>2017-02-28T17:01:54Z</time>
      </trkpt>
      <trkpt lat="49.40326" lon="1.17212">
        <ele>151</ele>
        <time>2017-02-28T17:02:10Z</time>
      </trkpt>
      <trkpt lat="49.40324" lon="1.17209">
        <ele>151</ele>
        <time>2017-02-28T17:02:10Z</time>
      </trkpt>
      <trkpt lat="49.40323" lon="1.17203">
        <ele>151</ele>
        <time>2017-02-28T17:02:10Z</time>
      </trkpt>
      <trkpt lat="49.40322" lon="1.17197">
        <ele>151</ele>
        <time>2017-02-28T17:02:10Z</time>
      </trkpt>
    </trkseg>
  </trk>
</gpx>